<?xml version="1.0" encoding="UTF-8" standalone="no" ?>
<gpx xmlns="http://www.topografix.com/GPX/1/1" xmlns:xsi="http://www.w3.org/2001/XMLSchema-instance" xsi:schemaLocation="http://www.topografix.com/GPX/1/1 http://www.topografix.com/GPX/1/1/gpx.xsd" version="1.1" creator="VisuGPX - https://www.visugpx.com">
  <metadata>
    <name>160309ROBBenjamins</name>
    <desc><![CDATA[excellente sortie]]></desc>
  </metadata>
  <trk>
    <name><![CDATA[160309ROBBenjaminsEdge1000]]></name>
    <trkseg>
      <trkpt lat="43.41578" lon="6.07037">
        <ele>211</ele>
        <time>2016-03-09T13:02:31Z</time>
      </trkpt>
      <trkpt lat="43.41578" lon="6.07037">
        <ele>210.60000610352</ele>
        <time>2016-03-09T13:02:32Z</time>
      </trkpt>
      <trkpt lat="43.41579" lon="6.07041">
        <ele>211.39999389648</ele>
        <time>2016-03-09T13:02:39Z</time>
      </trkpt>
      <trkpt lat="43.41582" lon="6.07056">
        <ele>211.39999389648</ele>
        <time>2016-03-09T13:02:48Z</time>
      </trkpt>
      <trkpt lat="43.41582" lon="6.07061">
        <ele>211.60000610352</ele>
        <time>2016-03-09T13:02:50Z</time>
      </trkpt>
      <trkpt lat="43.41585" lon="6.07094">
        <ele>211.39999389648</ele>
        <time>2016-03-09T13:03:01Z</time>
      </trkpt>
      <trkpt lat="43.41584" lon="6.07106">
        <ele>211.19999694824</ele>
        <time>2016-03-09T13:03:05Z</time>
      </trkpt>
      <trkpt lat="43.41571" lon="6.07111">
        <ele>211.60000610352</ele>
        <time>2016-03-09T13:03:11Z</time>
      </trkpt>
      <trkpt lat="43.41548" lon="6.07111">
        <ele>211.80000305176</ele>
        <time>2016-03-09T13:03:19Z</time>
      </trkpt>
      <trkpt lat="43.41546" lon="6.07095">
        <ele>211.80000305176</ele>
        <time>2016-03-09T13:03:23Z</time>
      </trkpt>
      <trkpt lat="43.41537" lon="6.07078">
        <ele>210.80000305176</ele>
        <time>2016-03-09T13:03:28Z</time>
      </trkpt>
      <trkpt lat="43.41512" lon="6.07081">
        <ele>210</ele>
        <time>2016-03-09T13:03:34Z</time>
      </trkpt>
      <trkpt lat="43.41467" lon="6.07067">
        <ele>209.39999389648</ele>
        <time>2016-03-09T13:03:48Z</time>
      </trkpt>
      <trkpt lat="43.41466" lon="6.07067">
        <ele>208.80000305176</ele>
        <time>2016-03-09T13:03:50Z</time>
      </trkpt>
      <trkpt lat="43.41466" lon="6.07065">
        <ele>208.60000610352</ele>
        <time>2016-03-09T13:03:57Z</time>
      </trkpt>
      <trkpt lat="43.41466" lon="6.07065">
        <ele>208.60000610352</ele>
        <time>2016-03-09T13:04:08Z</time>
      </trkpt>
      <trkpt lat="43.41465" lon="6.07064">
        <ele>208.60000610352</ele>
        <time>2016-03-09T13:04:31Z</time>
      </trkpt>
      <trkpt lat="43.41471" lon="6.07053">
        <ele>209.19999694824</ele>
        <time>2016-03-09T13:04:43Z</time>
      </trkpt>
      <trkpt lat="43.41475" lon="6.07044">
        <ele>209</ele>
        <time>2016-03-09T13:04:45Z</time>
      </trkpt>
      <trkpt lat="43.4148" lon="6.07033">
        <ele>209.19999694824</ele>
        <time>2016-03-09T13:04:47Z</time>
      </trkpt>
      <trkpt lat="43.41483" lon="6.07027">
        <ele>209</ele>
        <time>2016-03-09T13:04:48Z</time>
      </trkpt>
      <trkpt lat="43.41485" lon="6.07021">
        <ele>209</ele>
        <time>2016-03-09T13:04:49Z</time>
      </trkpt>
      <trkpt lat="43.41491" lon="6.07002">
        <ele>209.39999389648</ele>
        <time>2016-03-09T13:04:52Z</time>
      </trkpt>
      <trkpt lat="43.41492" lon="6.06996">
        <ele>209.39999389648</ele>
        <time>2016-03-09T13:04:53Z</time>
      </trkpt>
      <trkpt lat="43.41491" lon="6.06977">
        <ele>210.19999694824</ele>
        <time>2016-03-09T13:04:56Z</time>
      </trkpt>
      <trkpt lat="43.41484" lon="6.06963">
        <ele>210</ele>
        <time>2016-03-09T13:04:59Z</time>
      </trkpt>
      <trkpt lat="43.41482" lon="6.06958">
        <ele>210.19999694824</ele>
        <time>2016-03-09T13:05:00Z</time>
      </trkpt>
      <trkpt lat="43.41478" lon="6.0695">
        <ele>210.39999389648</ele>
        <time>2016-03-09T13:05:02Z</time>
      </trkpt>
      <trkpt lat="43.4146" lon="6.06918">
        <ele>211</ele>
        <time>2016-03-09T13:05:11Z</time>
      </trkpt>
      <trkpt lat="43.41463" lon="6.06896">
        <ele>211.19999694824</ele>
        <time>2016-03-09T13:05:15Z</time>
      </trkpt>
      <trkpt lat="43.41454" lon="6.06865">
        <ele>211.60000610352</ele>
        <time>2016-03-09T13:05:21Z</time>
      </trkpt>
      <trkpt lat="43.41425" lon="6.06858">
        <ele>211.39999389648</ele>
        <time>2016-03-09T13:05:27Z</time>
      </trkpt>
      <trkpt lat="43.41415" lon="6.06857">
        <ele>211.39999389648</ele>
        <time>2016-03-09T13:05:29Z</time>
      </trkpt>
      <trkpt lat="43.41382" lon="6.0683">
        <ele>212</ele>
        <time>2016-03-09T13:05:38Z</time>
      </trkpt>
      <trkpt lat="43.4137" lon="6.06824">
        <ele>211.80000305176</ele>
        <time>2016-03-09T13:05:42Z</time>
      </trkpt>
      <trkpt lat="43.4134" lon="6.0681">
        <ele>211.60000610352</ele>
        <time>2016-03-09T13:05:50Z</time>
      </trkpt>
      <trkpt lat="43.41319" lon="6.06798">
        <ele>211.19999694824</ele>
        <time>2016-03-09T13:05:55Z</time>
      </trkpt>
      <trkpt lat="43.41301" lon="6.06783">
        <ele>210.19999694824</ele>
        <time>2016-03-09T13:05:59Z</time>
      </trkpt>
      <trkpt lat="43.41287" lon="6.06767">
        <ele>209.80000305176</ele>
        <time>2016-03-09T13:06:03Z</time>
      </trkpt>
      <trkpt lat="43.41281" lon="6.06756">
        <ele>209.60000610352</ele>
        <time>2016-03-09T13:06:05Z</time>
      </trkpt>
      <trkpt lat="43.41275" lon="6.06731">
        <ele>209.39999389648</ele>
        <time>2016-03-09T13:06:09Z</time>
      </trkpt>
      <trkpt lat="43.41261" lon="6.06685">
        <ele>209.80000305176</ele>
        <time>2016-03-09T13:06:19Z</time>
      </trkpt>
      <trkpt lat="43.41249" lon="6.06688">
        <ele>209</ele>
        <time>2016-03-09T13:06:22Z</time>
      </trkpt>
      <trkpt lat="43.41246" lon="6.06695">
        <ele>207.80000305176</ele>
        <time>2016-03-09T13:06:25Z</time>
      </trkpt>
      <trkpt lat="43.41245" lon="6.06697">
        <ele>208</ele>
        <time>2016-03-09T13:06:26Z</time>
      </trkpt>
      <trkpt lat="43.41246" lon="6.06706">
        <ele>208</ele>
        <time>2016-03-09T13:06:32Z</time>
      </trkpt>
      <trkpt lat="43.41247" lon="6.06712">
        <ele>208</ele>
        <time>2016-03-09T13:06:35Z</time>
      </trkpt>
      <trkpt lat="43.41245" lon="6.06713">
        <ele>208.39999389648</ele>
        <time>2016-03-09T13:06:38Z</time>
      </trkpt>
      <trkpt lat="43.41227" lon="6.06712">
        <ele>207.19999694824</ele>
        <time>2016-03-09T13:06:43Z</time>
      </trkpt>
      <trkpt lat="43.41218" lon="6.06712">
        <ele>207</ele>
        <time>2016-03-09T13:06:45Z</time>
      </trkpt>
      <trkpt lat="43.41204" lon="6.06713">
        <ele>206.60000610352</ele>
        <time>2016-03-09T13:06:48Z</time>
      </trkpt>
      <trkpt lat="43.41167" lon="6.06712">
        <ele>206</ele>
        <time>2016-03-09T13:06:55Z</time>
      </trkpt>
      <trkpt lat="43.41135" lon="6.0672">
        <ele>205.80000305176</ele>
        <time>2016-03-09T13:07:03Z</time>
      </trkpt>
      <trkpt lat="43.41119" lon="6.0673">
        <ele>206.19999694824</ele>
        <time>2016-03-09T13:07:07Z</time>
      </trkpt>
      <trkpt lat="43.41103" lon="6.06738">
        <ele>205.60000610352</ele>
        <time>2016-03-09T13:07:11Z</time>
      </trkpt>
      <trkpt lat="43.41088" lon="6.06748">
        <ele>205.19999694824</ele>
        <time>2016-03-09T13:07:22Z</time>
      </trkpt>
      <trkpt lat="43.41085" lon="6.06752">
        <ele>205</ele>
        <time>2016-03-09T13:07:24Z</time>
      </trkpt>
      <trkpt lat="43.41082" lon="6.06768">
        <ele>205.19999694824</ele>
        <time>2016-03-09T13:07:28Z</time>
      </trkpt>
      <trkpt lat="43.41069" lon="6.06833">
        <ele>205</ele>
        <time>2016-03-09T13:07:42Z</time>
      </trkpt>
      <trkpt lat="43.41069" lon="6.06849">
        <ele>205.19999694824</ele>
        <time>2016-03-09T13:07:47Z</time>
      </trkpt>
      <trkpt lat="43.41072" lon="6.06848">
        <ele>205.39999389648</ele>
        <time>2016-03-09T13:07:49Z</time>
      </trkpt>
      <trkpt lat="43.41067" lon="6.06859">
        <ele>206</ele>
        <time>2016-03-09T13:08:01Z</time>
      </trkpt>
      <trkpt lat="43.41067" lon="6.0686">
        <ele>206.19999694824</ele>
        <time>2016-03-09T13:08:02Z</time>
      </trkpt>
      <trkpt lat="43.41066" lon="6.06864">
        <ele>206.80000305176</ele>
        <time>2016-03-09T13:08:05Z</time>
      </trkpt>
      <trkpt lat="43.41062" lon="6.06866">
        <ele>206.80000305176</ele>
        <time>2016-03-09T13:08:07Z</time>
      </trkpt>
      <trkpt lat="43.41051" lon="6.0687">
        <ele>207</ele>
        <time>2016-03-09T13:08:11Z</time>
      </trkpt>
      <trkpt lat="43.41032" lon="6.0688">
        <ele>205.19999694824</ele>
        <time>2016-03-09T13:08:16Z</time>
      </trkpt>
      <trkpt lat="43.41027" lon="6.06882">
        <ele>205</ele>
        <time>2016-03-09T13:08:17Z</time>
      </trkpt>
      <trkpt lat="43.41018" lon="6.06888">
        <ele>205.80000305176</ele>
        <time>2016-03-09T13:08:25Z</time>
      </trkpt>
      <trkpt lat="43.41015" lon="6.06894">
        <ele>205.60000610352</ele>
        <time>2016-03-09T13:08:29Z</time>
      </trkpt>
      <trkpt lat="43.41014" lon="6.069">
        <ele>205.80000305176</ele>
        <time>2016-03-09T13:08:32Z</time>
      </trkpt>
      <trkpt lat="43.41005" lon="6.0691">
        <ele>205.39999389648</ele>
        <time>2016-03-09T13:08:36Z</time>
      </trkpt>
      <trkpt lat="43.40956" lon="6.06934">
        <ele>204.39999389648</ele>
        <time>2016-03-09T13:08:47Z</time>
      </trkpt>
      <trkpt lat="43.4091" lon="6.0695">
        <ele>204.80000305176</ele>
        <time>2016-03-09T13:08:57Z</time>
      </trkpt>
      <trkpt lat="43.40891" lon="6.06978">
        <ele>205.39999389648</ele>
        <time>2016-03-09T13:09:03Z</time>
      </trkpt>
      <trkpt lat="43.40886" lon="6.06982">
        <ele>205.19999694824</ele>
        <time>2016-03-09T13:09:04Z</time>
      </trkpt>
      <trkpt lat="43.40876" lon="6.06987">
        <ele>205</ele>
        <time>2016-03-09T13:09:06Z</time>
      </trkpt>
      <trkpt lat="43.40861" lon="6.06992">
        <ele>205.60000610352</ele>
        <time>2016-03-09T13:09:09Z</time>
      </trkpt>
      <trkpt lat="43.40844" lon="6.07">
        <ele>205.39999389648</ele>
        <time>2016-03-09T13:09:13Z</time>
      </trkpt>
      <trkpt lat="43.40839" lon="6.0701">
        <ele>205.60000610352</ele>
        <time>2016-03-09T13:09:16Z</time>
      </trkpt>
      <trkpt lat="43.40845" lon="6.07089">
        <ele>205.60000610352</ele>
        <time>2016-03-09T13:09:29Z</time>
      </trkpt>
      <trkpt lat="43.40844" lon="6.07096">
        <ele>205.39999389648</ele>
        <time>2016-03-09T13:09:30Z</time>
      </trkpt>
      <trkpt lat="43.40834" lon="6.07155">
        <ele>205.80000305176</ele>
        <time>2016-03-09T13:09:39Z</time>
      </trkpt>
      <trkpt lat="43.40827" lon="6.07171">
        <ele>205.60000610352</ele>
        <time>2016-03-09T13:09:42Z</time>
      </trkpt>
      <trkpt lat="43.40817" lon="6.07192">
        <ele>205.80000305176</ele>
        <time>2016-03-09T13:09:46Z</time>
      </trkpt>
      <trkpt lat="43.40805" lon="6.0721">
        <ele>205.60000610352</ele>
        <time>2016-03-09T13:09:50Z</time>
      </trkpt>
      <trkpt lat="43.40776" lon="6.07238">
        <ele>206.19999694824</ele>
        <time>2016-03-09T13:09:58Z</time>
      </trkpt>
      <trkpt lat="43.40769" lon="6.07243">
        <ele>206.39999389648</ele>
        <time>2016-03-09T13:10:00Z</time>
      </trkpt>
      <trkpt lat="43.40718" lon="6.07272">
        <ele>207</ele>
        <time>2016-03-09T13:10:14Z</time>
      </trkpt>
      <trkpt lat="43.40692" lon="6.07286">
        <ele>207.39999389648</ele>
        <time>2016-03-09T13:10:21Z</time>
      </trkpt>
      <trkpt lat="43.40678" lon="6.07295">
        <ele>207.80000305176</ele>
        <time>2016-03-09T13:10:25Z</time>
      </trkpt>
      <trkpt lat="43.40657" lon="6.07307">
        <ele>208.39999389648</ele>
        <time>2016-03-09T13:10:31Z</time>
      </trkpt>
      <trkpt lat="43.4063" lon="6.07321">
        <ele>209.60000610352</ele>
        <time>2016-03-09T13:10:39Z</time>
      </trkpt>
      <trkpt lat="43.40615" lon="6.07308">
        <ele>210</ele>
        <time>2016-03-09T13:10:44Z</time>
      </trkpt>
      <trkpt lat="43.40604" lon="6.07294">
        <ele>210.80000305176</ele>
        <time>2016-03-09T13:10:48Z</time>
      </trkpt>
      <trkpt lat="43.40591" lon="6.07287">
        <ele>211.19999694824</ele>
        <time>2016-03-09T13:10:52Z</time>
      </trkpt>
      <trkpt lat="43.40578" lon="6.07296">
        <ele>211.60000610352</ele>
        <time>2016-03-09T13:10:57Z</time>
      </trkpt>
      <trkpt lat="43.40575" lon="6.07297">
        <ele>211.80000305176</ele>
        <time>2016-03-09T13:10:58Z</time>
      </trkpt>
      <trkpt lat="43.40537" lon="6.07291">
        <ele>212.60000610352</ele>
        <time>2016-03-09T13:11:10Z</time>
      </trkpt>
      <trkpt lat="43.40502" lon="6.07278">
        <ele>213</ele>
        <time>2016-03-09T13:11:20Z</time>
      </trkpt>
      <trkpt lat="43.4049" lon="6.07274">
        <ele>213.60000610352</ele>
        <time>2016-03-09T13:11:24Z</time>
      </trkpt>
      <trkpt lat="43.40473" lon="6.07275">
        <ele>214.19999694824</ele>
        <time>2016-03-09T13:11:30Z</time>
      </trkpt>
      <trkpt lat="43.4044" lon="6.07276">
        <ele>215.19999694824</ele>
        <time>2016-03-09T13:11:42Z</time>
      </trkpt>
      <trkpt lat="43.40411" lon="6.07278">
        <ele>216.39999389648</ele>
        <time>2016-03-09T13:11:54Z</time>
      </trkpt>
      <trkpt lat="43.40407" lon="6.07277">
        <ele>216.60000610352</ele>
        <time>2016-03-09T13:11:56Z</time>
      </trkpt>
      <trkpt lat="43.40406" lon="6.07276">
        <ele>216.60000610352</ele>
        <time>2016-03-09T13:11:57Z</time>
      </trkpt>
      <trkpt lat="43.40401" lon="6.07273">
        <ele>217</ele>
        <time>2016-03-09T13:12:00Z</time>
      </trkpt>
      <trkpt lat="43.40399" lon="6.07269">
        <ele>217</ele>
        <time>2016-03-09T13:12:02Z</time>
      </trkpt>
      <trkpt lat="43.40398" lon="6.07267">
        <ele>217.19999694824</ele>
        <time>2016-03-09T13:12:03Z</time>
      </trkpt>
      <trkpt lat="43.40393" lon="6.07257">
        <ele>217.39999389648</ele>
        <time>2016-03-09T13:12:08Z</time>
      </trkpt>
      <trkpt lat="43.40359" lon="6.07238">
        <ele>217.80000305176</ele>
        <time>2016-03-09T13:12:20Z</time>
      </trkpt>
      <trkpt lat="43.4035" lon="6.0723">
        <ele>218.39999389648</ele>
        <time>2016-03-09T13:12:24Z</time>
      </trkpt>
      <trkpt lat="43.40324" lon="6.07219">
        <ele>219.60000610352</ele>
        <time>2016-03-09T13:12:35Z</time>
      </trkpt>
      <trkpt lat="43.40297" lon="6.07204">
        <ele>220.80000305176</ele>
        <time>2016-03-09T13:12:46Z</time>
      </trkpt>
      <trkpt lat="43.40273" lon="6.07175">
        <ele>221</ele>
        <time>2016-03-09T13:12:56Z</time>
      </trkpt>
      <trkpt lat="43.40228" lon="6.07168">
        <ele>222</ele>
        <time>2016-03-09T13:13:12Z</time>
      </trkpt>
      <trkpt lat="43.40219" lon="6.07171">
        <ele>222.80000305176</ele>
        <time>2016-03-09T13:13:16Z</time>
      </trkpt>
      <trkpt lat="43.40214" lon="6.07175">
        <ele>223.19999694824</ele>
        <time>2016-03-09T13:13:18Z</time>
      </trkpt>
      <trkpt lat="43.40204" lon="6.0718">
        <ele>224.19999694824</ele>
        <time>2016-03-09T13:13:23Z</time>
      </trkpt>
      <trkpt lat="43.40201" lon="6.07181">
        <ele>224.39999389648</ele>
        <time>2016-03-09T13:13:24Z</time>
      </trkpt>
      <trkpt lat="43.40191" lon="6.07187">
        <ele>225.19999694824</ele>
        <time>2016-03-09T13:13:29Z</time>
      </trkpt>
      <trkpt lat="43.40188" lon="6.07189">
        <ele>225.39999389648</ele>
        <time>2016-03-09T13:13:30Z</time>
      </trkpt>
      <trkpt lat="43.40177" lon="6.07196">
        <ele>226.60000610352</ele>
        <time>2016-03-09T13:13:35Z</time>
      </trkpt>
      <trkpt lat="43.40171" lon="6.072">
        <ele>227.80000305176</ele>
        <time>2016-03-09T13:13:38Z</time>
      </trkpt>
      <trkpt lat="43.4016" lon="6.07211">
        <ele>228.80000305176</ele>
        <time>2016-03-09T13:13:44Z</time>
      </trkpt>
      <trkpt lat="43.40149" lon="6.07221">
        <ele>229.39999389648</ele>
        <time>2016-03-09T13:13:52Z</time>
      </trkpt>
      <trkpt lat="43.40149" lon="6.07223">
        <ele>229.60000610352</ele>
        <time>2016-03-09T13:13:53Z</time>
      </trkpt>
      <trkpt lat="43.40147" lon="6.07227">
        <ele>229.80000305176</ele>
        <time>2016-03-09T13:13:55Z</time>
      </trkpt>
      <trkpt lat="43.40145" lon="6.07233">
        <ele>230.39999389648</ele>
        <time>2016-03-09T13:13:59Z</time>
      </trkpt>
      <trkpt lat="43.40145" lon="6.07242">
        <ele>230.39999389648</ele>
        <time>2016-03-09T13:14:04Z</time>
      </trkpt>
      <trkpt lat="43.40145" lon="6.07247">
        <ele>230.19999694824</ele>
        <time>2016-03-09T13:14:06Z</time>
      </trkpt>
      <trkpt lat="43.40145" lon="6.0725">
        <ele>230.19999694824</ele>
        <time>2016-03-09T13:14:07Z</time>
      </trkpt>
      <trkpt lat="43.40146" lon="6.0726">
        <ele>230.39999389648</ele>
        <time>2016-03-09T13:14:10Z</time>
      </trkpt>
      <trkpt lat="43.40146" lon="6.07266">
        <ele>230.19999694824</ele>
        <time>2016-03-09T13:14:12Z</time>
      </trkpt>
      <trkpt lat="43.40146" lon="6.07277">
        <ele>230.19999694824</ele>
        <time>2016-03-09T13:14:15Z</time>
      </trkpt>
      <trkpt lat="43.40145" lon="6.07296">
        <ele>230.39999389648</ele>
        <time>2016-03-09T13:14:20Z</time>
      </trkpt>
      <trkpt lat="43.40144" lon="6.07318">
        <ele>230.39999389648</ele>
        <time>2016-03-09T13:14:26Z</time>
      </trkpt>
      <trkpt lat="43.40141" lon="6.07337">
        <ele>230.80000305176</ele>
        <time>2016-03-09T13:14:31Z</time>
      </trkpt>
      <trkpt lat="43.40137" lon="6.07384">
        <ele>232</ele>
        <time>2016-03-09T13:14:43Z</time>
      </trkpt>
      <trkpt lat="43.40147" lon="6.07441">
        <ele>232.80000305176</ele>
        <time>2016-03-09T13:14:57Z</time>
      </trkpt>
      <trkpt lat="43.40147" lon="6.07449">
        <ele>233</ele>
        <time>2016-03-09T13:14:59Z</time>
      </trkpt>
      <trkpt lat="43.40146" lon="6.07458">
        <ele>233</ele>
        <time>2016-03-09T13:15:01Z</time>
      </trkpt>
      <trkpt lat="43.40143" lon="6.07485">
        <ele>234.19999694824</ele>
        <time>2016-03-09T13:15:08Z</time>
      </trkpt>
      <trkpt lat="43.40141" lon="6.07495">
        <ele>234.80000305176</ele>
        <time>2016-03-09T13:15:11Z</time>
      </trkpt>
      <trkpt lat="43.4014" lon="6.07499">
        <ele>235.39999389648</ele>
        <time>2016-03-09T13:15:12Z</time>
      </trkpt>
      <trkpt lat="43.40137" lon="6.07508">
        <ele>235.80000305176</ele>
        <time>2016-03-09T13:15:15Z</time>
      </trkpt>
      <trkpt lat="43.40132" lon="6.07521">
        <ele>236.60000610352</ele>
        <time>2016-03-09T13:15:19Z</time>
      </trkpt>
      <trkpt lat="43.401" lon="6.07578">
        <ele>237.60000610352</ele>
        <time>2016-03-09T13:15:38Z</time>
      </trkpt>
      <trkpt lat="43.40091" lon="6.07619">
        <ele>238.80000305176</ele>
        <time>2016-03-09T13:15:51Z</time>
      </trkpt>
      <trkpt lat="43.40092" lon="6.07632">
        <ele>240</ele>
        <time>2016-03-09T13:15:55Z</time>
      </trkpt>
      <trkpt lat="43.40088" lon="6.07654">
        <ele>241</ele>
        <time>2016-03-09T13:16:03Z</time>
      </trkpt>
      <trkpt lat="43.40088" lon="6.07657">
        <ele>241.39999389648</ele>
        <time>2016-03-09T13:16:04Z</time>
      </trkpt>
      <trkpt lat="43.40083" lon="6.0767">
        <ele>242.60000610352</ele>
        <time>2016-03-09T13:16:09Z</time>
      </trkpt>
      <trkpt lat="43.40077" lon="6.07682">
        <ele>243.60000610352</ele>
        <time>2016-03-09T13:16:14Z</time>
      </trkpt>
      <trkpt lat="43.40055" lon="6.07712">
        <ele>244.60000610352</ele>
        <time>2016-03-09T13:16:29Z</time>
      </trkpt>
      <trkpt lat="43.40046" lon="6.07723">
        <ele>244.80000305176</ele>
        <time>2016-03-09T13:16:34Z</time>
      </trkpt>
      <trkpt lat="43.40029" lon="6.0776">
        <ele>245.39999389648</ele>
        <time>2016-03-09T13:16:48Z</time>
      </trkpt>
      <trkpt lat="43.40028" lon="6.07763">
        <ele>245.80000305176</ele>
        <time>2016-03-09T13:16:49Z</time>
      </trkpt>
      <trkpt lat="43.40025" lon="6.07772">
        <ele>245.60000610352</ele>
        <time>2016-03-09T13:16:52Z</time>
      </trkpt>
      <trkpt lat="43.4002" lon="6.07787">
        <ele>245.39999389648</ele>
        <time>2016-03-09T13:16:57Z</time>
      </trkpt>
      <trkpt lat="43.40018" lon="6.07797">
        <ele>245.80000305176</ele>
        <time>2016-03-09T13:17:01Z</time>
      </trkpt>
      <trkpt lat="43.40013" lon="6.07807">
        <ele>246</ele>
        <time>2016-03-09T13:17:05Z</time>
      </trkpt>
      <trkpt lat="43.4001" lon="6.07816">
        <ele>246</ele>
        <time>2016-03-09T13:17:09Z</time>
      </trkpt>
      <trkpt lat="43.4001" lon="6.0782">
        <ele>246.39999389648</ele>
        <time>2016-03-09T13:17:11Z</time>
      </trkpt>
      <trkpt lat="43.40009" lon="6.07832">
        <ele>246.80000305176</ele>
        <time>2016-03-09T13:17:17Z</time>
      </trkpt>
      <trkpt lat="43.39999" lon="6.07864">
        <ele>246.60000610352</ele>
        <time>2016-03-09T13:17:28Z</time>
      </trkpt>
      <trkpt lat="43.39995" lon="6.0788">
        <ele>247.19999694824</ele>
        <time>2016-03-09T13:17:33Z</time>
      </trkpt>
      <trkpt lat="43.39989" lon="6.0791">
        <ele>248.19999694824</ele>
        <time>2016-03-09T13:17:42Z</time>
      </trkpt>
      <trkpt lat="43.39988" lon="6.07921">
        <ele>249</ele>
        <time>2016-03-09T13:17:46Z</time>
      </trkpt>
      <trkpt lat="43.39986" lon="6.07927">
        <ele>249.19999694824</ele>
        <time>2016-03-09T13:17:48Z</time>
      </trkpt>
      <trkpt lat="43.39983" lon="6.07941">
        <ele>249.80000305176</ele>
        <time>2016-03-09T13:17:53Z</time>
      </trkpt>
      <trkpt lat="43.3998" lon="6.07948">
        <ele>250.19999694824</ele>
        <time>2016-03-09T13:17:56Z</time>
      </trkpt>
      <trkpt lat="43.39976" lon="6.0796">
        <ele>251.19999694824</ele>
        <time>2016-03-09T13:18:01Z</time>
      </trkpt>
      <trkpt lat="43.39975" lon="6.07962">
        <ele>251.39999389648</ele>
        <time>2016-03-09T13:18:09Z</time>
      </trkpt>
      <trkpt lat="43.39975" lon="6.07963">
        <ele>251.39999389648</ele>
        <time>2016-03-09T13:18:21Z</time>
      </trkpt>
      <trkpt lat="43.39975" lon="6.07963">
        <ele>251.39999389648</ele>
        <time>2016-03-09T13:18:25Z</time>
      </trkpt>
      <trkpt lat="43.39975" lon="6.07963">
        <ele>251.39999389648</ele>
        <time>2016-03-09T13:18:28Z</time>
      </trkpt>
      <trkpt lat="43.39975" lon="6.07963">
        <ele>251.39999389648</ele>
        <time>2016-03-09T13:18:34Z</time>
      </trkpt>
      <trkpt lat="43.39975" lon="6.07963">
        <ele>251.39999389648</ele>
        <time>2016-03-09T13:18:39Z</time>
      </trkpt>
      <trkpt lat="43.39975" lon="6.07963">
        <ele>251.39999389648</ele>
        <time>2016-03-09T13:18:49Z</time>
      </trkpt>
      <trkpt lat="43.39972" lon="6.07967">
        <ele>251.39999389648</ele>
        <time>2016-03-09T13:18:58Z</time>
      </trkpt>
      <trkpt lat="43.39963" lon="6.07975">
        <ele>252.60000610352</ele>
        <time>2016-03-09T13:19:05Z</time>
      </trkpt>
      <trkpt lat="43.39958" lon="6.07978">
        <ele>253.19999694824</ele>
        <time>2016-03-09T13:19:08Z</time>
      </trkpt>
      <trkpt lat="43.39951" lon="6.07981">
        <ele>253.60000610352</ele>
        <time>2016-03-09T13:19:11Z</time>
      </trkpt>
      <trkpt lat="43.39945" lon="6.07984">
        <ele>253.60000610352</ele>
        <time>2016-03-09T13:19:14Z</time>
      </trkpt>
      <trkpt lat="43.39939" lon="6.07988">
        <ele>253.39999389648</ele>
        <time>2016-03-09T13:19:23Z</time>
      </trkpt>
      <trkpt lat="43.39938" lon="6.07988">
        <ele>253</ele>
        <time>2016-03-09T13:19:37Z</time>
      </trkpt>
      <trkpt lat="43.39929" lon="6.07993">
        <ele>253.60000610352</ele>
        <time>2016-03-09T13:19:50Z</time>
      </trkpt>
      <trkpt lat="43.39917" lon="6.08004">
        <ele>253.39999389648</ele>
        <time>2016-03-09T13:19:55Z</time>
      </trkpt>
      <trkpt lat="43.39907" lon="6.08018">
        <ele>253.19999694824</ele>
        <time>2016-03-09T13:19:59Z</time>
      </trkpt>
      <trkpt lat="43.39891" lon="6.08026">
        <ele>253</ele>
        <time>2016-03-09T13:20:04Z</time>
      </trkpt>
      <trkpt lat="43.39888" lon="6.08026">
        <ele>252.60000610352</ele>
        <time>2016-03-09T13:20:05Z</time>
      </trkpt>
      <trkpt lat="43.39847" lon="6.08002">
        <ele>251.80000305176</ele>
        <time>2016-03-09T13:20:16Z</time>
      </trkpt>
      <trkpt lat="43.3983" lon="6.07992">
        <ele>251.80000305176</ele>
        <time>2016-03-09T13:20:20Z</time>
      </trkpt>
      <trkpt lat="43.39785" lon="6.07977">
        <ele>252.19999694824</ele>
        <time>2016-03-09T13:20:32Z</time>
      </trkpt>
      <trkpt lat="43.3978" lon="6.07974">
        <ele>252.80000305176</ele>
        <time>2016-03-09T13:20:34Z</time>
      </trkpt>
      <trkpt lat="43.39772" lon="6.0797">
        <ele>253.80000305176</ele>
        <time>2016-03-09T13:20:38Z</time>
      </trkpt>
      <trkpt lat="43.39769" lon="6.07968">
        <ele>254</ele>
        <time>2016-03-09T13:20:40Z</time>
      </trkpt>
      <trkpt lat="43.39765" lon="6.07966">
        <ele>254.19999694824</ele>
        <time>2016-03-09T13:20:42Z</time>
      </trkpt>
      <trkpt lat="43.39749" lon="6.07959">
        <ele>255.19999694824</ele>
        <time>2016-03-09T13:20:51Z</time>
      </trkpt>
      <trkpt lat="43.39739" lon="6.07952">
        <ele>256.20001220703</ele>
        <time>2016-03-09T13:20:57Z</time>
      </trkpt>
      <trkpt lat="43.39738" lon="6.07951">
        <ele>256.39999389648</ele>
        <time>2016-03-09T13:20:58Z</time>
      </trkpt>
      <trkpt lat="43.3972" lon="6.07931">
        <ele>256.79998779297</ele>
        <time>2016-03-09T13:21:09Z</time>
      </trkpt>
      <trkpt lat="43.39715" lon="6.07925">
        <ele>257.39999389648</ele>
        <time>2016-03-09T13:21:12Z</time>
      </trkpt>
      <trkpt lat="43.39708" lon="6.07917">
        <ele>258.20001220703</ele>
        <time>2016-03-09T13:21:17Z</time>
      </trkpt>
      <trkpt lat="43.39706" lon="6.07916">
        <ele>258.39999389648</ele>
        <time>2016-03-09T13:21:18Z</time>
      </trkpt>
      <trkpt lat="43.39702" lon="6.07909">
        <ele>259.39999389648</ele>
        <time>2016-03-09T13:21:22Z</time>
      </trkpt>
      <trkpt lat="43.39694" lon="6.079">
        <ele>260.39999389648</ele>
        <time>2016-03-09T13:21:27Z</time>
      </trkpt>
      <trkpt lat="43.39693" lon="6.07899">
        <ele>260.60000610352</ele>
        <time>2016-03-09T13:21:28Z</time>
      </trkpt>
      <trkpt lat="43.39688" lon="6.07895">
        <ele>261.60000610352</ele>
        <time>2016-03-09T13:21:31Z</time>
      </trkpt>
      <trkpt lat="43.39674" lon="6.07888">
        <ele>262.79998779297</ele>
        <time>2016-03-09T13:21:38Z</time>
      </trkpt>
      <trkpt lat="43.39653" lon="6.07886">
        <ele>263.60000610352</ele>
        <time>2016-03-09T13:21:49Z</time>
      </trkpt>
      <trkpt lat="43.39649" lon="6.07887">
        <ele>263.79998779297</ele>
        <time>2016-03-09T13:21:51Z</time>
      </trkpt>
      <trkpt lat="43.39647" lon="6.07887">
        <ele>263.79998779297</ele>
        <time>2016-03-09T13:21:57Z</time>
      </trkpt>
      <trkpt lat="43.39611" lon="6.07899">
        <ele>265</ele>
        <time>2016-03-09T13:22:15Z</time>
      </trkpt>
      <trkpt lat="43.39603" lon="6.07901">
        <ele>266</ele>
        <time>2016-03-09T13:22:20Z</time>
      </trkpt>
      <trkpt lat="43.39602" lon="6.07901">
        <ele>266.20001220703</ele>
        <time>2016-03-09T13:22:21Z</time>
      </trkpt>
      <trkpt lat="43.39595" lon="6.07901">
        <ele>267.39999389648</ele>
        <time>2016-03-09T13:22:25Z</time>
      </trkpt>
      <trkpt lat="43.39589" lon="6.07902">
        <ele>268.60000610352</ele>
        <time>2016-03-09T13:22:29Z</time>
      </trkpt>
      <trkpt lat="43.39585" lon="6.07904">
        <ele>269.79998779297</ele>
        <time>2016-03-09T13:22:34Z</time>
      </trkpt>
      <trkpt lat="43.39582" lon="6.07909">
        <ele>269.79998779297</ele>
        <time>2016-03-09T13:22:40Z</time>
      </trkpt>
      <trkpt lat="43.39581" lon="6.07912">
        <ele>269.79998779297</ele>
        <time>2016-03-09T13:22:43Z</time>
      </trkpt>
      <trkpt lat="43.39581" lon="6.07915">
        <ele>269.60000610352</ele>
        <time>2016-03-09T13:22:46Z</time>
      </trkpt>
      <trkpt lat="43.3958" lon="6.07918">
        <ele>269.60000610352</ele>
        <time>2016-03-09T13:22:52Z</time>
      </trkpt>
      <trkpt lat="43.3958" lon="6.07918">
        <ele>270</ele>
        <time>2016-03-09T13:22:56Z</time>
      </trkpt>
      <trkpt lat="43.3958" lon="6.07918">
        <ele>270</ele>
        <time>2016-03-09T13:22:58Z</time>
      </trkpt>
      <trkpt lat="43.3958" lon="6.07918">
        <ele>270</ele>
        <time>2016-03-09T13:23:01Z</time>
      </trkpt>
      <trkpt lat="43.3958" lon="6.07918">
        <ele>270</ele>
        <time>2016-03-09T13:23:05Z</time>
      </trkpt>
      <trkpt lat="43.3958" lon="6.07918">
        <ele>270</ele>
        <time>2016-03-09T13:23:08Z</time>
      </trkpt>
      <trkpt lat="43.3958" lon="6.07918">
        <ele>269.79998779297</ele>
        <time>2016-03-09T13:23:11Z</time>
      </trkpt>
      <trkpt lat="43.39579" lon="6.07919">
        <ele>269.60000610352</ele>
        <time>2016-03-09T13:23:37Z</time>
      </trkpt>
      <trkpt lat="43.39579" lon="6.07919">
        <ele>269.79998779297</ele>
        <time>2016-03-09T13:23:40Z</time>
      </trkpt>
      <trkpt lat="43.39579" lon="6.0792">
        <ele>269.60000610352</ele>
        <time>2016-03-09T13:23:51Z</time>
      </trkpt>
      <trkpt lat="43.39579" lon="6.07919">
        <ele>269.60000610352</ele>
        <time>2016-03-09T13:23:58Z</time>
      </trkpt>
      <trkpt lat="43.39578" lon="6.07924">
        <ele>270.39999389648</ele>
        <time>2016-03-09T13:24:17Z</time>
      </trkpt>
      <trkpt lat="43.39577" lon="6.07928">
        <ele>270.60000610352</ele>
        <time>2016-03-09T13:24:19Z</time>
      </trkpt>
      <trkpt lat="43.39574" lon="6.07931">
        <ele>271.20001220703</ele>
        <time>2016-03-09T13:24:21Z</time>
      </trkpt>
      <trkpt lat="43.3957" lon="6.07933">
        <ele>272</ele>
        <time>2016-03-09T13:24:24Z</time>
      </trkpt>
      <trkpt lat="43.39569" lon="6.07933">
        <ele>272.39999389648</ele>
        <time>2016-03-09T13:24:25Z</time>
      </trkpt>
      <trkpt lat="43.39565" lon="6.07934">
        <ele>273.20001220703</ele>
        <time>2016-03-09T13:24:28Z</time>
      </trkpt>
      <trkpt lat="43.39562" lon="6.07936">
        <ele>273.39999389648</ele>
        <time>2016-03-09T13:24:30Z</time>
      </trkpt>
      <trkpt lat="43.39555" lon="6.07938">
        <ele>274.20001220703</ele>
        <time>2016-03-09T13:24:34Z</time>
      </trkpt>
      <trkpt lat="43.39553" lon="6.07939">
        <ele>274.39999389648</ele>
        <time>2016-03-09T13:24:35Z</time>
      </trkpt>
      <trkpt lat="43.39547" lon="6.07943">
        <ele>275.20001220703</ele>
        <time>2016-03-09T13:24:39Z</time>
      </trkpt>
      <trkpt lat="43.39545" lon="6.07943">
        <ele>275.39999389648</ele>
        <time>2016-03-09T13:24:40Z</time>
      </trkpt>
      <trkpt lat="43.39536" lon="6.07948">
        <ele>276</ele>
        <time>2016-03-09T13:24:46Z</time>
      </trkpt>
      <trkpt lat="43.39531" lon="6.07951">
        <ele>276.60000610352</ele>
        <time>2016-03-09T13:24:49Z</time>
      </trkpt>
      <trkpt lat="43.39523" lon="6.07954">
        <ele>277.60000610352</ele>
        <time>2016-03-09T13:24:54Z</time>
      </trkpt>
      <trkpt lat="43.39521" lon="6.07955">
        <ele>278</ele>
        <time>2016-03-09T13:24:56Z</time>
      </trkpt>
      <trkpt lat="43.39506" lon="6.07958">
        <ele>279.20001220703</ele>
        <time>2016-03-09T13:25:05Z</time>
      </trkpt>
      <trkpt lat="43.39492" lon="6.07964">
        <ele>280.20001220703</ele>
        <time>2016-03-09T13:25:13Z</time>
      </trkpt>
      <trkpt lat="43.39467" lon="6.07973">
        <ele>281.39999389648</ele>
        <time>2016-03-09T13:25:27Z</time>
      </trkpt>
      <trkpt lat="43.3945" lon="6.07977">
        <ele>282.20001220703</ele>
        <time>2016-03-09T13:25:38Z</time>
      </trkpt>
      <trkpt lat="43.39445" lon="6.07979">
        <ele>282.39999389648</ele>
        <time>2016-03-09T13:25:41Z</time>
      </trkpt>
      <trkpt lat="43.39431" lon="6.07984">
        <ele>283.60000610352</ele>
        <time>2016-03-09T13:25:48Z</time>
      </trkpt>
      <trkpt lat="43.39419" lon="6.0799">
        <ele>284.60000610352</ele>
        <time>2016-03-09T13:25:55Z</time>
      </trkpt>
      <trkpt lat="43.39404" lon="6.07998">
        <ele>285.60000610352</ele>
        <time>2016-03-09T13:26:04Z</time>
      </trkpt>
      <trkpt lat="43.39397" lon="6.08001">
        <ele>286.60000610352</ele>
        <time>2016-03-09T13:26:09Z</time>
      </trkpt>
      <trkpt lat="43.39396" lon="6.08002">
        <ele>286.79998779297</ele>
        <time>2016-03-09T13:26:10Z</time>
      </trkpt>
      <trkpt lat="43.39393" lon="6.08004">
        <ele>287</ele>
        <time>2016-03-09T13:26:17Z</time>
      </trkpt>
      <trkpt lat="43.39387" lon="6.08007">
        <ele>287.39999389648</ele>
        <time>2016-03-09T13:26:31Z</time>
      </trkpt>
      <trkpt lat="43.39386" lon="6.08008">
        <ele>287.60000610352</ele>
        <time>2016-03-09T13:26:40Z</time>
      </trkpt>
      <trkpt lat="43.39386" lon="6.08008">
        <ele>287.60000610352</ele>
        <time>2016-03-09T13:26:43Z</time>
      </trkpt>
      <trkpt lat="43.39386" lon="6.08009">
        <ele>287.39999389648</ele>
        <time>2016-03-09T13:26:47Z</time>
      </trkpt>
      <trkpt lat="43.39386" lon="6.08009">
        <ele>287.60000610352</ele>
        <time>2016-03-09T13:26:50Z</time>
      </trkpt>
      <trkpt lat="43.39386" lon="6.08009">
        <ele>287.60000610352</ele>
        <time>2016-03-09T13:26:54Z</time>
      </trkpt>
      <trkpt lat="43.39386" lon="6.08009">
        <ele>287.79998779297</ele>
        <time>2016-03-09T13:26:58Z</time>
      </trkpt>
      <trkpt lat="43.39386" lon="6.08009">
        <ele>287.79998779297</ele>
        <time>2016-03-09T13:27:03Z</time>
      </trkpt>
      <trkpt lat="43.39386" lon="6.08009">
        <ele>287.79998779297</ele>
        <time>2016-03-09T13:27:07Z</time>
      </trkpt>
      <trkpt lat="43.39386" lon="6.08008">
        <ele>287.60000610352</ele>
        <time>2016-03-09T13:27:27Z</time>
      </trkpt>
      <trkpt lat="43.39386" lon="6.08008">
        <ele>287.60000610352</ele>
        <time>2016-03-09T13:28:11Z</time>
      </trkpt>
      <trkpt lat="43.39386" lon="6.08009">
        <ele>287.60000610352</ele>
        <time>2016-03-09T13:28:30Z</time>
      </trkpt>
      <trkpt lat="43.39386" lon="6.08008">
        <ele>287.60000610352</ele>
        <time>2016-03-09T13:29:46Z</time>
      </trkpt>
      <trkpt lat="43.39386" lon="6.08008">
        <ele>287.79998779297</ele>
        <time>2016-03-09T13:30:18Z</time>
      </trkpt>
      <trkpt lat="43.39378" lon="6.08005">
        <ele>287.60000610352</ele>
        <time>2016-03-09T13:30:24Z</time>
      </trkpt>
      <trkpt lat="43.39371" lon="6.08009">
        <ele>288.39999389648</ele>
        <time>2016-03-09T13:30:30Z</time>
      </trkpt>
      <trkpt lat="43.39369" lon="6.08012">
        <ele>288.39999389648</ele>
        <time>2016-03-09T13:30:32Z</time>
      </trkpt>
      <trkpt lat="43.39365" lon="6.08017">
        <ele>289.20001220703</ele>
        <time>2016-03-09T13:30:35Z</time>
      </trkpt>
      <trkpt lat="43.3936" lon="6.08021">
        <ele>289.60000610352</ele>
        <time>2016-03-09T13:30:38Z</time>
      </trkpt>
      <trkpt lat="43.39355" lon="6.08027">
        <ele>290</ele>
        <time>2016-03-09T13:30:42Z</time>
      </trkpt>
      <trkpt lat="43.3935" lon="6.08033">
        <ele>290.79998779297</ele>
        <time>2016-03-09T13:30:46Z</time>
      </trkpt>
      <trkpt lat="43.39343" lon="6.0804">
        <ele>291.39999389648</ele>
        <time>2016-03-09T13:30:54Z</time>
      </trkpt>
      <trkpt lat="43.3934" lon="6.08042">
        <ele>291.60000610352</ele>
        <time>2016-03-09T13:30:57Z</time>
      </trkpt>
      <trkpt lat="43.39338" lon="6.08044">
        <ele>291.79998779297</ele>
        <time>2016-03-09T13:30:59Z</time>
      </trkpt>
      <trkpt lat="43.39331" lon="6.08058">
        <ele>292.39999389648</ele>
        <time>2016-03-09T13:31:05Z</time>
      </trkpt>
      <trkpt lat="43.39317" lon="6.08076">
        <ele>292.79998779297</ele>
        <time>2016-03-09T13:31:14Z</time>
      </trkpt>
      <trkpt lat="43.39302" lon="6.08097">
        <ele>294.20001220703</ele>
        <time>2016-03-09T13:31:25Z</time>
      </trkpt>
      <trkpt lat="43.39301" lon="6.08099">
        <ele>294.39999389648</ele>
        <time>2016-03-09T13:31:26Z</time>
      </trkpt>
      <trkpt lat="43.39296" lon="6.08105">
        <ele>294.79998779297</ele>
        <time>2016-03-09T13:31:30Z</time>
      </trkpt>
      <trkpt lat="43.39294" lon="6.08112">
        <ele>295.39999389648</ele>
        <time>2016-03-09T13:31:33Z</time>
      </trkpt>
      <trkpt lat="43.39286" lon="6.08127">
        <ele>295.79998779297</ele>
        <time>2016-03-09T13:31:41Z</time>
      </trkpt>
      <trkpt lat="43.39284" lon="6.08133">
        <ele>296.20001220703</ele>
        <time>2016-03-09T13:31:47Z</time>
      </trkpt>
      <trkpt lat="43.39284" lon="6.08133">
        <ele>296</ele>
        <time>2016-03-09T13:31:51Z</time>
      </trkpt>
      <trkpt lat="43.39283" lon="6.08137">
        <ele>296.39999389648</ele>
        <time>2016-03-09T13:31:58Z</time>
      </trkpt>
      <trkpt lat="43.39283" lon="6.08138">
        <ele>296.39999389648</ele>
        <time>2016-03-09T13:32:02Z</time>
      </trkpt>
      <trkpt lat="43.39283" lon="6.08138">
        <ele>296.39999389648</ele>
        <time>2016-03-09T13:32:05Z</time>
      </trkpt>
      <trkpt lat="43.39283" lon="6.08138">
        <ele>296.20001220703</ele>
        <time>2016-03-09T13:32:09Z</time>
      </trkpt>
      <trkpt lat="43.39283" lon="6.08138">
        <ele>296.20001220703</ele>
        <time>2016-03-09T13:32:15Z</time>
      </trkpt>
      <trkpt lat="43.39283" lon="6.08138">
        <ele>296.39999389648</ele>
        <time>2016-03-09T13:32:19Z</time>
      </trkpt>
      <trkpt lat="43.39283" lon="6.08138">
        <ele>296.60000610352</ele>
        <time>2016-03-09T13:32:23Z</time>
      </trkpt>
      <trkpt lat="43.39283" lon="6.08138">
        <ele>296.60000610352</ele>
        <time>2016-03-09T13:32:29Z</time>
      </trkpt>
      <trkpt lat="43.39283" lon="6.08138">
        <ele>296.60000610352</ele>
        <time>2016-03-09T13:32:39Z</time>
      </trkpt>
      <trkpt lat="43.39283" lon="6.08139">
        <ele>296.39999389648</ele>
        <time>2016-03-09T13:32:47Z</time>
      </trkpt>
      <trkpt lat="43.39283" lon="6.08139">
        <ele>296.60000610352</ele>
        <time>2016-03-09T13:32:50Z</time>
      </trkpt>
      <trkpt lat="43.39283" lon="6.08139">
        <ele>296.79998779297</ele>
        <time>2016-03-09T13:32:53Z</time>
      </trkpt>
      <trkpt lat="43.39283" lon="6.0814">
        <ele>297</ele>
        <time>2016-03-09T13:32:56Z</time>
      </trkpt>
      <trkpt lat="43.39283" lon="6.08143">
        <ele>297.20001220703</ele>
        <time>2016-03-09T13:33:00Z</time>
      </trkpt>
      <trkpt lat="43.39283" lon="6.08146">
        <ele>297.79998779297</ele>
        <time>2016-03-09T13:33:05Z</time>
      </trkpt>
      <trkpt lat="43.39278" lon="6.08159">
        <ele>298.20001220703</ele>
        <time>2016-03-09T13:33:11Z</time>
      </trkpt>
      <trkpt lat="43.39275" lon="6.08168">
        <ele>298.79998779297</ele>
        <time>2016-03-09T13:33:16Z</time>
      </trkpt>
      <trkpt lat="43.39274" lon="6.08172">
        <ele>299.20001220703</ele>
        <time>2016-03-09T13:33:18Z</time>
      </trkpt>
      <trkpt lat="43.39273" lon="6.08177">
        <ele>299.39999389648</ele>
        <time>2016-03-09T13:33:21Z</time>
      </trkpt>
      <trkpt lat="43.39272" lon="6.08188">
        <ele>300.39999389648</ele>
        <time>2016-03-09T13:33:39Z</time>
      </trkpt>
      <trkpt lat="43.3927" lon="6.08192">
        <ele>300.79998779297</ele>
        <time>2016-03-09T13:33:54Z</time>
      </trkpt>
      <trkpt lat="43.3927" lon="6.08195">
        <ele>301.20001220703</ele>
        <time>2016-03-09T13:33:56Z</time>
      </trkpt>
      <trkpt lat="43.3927" lon="6.08202">
        <ele>301.60000610352</ele>
        <time>2016-03-09T13:33:59Z</time>
      </trkpt>
      <trkpt lat="43.39267" lon="6.08219">
        <ele>301.79998779297</ele>
        <time>2016-03-09T13:34:06Z</time>
      </trkpt>
      <trkpt lat="43.39264" lon="6.0823">
        <ele>302.79998779297</ele>
        <time>2016-03-09T13:34:11Z</time>
      </trkpt>
      <trkpt lat="43.39263" lon="6.08239">
        <ele>303.39999389648</ele>
        <time>2016-03-09T13:34:15Z</time>
      </trkpt>
      <trkpt lat="43.39262" lon="6.08241">
        <ele>304</ele>
        <time>2016-03-09T13:34:16Z</time>
      </trkpt>
      <trkpt lat="43.39261" lon="6.0825">
        <ele>304.20001220703</ele>
        <time>2016-03-09T13:34:20Z</time>
      </trkpt>
      <trkpt lat="43.39257" lon="6.08259">
        <ele>305</ele>
        <time>2016-03-09T13:34:25Z</time>
      </trkpt>
      <trkpt lat="43.39256" lon="6.0826">
        <ele>305.20001220703</ele>
        <time>2016-03-09T13:34:26Z</time>
      </trkpt>
      <trkpt lat="43.39249" lon="6.08267">
        <ele>306</ele>
        <time>2016-03-09T13:34:31Z</time>
      </trkpt>
      <trkpt lat="43.39248" lon="6.08269">
        <ele>306.20001220703</ele>
        <time>2016-03-09T13:34:33Z</time>
      </trkpt>
      <trkpt lat="43.39248" lon="6.0827">
        <ele>306.39999389648</ele>
        <time>2016-03-09T13:34:42Z</time>
      </trkpt>
      <trkpt lat="43.39247" lon="6.0827">
        <ele>306.39999389648</ele>
        <time>2016-03-09T13:34:43Z</time>
      </trkpt>
      <trkpt lat="43.39243" lon="6.08275">
        <ele>307</ele>
        <time>2016-03-09T13:34:47Z</time>
      </trkpt>
      <trkpt lat="43.3924" lon="6.08284">
        <ele>307.60000610352</ele>
        <time>2016-03-09T13:34:52Z</time>
      </trkpt>
      <trkpt lat="43.39239" lon="6.08286">
        <ele>308</ele>
        <time>2016-03-09T13:34:56Z</time>
      </trkpt>
      <trkpt lat="43.39239" lon="6.08288">
        <ele>308</ele>
        <time>2016-03-09T13:35:08Z</time>
      </trkpt>
      <trkpt lat="43.39239" lon="6.08288">
        <ele>308.20001220703</ele>
        <time>2016-03-09T13:35:12Z</time>
      </trkpt>
      <trkpt lat="43.39238" lon="6.08289">
        <ele>308.20001220703</ele>
        <time>2016-03-09T13:35:16Z</time>
      </trkpt>
      <trkpt lat="43.39234" lon="6.08299">
        <ele>309</ele>
        <time>2016-03-09T13:35:22Z</time>
      </trkpt>
      <trkpt lat="43.39231" lon="6.08307">
        <ele>309.60000610352</ele>
        <time>2016-03-09T13:35:26Z</time>
      </trkpt>
      <trkpt lat="43.39231" lon="6.08309">
        <ele>310.39999389648</ele>
        <time>2016-03-09T13:35:28Z</time>
      </trkpt>
      <trkpt lat="43.3923" lon="6.08309">
        <ele>310.60000610352</ele>
        <time>2016-03-09T13:35:30Z</time>
      </trkpt>
      <trkpt lat="43.3923" lon="6.08312">
        <ele>310.60000610352</ele>
        <time>2016-03-09T13:35:35Z</time>
      </trkpt>
      <trkpt lat="43.39228" lon="6.08316">
        <ele>311</ele>
        <time>2016-03-09T13:35:40Z</time>
      </trkpt>
      <trkpt lat="43.39229" lon="6.08321">
        <ele>311</ele>
        <time>2016-03-09T13:35:43Z</time>
      </trkpt>
      <trkpt lat="43.39223" lon="6.08326">
        <ele>311.79998779297</ele>
        <time>2016-03-09T13:35:48Z</time>
      </trkpt>
      <trkpt lat="43.39218" lon="6.08331">
        <ele>312.79998779297</ele>
        <time>2016-03-09T13:35:53Z</time>
      </trkpt>
      <trkpt lat="43.39218" lon="6.08333">
        <ele>313</ele>
        <time>2016-03-09T13:35:54Z</time>
      </trkpt>
      <trkpt lat="43.39217" lon="6.08335">
        <ele>313.39999389648</ele>
        <time>2016-03-09T13:36:02Z</time>
      </trkpt>
      <trkpt lat="43.39217" lon="6.08339">
        <ele>313.79998779297</ele>
        <time>2016-03-09T13:36:10Z</time>
      </trkpt>
      <trkpt lat="43.39212" lon="6.0836">
        <ele>315.20001220703</ele>
        <time>2016-03-09T13:36:21Z</time>
      </trkpt>
      <trkpt lat="43.39208" lon="6.08377">
        <ele>316.20001220703</ele>
        <time>2016-03-09T13:36:28Z</time>
      </trkpt>
      <trkpt lat="43.39207" lon="6.0838">
        <ele>316.79998779297</ele>
        <time>2016-03-09T13:36:30Z</time>
      </trkpt>
      <trkpt lat="43.39207" lon="6.08386">
        <ele>317.20001220703</ele>
        <time>2016-03-09T13:36:33Z</time>
      </trkpt>
      <trkpt lat="43.39207" lon="6.08396">
        <ele>317.60000610352</ele>
        <time>2016-03-09T13:36:37Z</time>
      </trkpt>
      <trkpt lat="43.39207" lon="6.08406">
        <ele>317.79998779297</ele>
        <time>2016-03-09T13:36:44Z</time>
      </trkpt>
      <trkpt lat="43.39207" lon="6.08407">
        <ele>318</ele>
        <time>2016-03-09T13:36:48Z</time>
      </trkpt>
      <trkpt lat="43.39207" lon="6.08411">
        <ele>318.60000610352</ele>
        <time>2016-03-09T13:36:56Z</time>
      </trkpt>
      <trkpt lat="43.39205" lon="6.08413">
        <ele>319.20001220703</ele>
        <time>2016-03-09T13:37:04Z</time>
      </trkpt>
      <trkpt lat="43.39205" lon="6.08413">
        <ele>319.39999389648</ele>
        <time>2016-03-09T13:37:11Z</time>
      </trkpt>
      <trkpt lat="43.39202" lon="6.0842">
        <ele>319.79998779297</ele>
        <time>2016-03-09T13:37:17Z</time>
      </trkpt>
      <trkpt lat="43.39201" lon="6.08428">
        <ele>320.79998779297</ele>
        <time>2016-03-09T13:37:20Z</time>
      </trkpt>
      <trkpt lat="43.39201" lon="6.0843">
        <ele>321.60000610352</ele>
        <time>2016-03-09T13:37:23Z</time>
      </trkpt>
      <trkpt lat="43.39201" lon="6.08434">
        <ele>321.79998779297</ele>
        <time>2016-03-09T13:37:27Z</time>
      </trkpt>
      <trkpt lat="43.39201" lon="6.08436">
        <ele>322</ele>
        <time>2016-03-09T13:37:28Z</time>
      </trkpt>
      <trkpt lat="43.39198" lon="6.08451">
        <ele>322.60000610352</ele>
        <time>2016-03-09T13:37:36Z</time>
      </trkpt>
      <trkpt lat="43.39197" lon="6.08457">
        <ele>323.20001220703</ele>
        <time>2016-03-09T13:37:39Z</time>
      </trkpt>
      <trkpt lat="43.39194" lon="6.08471">
        <ele>324.39999389648</ele>
        <time>2016-03-09T13:37:47Z</time>
      </trkpt>
      <trkpt lat="43.39192" lon="6.08491">
        <ele>324.60000610352</ele>
        <time>2016-03-09T13:37:57Z</time>
      </trkpt>
      <trkpt lat="43.39191" lon="6.08493">
        <ele>324.79998779297</ele>
        <time>2016-03-09T13:37:59Z</time>
      </trkpt>
      <trkpt lat="43.3919" lon="6.08497">
        <ele>324.79998779297</ele>
        <time>2016-03-09T13:38:04Z</time>
      </trkpt>
      <trkpt lat="43.3919" lon="6.08498">
        <ele>325.20001220703</ele>
        <time>2016-03-09T13:38:09Z</time>
      </trkpt>
      <trkpt lat="43.3919" lon="6.08498">
        <ele>325.20001220703</ele>
        <time>2016-03-09T13:38:12Z</time>
      </trkpt>
      <trkpt lat="43.3919" lon="6.08499">
        <ele>325.39999389648</ele>
        <time>2016-03-09T13:38:20Z</time>
      </trkpt>
      <trkpt lat="43.3919" lon="6.08499">
        <ele>325.20001220703</ele>
        <time>2016-03-09T13:38:23Z</time>
      </trkpt>
      <trkpt lat="43.3919" lon="6.08499">
        <ele>325.20001220703</ele>
        <time>2016-03-09T13:38:27Z</time>
      </trkpt>
      <trkpt lat="43.3919" lon="6.08499">
        <ele>324.79998779297</ele>
        <time>2016-03-09T13:38:32Z</time>
      </trkpt>
      <trkpt lat="43.39187" lon="6.08504">
        <ele>324.60000610352</ele>
        <time>2016-03-09T13:38:43Z</time>
      </trkpt>
      <trkpt lat="43.39187" lon="6.08505">
        <ele>324.60000610352</ele>
        <time>2016-03-09T13:38:44Z</time>
      </trkpt>
      <trkpt lat="43.39187" lon="6.08506">
        <ele>324.60000610352</ele>
        <time>2016-03-09T13:38:48Z</time>
      </trkpt>
      <trkpt lat="43.39187" lon="6.08506">
        <ele>324.60000610352</ele>
        <time>2016-03-09T13:38:57Z</time>
      </trkpt>
      <trkpt lat="43.39187" lon="6.08506">
        <ele>324.79998779297</ele>
        <time>2016-03-09T13:39:05Z</time>
      </trkpt>
      <trkpt lat="43.39187" lon="6.08506">
        <ele>324.79998779297</ele>
        <time>2016-03-09T13:39:41Z</time>
      </trkpt>
      <trkpt lat="43.39187" lon="6.08506">
        <ele>324.79998779297</ele>
        <time>2016-03-09T13:39:49Z</time>
      </trkpt>
      <trkpt lat="43.39187" lon="6.08506">
        <ele>324.79998779297</ele>
        <time>2016-03-09T13:40:01Z</time>
      </trkpt>
      <trkpt lat="43.39187" lon="6.08507">
        <ele>324.79998779297</ele>
        <time>2016-03-09T13:40:09Z</time>
      </trkpt>
      <trkpt lat="43.39187" lon="6.08507">
        <ele>324.79998779297</ele>
        <time>2016-03-09T13:40:14Z</time>
      </trkpt>
      <trkpt lat="43.39186" lon="6.08508">
        <ele>324.79998779297</ele>
        <time>2016-03-09T13:40:19Z</time>
      </trkpt>
      <trkpt lat="43.39184" lon="6.08517">
        <ele>324.20001220703</ele>
        <time>2016-03-09T13:40:23Z</time>
      </trkpt>
      <trkpt lat="43.39183" lon="6.08519">
        <ele>324.39999389648</ele>
        <time>2016-03-09T13:40:24Z</time>
      </trkpt>
      <trkpt lat="43.3917" lon="6.08552">
        <ele>324.60000610352</ele>
        <time>2016-03-09T13:40:33Z</time>
      </trkpt>
      <trkpt lat="43.39166" lon="6.08568">
        <ele>324</ele>
        <time>2016-03-09T13:40:36Z</time>
      </trkpt>
      <trkpt lat="43.39161" lon="6.08593">
        <ele>323.20001220703</ele>
        <time>2016-03-09T13:40:40Z</time>
      </trkpt>
      <trkpt lat="43.39154" lon="6.08621">
        <ele>323</ele>
        <time>2016-03-09T13:40:44Z</time>
      </trkpt>
      <trkpt lat="43.39151" lon="6.08635">
        <ele>322.20001220703</ele>
        <time>2016-03-09T13:40:46Z</time>
      </trkpt>
      <trkpt lat="43.3915" lon="6.08642">
        <ele>322</ele>
        <time>2016-03-09T13:40:47Z</time>
      </trkpt>
      <trkpt lat="43.39148" lon="6.08656">
        <ele>322.39999389648</ele>
        <time>2016-03-09T13:40:49Z</time>
      </trkpt>
      <trkpt lat="43.39143" lon="6.08687">
        <ele>322.39999389648</ele>
        <time>2016-03-09T13:40:54Z</time>
      </trkpt>
      <trkpt lat="43.3914" lon="6.08705">
        <ele>322.60000610352</ele>
        <time>2016-03-09T13:40:57Z</time>
      </trkpt>
      <trkpt lat="43.39138" lon="6.08715">
        <ele>323.20001220703</ele>
        <time>2016-03-09T13:40:59Z</time>
      </trkpt>
      <trkpt lat="43.39125" lon="6.08762">
        <ele>323.79998779297</ele>
        <time>2016-03-09T13:41:10Z</time>
      </trkpt>
      <trkpt lat="43.39114" lon="6.08805">
        <ele>324</ele>
        <time>2016-03-09T13:41:20Z</time>
      </trkpt>
      <trkpt lat="43.39109" lon="6.08831">
        <ele>324.60000610352</ele>
        <time>2016-03-09T13:41:25Z</time>
      </trkpt>
      <trkpt lat="43.39101" lon="6.08872">
        <ele>325.60000610352</ele>
        <time>2016-03-09T13:41:35Z</time>
      </trkpt>
      <trkpt lat="43.39096" lon="6.08911">
        <ele>326</ele>
        <time>2016-03-09T13:41:45Z</time>
      </trkpt>
      <trkpt lat="43.39076" lon="6.08976">
        <ele>327</ele>
        <time>2016-03-09T13:42:02Z</time>
      </trkpt>
      <trkpt lat="43.39071" lon="6.08991">
        <ele>328.60000610352</ele>
        <time>2016-03-09T13:42:06Z</time>
      </trkpt>
      <trkpt lat="43.39042" lon="6.09057">
        <ele>329.39999389648</ele>
        <time>2016-03-09T13:42:27Z</time>
      </trkpt>
      <trkpt lat="43.3903" lon="6.09095">
        <ele>330</ele>
        <time>2016-03-09T13:42:39Z</time>
      </trkpt>
      <trkpt lat="43.39011" lon="6.09153">
        <ele>331</ele>
        <time>2016-03-09T13:42:57Z</time>
      </trkpt>
      <trkpt lat="43.38995" lon="6.09226">
        <ele>331.79998779297</ele>
        <time>2016-03-09T13:43:17Z</time>
      </trkpt>
      <trkpt lat="43.38986" lon="6.09251">
        <ele>332</ele>
        <time>2016-03-09T13:43:24Z</time>
      </trkpt>
      <trkpt lat="43.38977" lon="6.09275">
        <ele>333.20001220703</ele>
        <time>2016-03-09T13:43:31Z</time>
      </trkpt>
      <trkpt lat="43.38968" lon="6.09291">
        <ele>333.79998779297</ele>
        <time>2016-03-09T13:43:38Z</time>
      </trkpt>
      <trkpt lat="43.38966" lon="6.09295">
        <ele>334.20001220703</ele>
        <time>2016-03-09T13:43:40Z</time>
      </trkpt>
      <trkpt lat="43.38957" lon="6.09312">
        <ele>335.20001220703</ele>
        <time>2016-03-09T13:43:47Z</time>
      </trkpt>
      <trkpt lat="43.38955" lon="6.09318">
        <ele>335.60000610352</ele>
        <time>2016-03-09T13:43:49Z</time>
      </trkpt>
      <trkpt lat="43.38942" lon="6.0934">
        <ele>336.20001220703</ele>
        <time>2016-03-09T13:44:00Z</time>
      </trkpt>
      <trkpt lat="43.38919" lon="6.09366">
        <ele>336.60000610352</ele>
        <time>2016-03-09T13:44:14Z</time>
      </trkpt>
      <trkpt lat="43.38912" lon="6.09373">
        <ele>337.60000610352</ele>
        <time>2016-03-09T13:44:21Z</time>
      </trkpt>
      <trkpt lat="43.38907" lon="6.09378">
        <ele>338.39999389648</ele>
        <time>2016-03-09T13:44:26Z</time>
      </trkpt>
      <trkpt lat="43.38905" lon="6.09382">
        <ele>338.60000610352</ele>
        <time>2016-03-09T13:44:28Z</time>
      </trkpt>
      <trkpt lat="43.38905" lon="6.09383">
        <ele>338.79998779297</ele>
        <time>2016-03-09T13:44:29Z</time>
      </trkpt>
      <trkpt lat="43.38897" lon="6.09395">
        <ele>340</ele>
        <time>2016-03-09T13:44:36Z</time>
      </trkpt>
      <trkpt lat="43.38893" lon="6.09403">
        <ele>340.79998779297</ele>
        <time>2016-03-09T13:44:42Z</time>
      </trkpt>
      <trkpt lat="43.38891" lon="6.09407">
        <ele>341</ele>
        <time>2016-03-09T13:44:45Z</time>
      </trkpt>
      <trkpt lat="43.3889" lon="6.09413">
        <ele>341</ele>
        <time>2016-03-09T13:44:48Z</time>
      </trkpt>
      <trkpt lat="43.38888" lon="6.09417">
        <ele>342.20001220703</ele>
        <time>2016-03-09T13:44:51Z</time>
      </trkpt>
      <trkpt lat="43.38884" lon="6.09421">
        <ele>342.79998779297</ele>
        <time>2016-03-09T13:45:05Z</time>
      </trkpt>
      <trkpt lat="43.38883" lon="6.09421">
        <ele>343.20001220703</ele>
        <time>2016-03-09T13:45:06Z</time>
      </trkpt>
      <trkpt lat="43.38882" lon="6.09424">
        <ele>343.60000610352</ele>
        <time>2016-03-09T13:45:14Z</time>
      </trkpt>
      <trkpt lat="43.38881" lon="6.09427">
        <ele>343.79998779297</ele>
        <time>2016-03-09T13:45:23Z</time>
      </trkpt>
      <trkpt lat="43.38881" lon="6.09427">
        <ele>343.79998779297</ele>
        <time>2016-03-09T13:45:26Z</time>
      </trkpt>
      <trkpt lat="43.38881" lon="6.09427">
        <ele>344</ele>
        <time>2016-03-09T13:45:30Z</time>
      </trkpt>
      <trkpt lat="43.38881" lon="6.09428">
        <ele>344.20001220703</ele>
        <time>2016-03-09T13:45:33Z</time>
      </trkpt>
      <trkpt lat="43.38879" lon="6.0943">
        <ele>344.39999389648</ele>
        <time>2016-03-09T13:45:40Z</time>
      </trkpt>
      <trkpt lat="43.38879" lon="6.0943">
        <ele>344.20001220703</ele>
        <time>2016-03-09T13:45:44Z</time>
      </trkpt>
      <trkpt lat="43.38879" lon="6.0943">
        <ele>344.20001220703</ele>
        <time>2016-03-09T13:45:47Z</time>
      </trkpt>
      <trkpt lat="43.38877" lon="6.09431">
        <ele>343.20001220703</ele>
        <time>2016-03-09T13:46:01Z</time>
      </trkpt>
      <trkpt lat="43.38877" lon="6.09431">
        <ele>343.20001220703</ele>
        <time>2016-03-09T13:46:20Z</time>
      </trkpt>
      <trkpt lat="43.38877" lon="6.09431">
        <ele>343.20001220703</ele>
        <time>2016-03-09T13:46:33Z</time>
      </trkpt>
      <trkpt lat="43.38877" lon="6.09431">
        <ele>343.39999389648</ele>
        <time>2016-03-09T13:47:09Z</time>
      </trkpt>
      <trkpt lat="43.38877" lon="6.09431">
        <ele>343.39999389648</ele>
        <time>2016-03-09T13:47:12Z</time>
      </trkpt>
      <trkpt lat="43.38876" lon="6.09429">
        <ele>344.20001220703</ele>
        <time>2016-03-09T13:49:52Z</time>
      </trkpt>
      <trkpt lat="43.38866" lon="6.09427">
        <ele>342.79998779297</ele>
        <time>2016-03-09T13:49:58Z</time>
      </trkpt>
      <trkpt lat="43.3886" lon="6.09416">
        <ele>341.60000610352</ele>
        <time>2016-03-09T13:50:03Z</time>
      </trkpt>
      <trkpt lat="43.38857" lon="6.09411">
        <ele>340.20001220703</ele>
        <time>2016-03-09T13:50:05Z</time>
      </trkpt>
      <trkpt lat="43.38854" lon="6.09406">
        <ele>339</ele>
        <time>2016-03-09T13:50:10Z</time>
      </trkpt>
      <trkpt lat="43.38854" lon="6.09406">
        <ele>339</ele>
        <time>2016-03-09T13:50:25Z</time>
      </trkpt>
      <trkpt lat="43.38854" lon="6.09406">
        <ele>338.79998779297</ele>
        <time>2016-03-09T13:50:31Z</time>
      </trkpt>
      <trkpt lat="43.38854" lon="6.09406">
        <ele>339</ele>
        <time>2016-03-09T13:50:38Z</time>
      </trkpt>
      <trkpt lat="43.38853" lon="6.09405">
        <ele>339</ele>
        <time>2016-03-09T13:50:45Z</time>
      </trkpt>
      <trkpt lat="43.3885" lon="6.09401">
        <ele>338.39999389648</ele>
        <time>2016-03-09T13:50:47Z</time>
      </trkpt>
      <trkpt lat="43.38846" lon="6.09393">
        <ele>337.60000610352</ele>
        <time>2016-03-09T13:50:50Z</time>
      </trkpt>
      <trkpt lat="43.38844" lon="6.09395">
        <ele>336.39999389648</ele>
        <time>2016-03-09T13:50:52Z</time>
      </trkpt>
      <trkpt lat="43.38842" lon="6.09399">
        <ele>335.39999389648</ele>
        <time>2016-03-09T13:50:54Z</time>
      </trkpt>
      <trkpt lat="43.3884" lon="6.09404">
        <ele>335</ele>
        <time>2016-03-09T13:50:55Z</time>
      </trkpt>
      <trkpt lat="43.38836" lon="6.09417">
        <ele>333.79998779297</ele>
        <time>2016-03-09T13:50:59Z</time>
      </trkpt>
      <trkpt lat="43.38833" lon="6.09425">
        <ele>332</ele>
        <time>2016-03-09T13:51:02Z</time>
      </trkpt>
      <trkpt lat="43.38832" lon="6.0943">
        <ele>330.79998779297</ele>
        <time>2016-03-09T13:51:04Z</time>
      </trkpt>
      <trkpt lat="43.3883" lon="6.09437">
        <ele>331.60000610352</ele>
        <time>2016-03-09T13:51:07Z</time>
      </trkpt>
      <trkpt lat="43.3883" lon="6.0944">
        <ele>332</ele>
        <time>2016-03-09T13:51:08Z</time>
      </trkpt>
      <trkpt lat="43.38829" lon="6.09444">
        <ele>332.39999389648</ele>
        <time>2016-03-09T13:51:11Z</time>
      </trkpt>
      <trkpt lat="43.38829" lon="6.09448">
        <ele>332.39999389648</ele>
        <time>2016-03-09T13:51:37Z</time>
      </trkpt>
      <trkpt lat="43.38829" lon="6.09448">
        <ele>332.60000610352</ele>
        <time>2016-03-09T13:51:42Z</time>
      </trkpt>
      <trkpt lat="43.38829" lon="6.09449">
        <ele>332.20001220703</ele>
        <time>2016-03-09T13:52:04Z</time>
      </trkpt>
      <trkpt lat="43.38829" lon="6.09449">
        <ele>332.39999389648</ele>
        <time>2016-03-09T13:52:09Z</time>
      </trkpt>
      <trkpt lat="43.38829" lon="6.0945">
        <ele>332.79998779297</ele>
        <time>2016-03-09T13:53:00Z</time>
      </trkpt>
      <trkpt lat="43.38829" lon="6.0945">
        <ele>332.39999389648</ele>
        <time>2016-03-09T13:53:17Z</time>
      </trkpt>
      <trkpt lat="43.38829" lon="6.0945">
        <ele>332.20001220703</ele>
        <time>2016-03-09T13:53:37Z</time>
      </trkpt>
      <trkpt lat="43.38829" lon="6.0945">
        <ele>332.39999389648</ele>
        <time>2016-03-09T13:54:42Z</time>
      </trkpt>
      <trkpt lat="43.38831" lon="6.09451">
        <ele>332.20001220703</ele>
        <time>2016-03-09T13:55:01Z</time>
      </trkpt>
      <trkpt lat="43.38832" lon="6.09453">
        <ele>332.20001220703</ele>
        <time>2016-03-09T13:55:03Z</time>
      </trkpt>
      <trkpt lat="43.38834" lon="6.09455">
        <ele>332.39999389648</ele>
        <time>2016-03-09T13:55:05Z</time>
      </trkpt>
      <trkpt lat="43.38837" lon="6.09455">
        <ele>332.60000610352</ele>
        <time>2016-03-09T13:55:06Z</time>
      </trkpt>
      <trkpt lat="43.38839" lon="6.09456">
        <ele>333</ele>
        <time>2016-03-09T13:55:07Z</time>
      </trkpt>
      <trkpt lat="43.38841" lon="6.09457">
        <ele>333.39999389648</ele>
        <time>2016-03-09T13:55:08Z</time>
      </trkpt>
      <trkpt lat="43.38845" lon="6.09459">
        <ele>334.60000610352</ele>
        <time>2016-03-09T13:55:10Z</time>
      </trkpt>
      <trkpt lat="43.38847" lon="6.0946">
        <ele>335.39999389648</ele>
        <time>2016-03-09T13:55:12Z</time>
      </trkpt>
      <trkpt lat="43.38848" lon="6.0946">
        <ele>336</ele>
        <time>2016-03-09T13:55:13Z</time>
      </trkpt>
      <trkpt lat="43.38848" lon="6.0946">
        <ele>336.39999389648</ele>
        <time>2016-03-09T13:55:16Z</time>
      </trkpt>
      <trkpt lat="43.38848" lon="6.0946">
        <ele>336.39999389648</ele>
        <time>2016-03-09T13:55:17Z</time>
      </trkpt>
      <trkpt lat="43.38848" lon="6.0946">
        <ele>336.79998779297</ele>
        <time>2016-03-09T13:55:19Z</time>
      </trkpt>
      <trkpt lat="43.38845" lon="6.09462">
        <ele>335.79998779297</ele>
        <time>2016-03-09T13:55:27Z</time>
      </trkpt>
      <trkpt lat="43.38843" lon="6.09462">
        <ele>335.20001220703</ele>
        <time>2016-03-09T13:55:30Z</time>
      </trkpt>
      <trkpt lat="43.38841" lon="6.0946">
        <ele>334.79998779297</ele>
        <time>2016-03-09T13:55:34Z</time>
      </trkpt>
      <trkpt lat="43.38837" lon="6.09457">
        <ele>333.79998779297</ele>
        <time>2016-03-09T13:55:39Z</time>
      </trkpt>
      <trkpt lat="43.38831" lon="6.09453">
        <ele>332.79998779297</ele>
        <time>2016-03-09T13:55:47Z</time>
      </trkpt>
      <trkpt lat="43.38831" lon="6.09453">
        <ele>332.60000610352</ele>
        <time>2016-03-09T13:55:54Z</time>
      </trkpt>
      <trkpt lat="43.38831" lon="6.09453">
        <ele>332.60000610352</ele>
        <time>2016-03-09T13:56:01Z</time>
      </trkpt>
      <trkpt lat="43.38831" lon="6.09453">
        <ele>332.60000610352</ele>
        <time>2016-03-09T13:56:05Z</time>
      </trkpt>
      <trkpt lat="43.38831" lon="6.09453">
        <ele>332.60000610352</ele>
        <time>2016-03-09T13:56:10Z</time>
      </trkpt>
      <trkpt lat="43.38831" lon="6.09453">
        <ele>332.60000610352</ele>
        <time>2016-03-09T13:56:17Z</time>
      </trkpt>
      <trkpt lat="43.38831" lon="6.09453">
        <ele>332.79998779297</ele>
        <time>2016-03-09T13:56:36Z</time>
      </trkpt>
      <trkpt lat="43.38831" lon="6.09453">
        <ele>332.79998779297</ele>
        <time>2016-03-09T13:56:40Z</time>
      </trkpt>
      <trkpt lat="43.38832" lon="6.09455">
        <ele>332.79998779297</ele>
        <time>2016-03-09T13:56:48Z</time>
      </trkpt>
      <trkpt lat="43.38835" lon="6.09455">
        <ele>333.20001220703</ele>
        <time>2016-03-09T13:56:50Z</time>
      </trkpt>
      <trkpt lat="43.38839" lon="6.09456">
        <ele>333.60000610352</ele>
        <time>2016-03-09T13:56:52Z</time>
      </trkpt>
      <trkpt lat="43.38841" lon="6.09457">
        <ele>333.79998779297</ele>
        <time>2016-03-09T13:56:53Z</time>
      </trkpt>
      <trkpt lat="43.38845" lon="6.09459">
        <ele>334.20001220703</ele>
        <time>2016-03-09T13:56:55Z</time>
      </trkpt>
      <trkpt lat="43.38846" lon="6.0946">
        <ele>335</ele>
        <time>2016-03-09T13:56:56Z</time>
      </trkpt>
      <trkpt lat="43.38847" lon="6.0946">
        <ele>335.60000610352</ele>
        <time>2016-03-09T13:56:57Z</time>
      </trkpt>
      <trkpt lat="43.38847" lon="6.0946">
        <ele>336.20001220703</ele>
        <time>2016-03-09T13:56:58Z</time>
      </trkpt>
      <trkpt lat="43.38848" lon="6.0946">
        <ele>336.39999389648</ele>
        <time>2016-03-09T13:57:00Z</time>
      </trkpt>
      <trkpt lat="43.38848" lon="6.09462">
        <ele>336.39999389648</ele>
        <time>2016-03-09T13:57:03Z</time>
      </trkpt>
      <trkpt lat="43.38849" lon="6.09462">
        <ele>336</ele>
        <time>2016-03-09T13:57:05Z</time>
      </trkpt>
      <trkpt lat="43.3885" lon="6.09462">
        <ele>336.79998779297</ele>
        <time>2016-03-09T13:57:07Z</time>
      </trkpt>
      <trkpt lat="43.38853" lon="6.09462">
        <ele>337.79998779297</ele>
        <time>2016-03-09T13:57:14Z</time>
      </trkpt>
      <trkpt lat="43.38853" lon="6.09461">
        <ele>337.60000610352</ele>
        <time>2016-03-09T13:57:18Z</time>
      </trkpt>
      <trkpt lat="43.38855" lon="6.09459">
        <ele>338.39999389648</ele>
        <time>2016-03-09T13:57:34Z</time>
      </trkpt>
      <trkpt lat="43.38855" lon="6.09459">
        <ele>338.79998779297</ele>
        <time>2016-03-09T13:57:36Z</time>
      </trkpt>
      <trkpt lat="43.38858" lon="6.09459">
        <ele>339.39999389648</ele>
        <time>2016-03-09T13:57:41Z</time>
      </trkpt>
      <trkpt lat="43.38862" lon="6.09463">
        <ele>339.79998779297</ele>
        <time>2016-03-09T13:57:53Z</time>
      </trkpt>
      <trkpt lat="43.38866" lon="6.09467">
        <ele>341.20001220703</ele>
        <time>2016-03-09T13:57:57Z</time>
      </trkpt>
      <trkpt lat="43.38869" lon="6.09471">
        <ele>342.39999389648</ele>
        <time>2016-03-09T13:58:01Z</time>
      </trkpt>
      <trkpt lat="43.38871" lon="6.09474">
        <ele>343</ele>
        <time>2016-03-09T13:58:05Z</time>
      </trkpt>
      <trkpt lat="43.38872" lon="6.09481">
        <ele>343</ele>
        <time>2016-03-09T13:58:11Z</time>
      </trkpt>
      <trkpt lat="43.38872" lon="6.09483">
        <ele>343</ele>
        <time>2016-03-09T13:58:14Z</time>
      </trkpt>
      <trkpt lat="43.38873" lon="6.0949">
        <ele>343.20001220703</ele>
        <time>2016-03-09T13:58:18Z</time>
      </trkpt>
      <trkpt lat="43.38873" lon="6.09497">
        <ele>343.20001220703</ele>
        <time>2016-03-09T13:58:21Z</time>
      </trkpt>
      <trkpt lat="43.38873" lon="6.09517">
        <ele>342.79998779297</ele>
        <time>2016-03-09T13:58:28Z</time>
      </trkpt>
      <trkpt lat="43.38874" lon="6.09542">
        <ele>343</ele>
        <time>2016-03-09T13:58:36Z</time>
      </trkpt>
      <trkpt lat="43.38875" lon="6.09565">
        <ele>342.79998779297</ele>
        <time>2016-03-09T13:58:42Z</time>
      </trkpt>
      <trkpt lat="43.38876" lon="6.09576">
        <ele>342.39999389648</ele>
        <time>2016-03-09T13:58:44Z</time>
      </trkpt>
      <trkpt lat="43.38879" lon="6.09593">
        <ele>341.20001220703</ele>
        <time>2016-03-09T13:58:47Z</time>
      </trkpt>
      <trkpt lat="43.38881" lon="6.09606">
        <ele>340.79998779297</ele>
        <time>2016-03-09T13:58:49Z</time>
      </trkpt>
      <trkpt lat="43.38887" lon="6.09617">
        <ele>340.20001220703</ele>
        <time>2016-03-09T13:58:51Z</time>
      </trkpt>
      <trkpt lat="43.38895" lon="6.09635">
        <ele>340.39999389648</ele>
        <time>2016-03-09T13:58:55Z</time>
      </trkpt>
      <trkpt lat="43.38897" lon="6.09646">
        <ele>340</ele>
        <time>2016-03-09T13:58:57Z</time>
      </trkpt>
      <trkpt lat="43.38897" lon="6.09674">
        <ele>339.39999389648</ele>
        <time>2016-03-09T13:59:01Z</time>
      </trkpt>
      <trkpt lat="43.38897" lon="6.09682">
        <ele>338.60000610352</ele>
        <time>2016-03-09T13:59:02Z</time>
      </trkpt>
      <trkpt lat="43.38898" lon="6.09697">
        <ele>337.79998779297</ele>
        <time>2016-03-09T13:59:04Z</time>
      </trkpt>
      <trkpt lat="43.38901" lon="6.09723">
        <ele>337.60000610352</ele>
        <time>2016-03-09T13:59:07Z</time>
      </trkpt>
      <trkpt lat="43.38902" lon="6.09741">
        <ele>337</ele>
        <time>2016-03-09T13:59:09Z</time>
      </trkpt>
      <trkpt lat="43.389" lon="6.09759">
        <ele>336.39999389648</ele>
        <time>2016-03-09T13:59:11Z</time>
      </trkpt>
      <trkpt lat="43.38895" lon="6.0979">
        <ele>334</ele>
        <time>2016-03-09T13:59:14Z</time>
      </trkpt>
      <trkpt lat="43.3889" lon="6.09811">
        <ele>332.60000610352</ele>
        <time>2016-03-09T13:59:16Z</time>
      </trkpt>
      <trkpt lat="43.38888" lon="6.09833">
        <ele>330.20001220703</ele>
        <time>2016-03-09T13:59:18Z</time>
      </trkpt>
      <trkpt lat="43.38887" lon="6.09844">
        <ele>329</ele>
        <time>2016-03-09T13:59:19Z</time>
      </trkpt>
      <trkpt lat="43.38885" lon="6.09856">
        <ele>326.79998779297</ele>
        <time>2016-03-09T13:59:20Z</time>
      </trkpt>
      <trkpt lat="43.38884" lon="6.09866">
        <ele>325.60000610352</ele>
        <time>2016-03-09T13:59:21Z</time>
      </trkpt>
      <trkpt lat="43.38882" lon="6.09879">
        <ele>324.39999389648</ele>
        <time>2016-03-09T13:59:22Z</time>
      </trkpt>
      <trkpt lat="43.3888" lon="6.0989">
        <ele>322.79998779297</ele>
        <time>2016-03-09T13:59:23Z</time>
      </trkpt>
      <trkpt lat="43.38874" lon="6.09915">
        <ele>321.60000610352</ele>
        <time>2016-03-09T13:59:25Z</time>
      </trkpt>
      <trkpt lat="43.38868" lon="6.09938">
        <ele>320.60000610352</ele>
        <time>2016-03-09T13:59:27Z</time>
      </trkpt>
      <trkpt lat="43.38866" lon="6.0995">
        <ele>319</ele>
        <time>2016-03-09T13:59:28Z</time>
      </trkpt>
      <trkpt lat="43.38863" lon="6.09972">
        <ele>317.60000610352</ele>
        <time>2016-03-09T13:59:30Z</time>
      </trkpt>
      <trkpt lat="43.38861" lon="6.09996">
        <ele>316</ele>
        <time>2016-03-09T13:59:32Z</time>
      </trkpt>
      <trkpt lat="43.38859" lon="6.10007">
        <ele>315</ele>
        <time>2016-03-09T13:59:33Z</time>
      </trkpt>
      <trkpt lat="43.38849" lon="6.10046">
        <ele>313.39999389648</ele>
        <time>2016-03-09T13:59:36Z</time>
      </trkpt>
      <trkpt lat="43.38846" lon="6.10058">
        <ele>312.20001220703</ele>
        <time>2016-03-09T13:59:37Z</time>
      </trkpt>
      <trkpt lat="43.38842" lon="6.10071">
        <ele>311</ele>
        <time>2016-03-09T13:59:38Z</time>
      </trkpt>
      <trkpt lat="43.38836" lon="6.10095">
        <ele>309.60000610352</ele>
        <time>2016-03-09T13:59:40Z</time>
      </trkpt>
      <trkpt lat="43.38831" lon="6.10114">
        <ele>308.60000610352</ele>
        <time>2016-03-09T13:59:42Z</time>
      </trkpt>
      <trkpt lat="43.38825" lon="6.10144">
        <ele>307.39999389648</ele>
        <time>2016-03-09T13:59:50Z</time>
      </trkpt>
      <trkpt lat="43.38825" lon="6.10144">
        <ele>307.20001220703</ele>
        <time>2016-03-09T13:59:53Z</time>
      </trkpt>
      <trkpt lat="43.38826" lon="6.10144">
        <ele>307.20001220703</ele>
        <time>2016-03-09T13:59:56Z</time>
      </trkpt>
      <trkpt lat="43.38826" lon="6.10144">
        <ele>307.20001220703</ele>
        <time>2016-03-09T14:00:30Z</time>
      </trkpt>
      <trkpt lat="43.38826" lon="6.10145">
        <ele>307.20001220703</ele>
        <time>2016-03-09T14:00:39Z</time>
      </trkpt>
      <trkpt lat="43.38826" lon="6.10147">
        <ele>306.60000610352</ele>
        <time>2016-03-09T14:00:53Z</time>
      </trkpt>
      <trkpt lat="43.38826" lon="6.10149">
        <ele>306.60000610352</ele>
        <time>2016-03-09T14:00:57Z</time>
      </trkpt>
      <trkpt lat="43.38827" lon="6.10151">
        <ele>306.60000610352</ele>
        <time>2016-03-09T14:00:58Z</time>
      </trkpt>
      <trkpt lat="43.38827" lon="6.10159">
        <ele>306.39999389648</ele>
        <time>2016-03-09T14:01:02Z</time>
      </trkpt>
      <trkpt lat="43.38826" lon="6.1016">
        <ele>306.39999389648</ele>
        <time>2016-03-09T14:01:24Z</time>
      </trkpt>
      <trkpt lat="43.38825" lon="6.10165">
        <ele>306.79998779297</ele>
        <time>2016-03-09T14:01:35Z</time>
      </trkpt>
      <trkpt lat="43.38825" lon="6.10173">
        <ele>306.39999389648</ele>
        <time>2016-03-09T14:01:38Z</time>
      </trkpt>
      <trkpt lat="43.38825" lon="6.10178">
        <ele>306.39999389648</ele>
        <time>2016-03-09T14:01:41Z</time>
      </trkpt>
      <trkpt lat="43.38826" lon="6.1018">
        <ele>306.39999389648</ele>
        <time>2016-03-09T14:01:43Z</time>
      </trkpt>
      <trkpt lat="43.38822" lon="6.10192">
        <ele>307.20001220703</ele>
        <time>2016-03-09T14:01:51Z</time>
      </trkpt>
      <trkpt lat="43.3882" lon="6.10197">
        <ele>307.60000610352</ele>
        <time>2016-03-09T14:01:55Z</time>
      </trkpt>
      <trkpt lat="43.38819" lon="6.10202">
        <ele>308.39999389648</ele>
        <time>2016-03-09T14:02:01Z</time>
      </trkpt>
      <trkpt lat="43.38818" lon="6.10213">
        <ele>308.60000610352</ele>
        <time>2016-03-09T14:02:06Z</time>
      </trkpt>
      <trkpt lat="43.38818" lon="6.10226">
        <ele>309.60000610352</ele>
        <time>2016-03-09T14:02:12Z</time>
      </trkpt>
      <trkpt lat="43.3882" lon="6.1023">
        <ele>308.60000610352</ele>
        <time>2016-03-09T14:02:14Z</time>
      </trkpt>
      <trkpt lat="43.38825" lon="6.1025">
        <ele>307.39999389648</ele>
        <time>2016-03-09T14:02:20Z</time>
      </trkpt>
      <trkpt lat="43.38827" lon="6.10267">
        <ele>306.60000610352</ele>
        <time>2016-03-09T14:02:24Z</time>
      </trkpt>
      <trkpt lat="43.38828" lon="6.10283">
        <ele>306.39999389648</ele>
        <time>2016-03-09T14:02:27Z</time>
      </trkpt>
      <trkpt lat="43.38829" lon="6.10302">
        <ele>305.20001220703</ele>
        <time>2016-03-09T14:02:30Z</time>
      </trkpt>
      <trkpt lat="43.38829" lon="6.10308">
        <ele>305.20001220703</ele>
        <time>2016-03-09T14:02:31Z</time>
      </trkpt>
      <trkpt lat="43.38829" lon="6.10343">
        <ele>304.60000610352</ele>
        <time>2016-03-09T14:02:37Z</time>
      </trkpt>
      <trkpt lat="43.38829" lon="6.1036">
        <ele>304.60000610352</ele>
        <time>2016-03-09T14:02:40Z</time>
      </trkpt>
      <trkpt lat="43.3883" lon="6.10371">
        <ele>304</ele>
        <time>2016-03-09T14:02:42Z</time>
      </trkpt>
      <trkpt lat="43.3883" lon="6.10404">
        <ele>303</ele>
        <time>2016-03-09T14:02:47Z</time>
      </trkpt>
      <trkpt lat="43.38829" lon="6.1041">
        <ele>302.60000610352</ele>
        <time>2016-03-09T14:02:48Z</time>
      </trkpt>
      <trkpt lat="43.38825" lon="6.10439">
        <ele>301.20001220703</ele>
        <time>2016-03-09T14:02:53Z</time>
      </trkpt>
      <trkpt lat="43.38824" lon="6.10451">
        <ele>300.20001220703</ele>
        <time>2016-03-09T14:02:56Z</time>
      </trkpt>
      <trkpt lat="43.38823" lon="6.10461">
        <ele>300</ele>
        <time>2016-03-09T14:03:01Z</time>
      </trkpt>
      <trkpt lat="43.38823" lon="6.10462">
        <ele>299.60000610352</ele>
        <time>2016-03-09T14:03:17Z</time>
      </trkpt>
      <trkpt lat="43.38823" lon="6.10463">
        <ele>299.79998779297</ele>
        <time>2016-03-09T14:03:24Z</time>
      </trkpt>
      <trkpt lat="43.38823" lon="6.10463">
        <ele>299.60000610352</ele>
        <time>2016-03-09T14:03:44Z</time>
      </trkpt>
      <trkpt lat="43.38823" lon="6.10463">
        <ele>299.79998779297</ele>
        <time>2016-03-09T14:03:47Z</time>
      </trkpt>
      <trkpt lat="43.38823" lon="6.10463">
        <ele>299.39999389648</ele>
        <time>2016-03-09T14:03:51Z</time>
      </trkpt>
      <trkpt lat="43.38823" lon="6.10463">
        <ele>299.79998779297</ele>
        <time>2016-03-09T14:04:03Z</time>
      </trkpt>
      <trkpt lat="43.38823" lon="6.10463">
        <ele>299.39999389648</ele>
        <time>2016-03-09T14:04:14Z</time>
      </trkpt>
      <trkpt lat="43.38823" lon="6.10463">
        <ele>299.39999389648</ele>
        <time>2016-03-09T14:04:17Z</time>
      </trkpt>
      <trkpt lat="43.38823" lon="6.10463">
        <ele>299.39999389648</ele>
        <time>2016-03-09T14:04:28Z</time>
      </trkpt>
      <trkpt lat="43.38823" lon="6.10463">
        <ele>299.60000610352</ele>
        <time>2016-03-09T14:04:56Z</time>
      </trkpt>
      <trkpt lat="43.38823" lon="6.10463">
        <ele>299.60000610352</ele>
        <time>2016-03-09T14:05:02Z</time>
      </trkpt>
      <trkpt lat="43.38824" lon="6.10474">
        <ele>299.20001220703</ele>
        <time>2016-03-09T14:05:13Z</time>
      </trkpt>
      <trkpt lat="43.38816" lon="6.10506">
        <ele>298.79998779297</ele>
        <time>2016-03-09T14:05:20Z</time>
      </trkpt>
      <trkpt lat="43.38813" lon="6.10517">
        <ele>297.79998779297</ele>
        <time>2016-03-09T14:05:22Z</time>
      </trkpt>
      <trkpt lat="43.38811" lon="6.10522">
        <ele>297</ele>
        <time>2016-03-09T14:05:23Z</time>
      </trkpt>
      <trkpt lat="43.38808" lon="6.10553">
        <ele>296.79998779297</ele>
        <time>2016-03-09T14:05:30Z</time>
      </trkpt>
      <trkpt lat="43.38804" lon="6.10562">
        <ele>297.20001220703</ele>
        <time>2016-03-09T14:05:34Z</time>
      </trkpt>
      <trkpt lat="43.38803" lon="6.10573">
        <ele>296.79998779297</ele>
        <time>2016-03-09T14:05:37Z</time>
      </trkpt>
      <trkpt lat="43.38802" lon="6.10583">
        <ele>296</ele>
        <time>2016-03-09T14:05:39Z</time>
      </trkpt>
      <trkpt lat="43.38802" lon="6.10587">
        <ele>295.60000610352</ele>
        <time>2016-03-09T14:05:40Z</time>
      </trkpt>
      <trkpt lat="43.38796" lon="6.10612">
        <ele>294.39999389648</ele>
        <time>2016-03-09T14:05:45Z</time>
      </trkpt>
      <trkpt lat="43.38792" lon="6.10639">
        <ele>293.39999389648</ele>
        <time>2016-03-09T14:05:52Z</time>
      </trkpt>
      <trkpt lat="43.38783" lon="6.10677">
        <ele>292.60000610352</ele>
        <time>2016-03-09T14:06:03Z</time>
      </trkpt>
      <trkpt lat="43.38781" lon="6.10687">
        <ele>292.20001220703</ele>
        <time>2016-03-09T14:06:05Z</time>
      </trkpt>
      <trkpt lat="43.38775" lon="6.1071">
        <ele>291.39999389648</ele>
        <time>2016-03-09T14:06:10Z</time>
      </trkpt>
      <trkpt lat="43.38773" lon="6.10726">
        <ele>291</ele>
        <time>2016-03-09T14:06:13Z</time>
      </trkpt>
      <trkpt lat="43.3877" lon="6.10748">
        <ele>290</ele>
        <time>2016-03-09T14:06:19Z</time>
      </trkpt>
      <trkpt lat="43.38768" lon="6.10756">
        <ele>289.79998779297</ele>
        <time>2016-03-09T14:06:24Z</time>
      </trkpt>
      <trkpt lat="43.38766" lon="6.10759">
        <ele>289.79998779297</ele>
        <time>2016-03-09T14:06:27Z</time>
      </trkpt>
      <trkpt lat="43.38759" lon="6.10763">
        <ele>290.20001220703</ele>
        <time>2016-03-09T14:06:35Z</time>
      </trkpt>
      <trkpt lat="43.38754" lon="6.10764">
        <ele>291</ele>
        <time>2016-03-09T14:06:39Z</time>
      </trkpt>
      <trkpt lat="43.38752" lon="6.10764">
        <ele>291.20001220703</ele>
        <time>2016-03-09T14:06:40Z</time>
      </trkpt>
      <trkpt lat="43.38739" lon="6.10771">
        <ele>291.79998779297</ele>
        <time>2016-03-09T14:06:48Z</time>
      </trkpt>
      <trkpt lat="43.38736" lon="6.10774">
        <ele>292</ele>
        <time>2016-03-09T14:06:50Z</time>
      </trkpt>
      <trkpt lat="43.38728" lon="6.10798">
        <ele>291.39999389648</ele>
        <time>2016-03-09T14:06:57Z</time>
      </trkpt>
      <trkpt lat="43.38718" lon="6.10801">
        <ele>291.60000610352</ele>
        <time>2016-03-09T14:07:02Z</time>
      </trkpt>
      <trkpt lat="43.38715" lon="6.10802">
        <ele>292.20001220703</ele>
        <time>2016-03-09T14:07:04Z</time>
      </trkpt>
      <trkpt lat="43.38708" lon="6.10806">
        <ele>292.60000610352</ele>
        <time>2016-03-09T14:07:08Z</time>
      </trkpt>
      <trkpt lat="43.38693" lon="6.10827">
        <ele>293.20001220703</ele>
        <time>2016-03-09T14:07:18Z</time>
      </trkpt>
      <trkpt lat="43.38689" lon="6.10845">
        <ele>293</ele>
        <time>2016-03-09T14:07:23Z</time>
      </trkpt>
      <trkpt lat="43.38686" lon="6.10866">
        <ele>292.39999389648</ele>
        <time>2016-03-09T14:07:29Z</time>
      </trkpt>
      <trkpt lat="43.3867" lon="6.10922">
        <ele>292.20001220703</ele>
        <time>2016-03-09T14:07:46Z</time>
      </trkpt>
      <trkpt lat="43.38665" lon="6.10946">
        <ele>292.39999389648</ele>
        <time>2016-03-09T14:07:56Z</time>
      </trkpt>
      <trkpt lat="43.38663" lon="6.10959">
        <ele>292.60000610352</ele>
        <time>2016-03-09T14:08:04Z</time>
      </trkpt>
      <trkpt lat="43.38657" lon="6.11002">
        <ele>293</ele>
        <time>2016-03-09T14:08:25Z</time>
      </trkpt>
      <trkpt lat="43.38654" lon="6.11003">
        <ele>293.39999389648</ele>
        <time>2016-03-09T14:08:28Z</time>
      </trkpt>
      <trkpt lat="43.3865" lon="6.11002">
        <ele>294</ele>
        <time>2016-03-09T14:08:31Z</time>
      </trkpt>
      <trkpt lat="43.38647" lon="6.11002">
        <ele>294.20001220703</ele>
        <time>2016-03-09T14:08:33Z</time>
      </trkpt>
      <trkpt lat="43.38643" lon="6.11003">
        <ele>294.39999389648</ele>
        <time>2016-03-09T14:08:36Z</time>
      </trkpt>
      <trkpt lat="43.38637" lon="6.11008">
        <ele>295.20001220703</ele>
        <time>2016-03-09T14:08:41Z</time>
      </trkpt>
      <trkpt lat="43.38636" lon="6.11008">
        <ele>295.60000610352</ele>
        <time>2016-03-09T14:08:42Z</time>
      </trkpt>
      <trkpt lat="43.3863" lon="6.11004">
        <ele>296</ele>
        <time>2016-03-09T14:08:46Z</time>
      </trkpt>
      <trkpt lat="43.38628" lon="6.11001">
        <ele>296</ele>
        <time>2016-03-09T14:08:48Z</time>
      </trkpt>
      <trkpt lat="43.38622" lon="6.10998">
        <ele>296.79998779297</ele>
        <time>2016-03-09T14:08:53Z</time>
      </trkpt>
      <trkpt lat="43.3861" lon="6.1099">
        <ele>296.79998779297</ele>
        <time>2016-03-09T14:09:18Z</time>
      </trkpt>
      <trkpt lat="43.38587" lon="6.10989">
        <ele>296.20001220703</ele>
        <time>2016-03-09T14:09:26Z</time>
      </trkpt>
      <trkpt lat="43.38583" lon="6.10989">
        <ele>295.79998779297</ele>
        <time>2016-03-09T14:09:27Z</time>
      </trkpt>
      <trkpt lat="43.3857" lon="6.10989">
        <ele>295</ele>
        <time>2016-03-09T14:09:30Z</time>
      </trkpt>
      <trkpt lat="43.38565" lon="6.10989">
        <ele>294.79998779297</ele>
        <time>2016-03-09T14:09:31Z</time>
      </trkpt>
      <trkpt lat="43.38559" lon="6.10988">
        <ele>294.39999389648</ele>
        <time>2016-03-09T14:09:32Z</time>
      </trkpt>
      <trkpt lat="43.38549" lon="6.10984">
        <ele>293.39999389648</ele>
        <time>2016-03-09T14:09:34Z</time>
      </trkpt>
      <trkpt lat="43.38532" lon="6.10976">
        <ele>293</ele>
        <time>2016-03-09T14:09:37Z</time>
      </trkpt>
      <trkpt lat="43.3852" lon="6.10971">
        <ele>292.20001220703</ele>
        <time>2016-03-09T14:09:39Z</time>
      </trkpt>
      <trkpt lat="43.38514" lon="6.10969">
        <ele>291.39999389648</ele>
        <time>2016-03-09T14:09:40Z</time>
      </trkpt>
      <trkpt lat="43.38506" lon="6.10968">
        <ele>290.60000610352</ele>
        <time>2016-03-09T14:09:41Z</time>
      </trkpt>
      <trkpt lat="43.38492" lon="6.10963">
        <ele>289.39999389648</ele>
        <time>2016-03-09T14:09:43Z</time>
      </trkpt>
      <trkpt lat="43.38481" lon="6.1096">
        <ele>288</ele>
        <time>2016-03-09T14:09:45Z</time>
      </trkpt>
      <trkpt lat="43.38474" lon="6.10958">
        <ele>287.39999389648</ele>
        <time>2016-03-09T14:10:03Z</time>
      </trkpt>
      <trkpt lat="43.38474" lon="6.10958">
        <ele>287</ele>
        <time>2016-03-09T14:10:06Z</time>
      </trkpt>
      <trkpt lat="43.38471" lon="6.10958">
        <ele>287</ele>
        <time>2016-03-09T14:10:23Z</time>
      </trkpt>
      <trkpt lat="43.38472" lon="6.10961">
        <ele>287</ele>
        <time>2016-03-09T14:10:25Z</time>
      </trkpt>
      <trkpt lat="43.38484" lon="6.10962">
        <ele>287.20001220703</ele>
        <time>2016-03-09T14:10:31Z</time>
      </trkpt>
      <trkpt lat="43.38485" lon="6.10962">
        <ele>287.20001220703</ele>
        <time>2016-03-09T14:10:32Z</time>
      </trkpt>
      <trkpt lat="43.38496" lon="6.10965">
        <ele>288.20001220703</ele>
        <time>2016-03-09T14:10:37Z</time>
      </trkpt>
      <trkpt lat="43.38501" lon="6.10966">
        <ele>288.60000610352</ele>
        <time>2016-03-09T14:10:39Z</time>
      </trkpt>
      <trkpt lat="43.38506" lon="6.10968">
        <ele>289.39999389648</ele>
        <time>2016-03-09T14:10:41Z</time>
      </trkpt>
      <trkpt lat="43.38515" lon="6.1097">
        <ele>290</ele>
        <time>2016-03-09T14:10:45Z</time>
      </trkpt>
      <trkpt lat="43.3852" lon="6.10972">
        <ele>290.60000610352</ele>
        <time>2016-03-09T14:10:48Z</time>
      </trkpt>
      <trkpt lat="43.38525" lon="6.10974">
        <ele>291.39999389648</ele>
        <time>2016-03-09T14:10:51Z</time>
      </trkpt>
      <trkpt lat="43.38529" lon="6.10976">
        <ele>292</ele>
        <time>2016-03-09T14:10:53Z</time>
      </trkpt>
      <trkpt lat="43.38543" lon="6.10982">
        <ele>292.79998779297</ele>
        <time>2016-03-09T14:11:00Z</time>
      </trkpt>
      <trkpt lat="43.38545" lon="6.10983">
        <ele>293</ele>
        <time>2016-03-09T14:11:01Z</time>
      </trkpt>
      <trkpt lat="43.3857" lon="6.10987">
        <ele>294.20001220703</ele>
        <time>2016-03-09T14:11:15Z</time>
      </trkpt>
      <trkpt lat="43.38579" lon="6.10987">
        <ele>295</ele>
        <time>2016-03-09T14:11:20Z</time>
      </trkpt>
      <trkpt lat="43.38581" lon="6.10986">
        <ele>295.20001220703</ele>
        <time>2016-03-09T14:11:21Z</time>
      </trkpt>
      <trkpt lat="43.38595" lon="6.10984">
        <ele>296</ele>
        <time>2016-03-09T14:11:29Z</time>
      </trkpt>
      <trkpt lat="43.3859" lon="6.10989">
        <ele>296</ele>
        <time>2016-03-09T14:11:35Z</time>
      </trkpt>
      <trkpt lat="43.38585" lon="6.10989">
        <ele>296</ele>
        <time>2016-03-09T14:11:37Z</time>
      </trkpt>
      <trkpt lat="43.38567" lon="6.10989">
        <ele>295.20001220703</ele>
        <time>2016-03-09T14:11:42Z</time>
      </trkpt>
      <trkpt lat="43.38556" lon="6.10987">
        <ele>294.39999389648</ele>
        <time>2016-03-09T14:11:44Z</time>
      </trkpt>
      <trkpt lat="43.38551" lon="6.10984">
        <ele>293.79998779297</ele>
        <time>2016-03-09T14:11:45Z</time>
      </trkpt>
      <trkpt lat="43.38536" lon="6.10977">
        <ele>293.20001220703</ele>
        <time>2016-03-09T14:11:48Z</time>
      </trkpt>
      <trkpt lat="43.38531" lon="6.10974">
        <ele>293</ele>
        <time>2016-03-09T14:11:49Z</time>
      </trkpt>
      <trkpt lat="43.38513" lon="6.10968">
        <ele>292</ele>
        <time>2016-03-09T14:11:52Z</time>
      </trkpt>
      <trkpt lat="43.38499" lon="6.10964">
        <ele>290.79998779297</ele>
        <time>2016-03-09T14:11:54Z</time>
      </trkpt>
      <trkpt lat="43.38485" lon="6.1096">
        <ele>289.20001220703</ele>
        <time>2016-03-09T14:11:56Z</time>
      </trkpt>
      <trkpt lat="43.38475" lon="6.10959">
        <ele>288.20001220703</ele>
        <time>2016-03-09T14:11:58Z</time>
      </trkpt>
      <trkpt lat="43.38455" lon="6.10958">
        <ele>287.20001220703</ele>
        <time>2016-03-09T14:12:04Z</time>
      </trkpt>
      <trkpt lat="43.38398" lon="6.10947">
        <ele>286.20001220703</ele>
        <time>2016-03-09T14:12:15Z</time>
      </trkpt>
      <trkpt lat="43.38378" lon="6.10943">
        <ele>285</ele>
        <time>2016-03-09T14:12:19Z</time>
      </trkpt>
      <trkpt lat="43.38345" lon="6.10933">
        <ele>284</ele>
        <time>2016-03-09T14:12:26Z</time>
      </trkpt>
      <trkpt lat="43.38289" lon="6.10914">
        <ele>283.60000610352</ele>
        <time>2016-03-09T14:12:37Z</time>
      </trkpt>
      <trkpt lat="43.38258" lon="6.10905">
        <ele>282.79998779297</ele>
        <time>2016-03-09T14:12:43Z</time>
      </trkpt>
      <trkpt lat="43.38205" lon="6.10889">
        <ele>283.60000610352</ele>
        <time>2016-03-09T14:12:55Z</time>
      </trkpt>
      <trkpt lat="43.38198" lon="6.1089">
        <ele>284</ele>
        <time>2016-03-09T14:12:57Z</time>
      </trkpt>
      <trkpt lat="43.38195" lon="6.10894">
        <ele>284.20001220703</ele>
        <time>2016-03-09T14:12:59Z</time>
      </trkpt>
      <trkpt lat="43.3819" lon="6.10923">
        <ele>284.39999389648</ele>
        <time>2016-03-09T14:13:10Z</time>
      </trkpt>
      <trkpt lat="43.38186" lon="6.1094">
        <ele>284.60000610352</ele>
        <time>2016-03-09T14:13:14Z</time>
      </trkpt>
      <trkpt lat="43.38183" lon="6.10958">
        <ele>285.20001220703</ele>
        <time>2016-03-09T14:13:18Z</time>
      </trkpt>
      <trkpt lat="43.3818" lon="6.10973">
        <ele>285.60000610352</ele>
        <time>2016-03-09T14:13:21Z</time>
      </trkpt>
      <trkpt lat="43.38176" lon="6.10994">
        <ele>286.20001220703</ele>
        <time>2016-03-09T14:13:25Z</time>
      </trkpt>
      <trkpt lat="43.38175" lon="6.10999">
        <ele>286.39999389648</ele>
        <time>2016-03-09T14:13:26Z</time>
      </trkpt>
      <trkpt lat="43.38169" lon="6.11031">
        <ele>287</ele>
        <time>2016-03-09T14:13:33Z</time>
      </trkpt>
      <trkpt lat="43.38167" lon="6.11045">
        <ele>287.60000610352</ele>
        <time>2016-03-09T14:13:36Z</time>
      </trkpt>
      <trkpt lat="43.38159" lon="6.11077">
        <ele>288.39999389648</ele>
        <time>2016-03-09T14:13:43Z</time>
      </trkpt>
      <trkpt lat="43.38156" lon="6.11086">
        <ele>288.79998779297</ele>
        <time>2016-03-09T14:13:45Z</time>
      </trkpt>
      <trkpt lat="43.38147" lon="6.11106">
        <ele>289.79998779297</ele>
        <time>2016-03-09T14:13:50Z</time>
      </trkpt>
      <trkpt lat="43.38124" lon="6.11136">
        <ele>291</ele>
        <time>2016-03-09T14:14:00Z</time>
      </trkpt>
      <trkpt lat="43.38111" lon="6.11148">
        <ele>292</ele>
        <time>2016-03-09T14:14:05Z</time>
      </trkpt>
      <trkpt lat="43.38097" lon="6.11163">
        <ele>293</ele>
        <time>2016-03-09T14:14:12Z</time>
      </trkpt>
      <trkpt lat="43.38088" lon="6.11172">
        <ele>294.20001220703</ele>
        <time>2016-03-09T14:14:17Z</time>
      </trkpt>
      <trkpt lat="43.38059" lon="6.11202">
        <ele>295</ele>
        <time>2016-03-09T14:14:31Z</time>
      </trkpt>
      <trkpt lat="43.38042" lon="6.11227">
        <ele>294.20001220703</ele>
        <time>2016-03-09T14:14:38Z</time>
      </trkpt>
      <trkpt lat="43.38025" lon="6.1126">
        <ele>294.60000610352</ele>
        <time>2016-03-09T14:14:45Z</time>
      </trkpt>
      <trkpt lat="43.38002" lon="6.11304">
        <ele>294</ele>
        <time>2016-03-09T14:14:55Z</time>
      </trkpt>
      <trkpt lat="43.37993" lon="6.11323">
        <ele>294.60000610352</ele>
        <time>2016-03-09T14:14:59Z</time>
      </trkpt>
      <trkpt lat="43.37974" lon="6.11352">
        <ele>294.39999389648</ele>
        <time>2016-03-09T14:15:06Z</time>
      </trkpt>
      <trkpt lat="43.37966" lon="6.11366">
        <ele>294.39999389648</ele>
        <time>2016-03-09T14:15:09Z</time>
      </trkpt>
      <trkpt lat="43.37932" lon="6.11423">
        <ele>295</ele>
        <time>2016-03-09T14:15:23Z</time>
      </trkpt>
      <trkpt lat="43.37928" lon="6.11439">
        <ele>296</ele>
        <time>2016-03-09T14:15:27Z</time>
      </trkpt>
      <trkpt lat="43.37923" lon="6.11457">
        <ele>296.79998779297</ele>
        <time>2016-03-09T14:15:34Z</time>
      </trkpt>
      <trkpt lat="43.37922" lon="6.11458">
        <ele>296.79998779297</ele>
        <time>2016-03-09T14:15:42Z</time>
      </trkpt>
      <trkpt lat="43.37922" lon="6.11458">
        <ele>296.79998779297</ele>
        <time>2016-03-09T14:15:45Z</time>
      </trkpt>
      <trkpt lat="43.37922" lon="6.11458">
        <ele>296.79998779297</ele>
        <time>2016-03-09T14:15:48Z</time>
      </trkpt>
      <trkpt lat="43.37922" lon="6.11458">
        <ele>297</ele>
        <time>2016-03-09T14:15:51Z</time>
      </trkpt>
      <trkpt lat="43.37922" lon="6.11458">
        <ele>297</ele>
        <time>2016-03-09T14:15:54Z</time>
      </trkpt>
      <trkpt lat="43.37922" lon="6.11458">
        <ele>296.79998779297</ele>
        <time>2016-03-09T14:16:07Z</time>
      </trkpt>
      <trkpt lat="43.37922" lon="6.11458">
        <ele>297</ele>
        <time>2016-03-09T14:16:34Z</time>
      </trkpt>
      <trkpt lat="43.37922" lon="6.11458">
        <ele>296.79998779297</ele>
        <time>2016-03-09T14:16:52Z</time>
      </trkpt>
      <trkpt lat="43.37921" lon="6.11459">
        <ele>296.79998779297</ele>
        <time>2016-03-09T14:17:23Z</time>
      </trkpt>
      <trkpt lat="43.37921" lon="6.11459">
        <ele>296.79998779297</ele>
        <time>2016-03-09T14:17:33Z</time>
      </trkpt>
      <trkpt lat="43.3792" lon="6.11462">
        <ele>297</ele>
        <time>2016-03-09T14:17:35Z</time>
      </trkpt>
      <trkpt lat="43.37918" lon="6.1147">
        <ele>297</ele>
        <time>2016-03-09T14:17:40Z</time>
      </trkpt>
      <trkpt lat="43.37915" lon="6.11482">
        <ele>297.79998779297</ele>
        <time>2016-03-09T14:17:44Z</time>
      </trkpt>
      <trkpt lat="43.37912" lon="6.11506">
        <ele>298</ele>
        <time>2016-03-09T14:17:51Z</time>
      </trkpt>
      <trkpt lat="43.37909" lon="6.11522">
        <ele>299.20001220703</ele>
        <time>2016-03-09T14:17:56Z</time>
      </trkpt>
      <trkpt lat="43.37904" lon="6.11539">
        <ele>298.79998779297</ele>
        <time>2016-03-09T14:18:02Z</time>
      </trkpt>
      <trkpt lat="43.37898" lon="6.1156">
        <ele>299.60000610352</ele>
        <time>2016-03-09T14:18:09Z</time>
      </trkpt>
      <trkpt lat="43.37891" lon="6.11583">
        <ele>299.79998779297</ele>
        <time>2016-03-09T14:18:16Z</time>
      </trkpt>
      <trkpt lat="43.37889" lon="6.11592">
        <ele>300.39999389648</ele>
        <time>2016-03-09T14:18:19Z</time>
      </trkpt>
      <trkpt lat="43.37878" lon="6.11637">
        <ele>301.60000610352</ele>
        <time>2016-03-09T14:18:35Z</time>
      </trkpt>
      <trkpt lat="43.37874" lon="6.11671">
        <ele>303</ele>
        <time>2016-03-09T14:18:46Z</time>
      </trkpt>
      <trkpt lat="43.37864" lon="6.11718">
        <ele>304.20001220703</ele>
        <time>2016-03-09T14:19:01Z</time>
      </trkpt>
      <trkpt lat="43.37859" lon="6.11731">
        <ele>305.20001220703</ele>
        <time>2016-03-09T14:19:06Z</time>
      </trkpt>
      <trkpt lat="43.37857" lon="6.1174">
        <ele>305.39999389648</ele>
        <time>2016-03-09T14:19:09Z</time>
      </trkpt>
      <trkpt lat="43.37851" lon="6.11768">
        <ele>306.60000610352</ele>
        <time>2016-03-09T14:19:18Z</time>
      </trkpt>
      <trkpt lat="43.37833" lon="6.11813">
        <ele>308</ele>
        <time>2016-03-09T14:19:31Z</time>
      </trkpt>
      <trkpt lat="43.3783" lon="6.1186">
        <ele>309.20001220703</ele>
        <time>2016-03-09T14:19:44Z</time>
      </trkpt>
      <trkpt lat="43.37837" lon="6.11898">
        <ele>310.39999389648</ele>
        <time>2016-03-09T14:19:54Z</time>
      </trkpt>
      <trkpt lat="43.37841" lon="6.11927">
        <ele>311.60000610352</ele>
        <time>2016-03-09T14:20:03Z</time>
      </trkpt>
      <trkpt lat="43.37838" lon="6.11944">
        <ele>312.79998779297</ele>
        <time>2016-03-09T14:20:09Z</time>
      </trkpt>
      <trkpt lat="43.37833" lon="6.11962">
        <ele>313.79998779297</ele>
        <time>2016-03-09T14:20:17Z</time>
      </trkpt>
      <trkpt lat="43.37827" lon="6.11982">
        <ele>315.20001220703</ele>
        <time>2016-03-09T14:20:27Z</time>
      </trkpt>
      <trkpt lat="43.37823" lon="6.11996">
        <ele>315.60000610352</ele>
        <time>2016-03-09T14:20:33Z</time>
      </trkpt>
      <trkpt lat="43.37821" lon="6.12005">
        <ele>316.20001220703</ele>
        <time>2016-03-09T14:20:38Z</time>
      </trkpt>
      <trkpt lat="43.3782" lon="6.12006">
        <ele>316.20001220703</ele>
        <time>2016-03-09T14:20:39Z</time>
      </trkpt>
      <trkpt lat="43.3782" lon="6.12015">
        <ele>316.60000610352</ele>
        <time>2016-03-09T14:20:47Z</time>
      </trkpt>
      <trkpt lat="43.3782" lon="6.12015">
        <ele>316.60000610352</ele>
        <time>2016-03-09T14:20:52Z</time>
      </trkpt>
      <trkpt lat="43.3782" lon="6.12015">
        <ele>316.60000610352</ele>
        <time>2016-03-09T14:20:55Z</time>
      </trkpt>
      <trkpt lat="43.3782" lon="6.12015">
        <ele>316.60000610352</ele>
        <time>2016-03-09T14:20:58Z</time>
      </trkpt>
      <trkpt lat="43.3782" lon="6.12015">
        <ele>316.60000610352</ele>
        <time>2016-03-09T14:21:02Z</time>
      </trkpt>
      <trkpt lat="43.3782" lon="6.12015">
        <ele>316.39999389648</ele>
        <time>2016-03-09T14:21:06Z</time>
      </trkpt>
      <trkpt lat="43.3782" lon="6.12015">
        <ele>316.39999389648</ele>
        <time>2016-03-09T14:21:09Z</time>
      </trkpt>
      <trkpt lat="43.3782" lon="6.12016">
        <ele>316.60000610352</ele>
        <time>2016-03-09T14:21:15Z</time>
      </trkpt>
      <trkpt lat="43.3782" lon="6.12016">
        <ele>316.79998779297</ele>
        <time>2016-03-09T14:21:20Z</time>
      </trkpt>
      <trkpt lat="43.3782" lon="6.12016">
        <ele>316.60000610352</ele>
        <time>2016-03-09T14:21:36Z</time>
      </trkpt>
      <trkpt lat="43.37818" lon="6.12024">
        <ele>316.79998779297</ele>
        <time>2016-03-09T14:21:58Z</time>
      </trkpt>
      <trkpt lat="43.37816" lon="6.12035">
        <ele>317.60000610352</ele>
        <time>2016-03-09T14:22:02Z</time>
      </trkpt>
      <trkpt lat="43.37807" lon="6.12063">
        <ele>318</ele>
        <time>2016-03-09T14:22:10Z</time>
      </trkpt>
      <trkpt lat="43.37799" lon="6.12087">
        <ele>318.39999389648</ele>
        <time>2016-03-09T14:22:17Z</time>
      </trkpt>
      <trkpt lat="43.37797" lon="6.12097">
        <ele>319.20001220703</ele>
        <time>2016-03-09T14:22:20Z</time>
      </trkpt>
      <trkpt lat="43.3779" lon="6.12116">
        <ele>319.20001220703</ele>
        <time>2016-03-09T14:22:26Z</time>
      </trkpt>
      <trkpt lat="43.37785" lon="6.1213">
        <ele>320</ele>
        <time>2016-03-09T14:22:30Z</time>
      </trkpt>
      <trkpt lat="43.37781" lon="6.12143">
        <ele>320.20001220703</ele>
        <time>2016-03-09T14:22:34Z</time>
      </trkpt>
      <trkpt lat="43.37777" lon="6.12156">
        <ele>320.39999389648</ele>
        <time>2016-03-09T14:22:38Z</time>
      </trkpt>
      <trkpt lat="43.37771" lon="6.12172">
        <ele>321.20001220703</ele>
        <time>2016-03-09T14:22:43Z</time>
      </trkpt>
      <trkpt lat="43.37764" lon="6.1219">
        <ele>321.60000610352</ele>
        <time>2016-03-09T14:22:49Z</time>
      </trkpt>
      <trkpt lat="43.37751" lon="6.12221">
        <ele>321.60000610352</ele>
        <time>2016-03-09T14:22:58Z</time>
      </trkpt>
      <trkpt lat="43.3773" lon="6.12252">
        <ele>323</ele>
        <time>2016-03-09T14:23:11Z</time>
      </trkpt>
      <trkpt lat="43.37711" lon="6.12299">
        <ele>324</ele>
        <time>2016-03-09T14:23:27Z</time>
      </trkpt>
      <trkpt lat="43.37722" lon="6.12318">
        <ele>324.39999389648</ele>
        <time>2016-03-09T14:23:34Z</time>
      </trkpt>
      <trkpt lat="43.37726" lon="6.12321">
        <ele>324.60000610352</ele>
        <time>2016-03-09T14:23:36Z</time>
      </trkpt>
      <trkpt lat="43.3773" lon="6.12336">
        <ele>325.60000610352</ele>
        <time>2016-03-09T14:23:41Z</time>
      </trkpt>
      <trkpt lat="43.37726" lon="6.12351">
        <ele>326.20001220703</ele>
        <time>2016-03-09T14:23:46Z</time>
      </trkpt>
      <trkpt lat="43.37724" lon="6.12361">
        <ele>327</ele>
        <time>2016-03-09T14:23:50Z</time>
      </trkpt>
      <trkpt lat="43.3772" lon="6.1239">
        <ele>327.39999389648</ele>
        <time>2016-03-09T14:24:00Z</time>
      </trkpt>
      <trkpt lat="43.37718" lon="6.12408">
        <ele>328.20001220703</ele>
        <time>2016-03-09T14:24:06Z</time>
      </trkpt>
      <trkpt lat="43.37716" lon="6.12433">
        <ele>329.39999389648</ele>
        <time>2016-03-09T14:24:15Z</time>
      </trkpt>
      <trkpt lat="43.37716" lon="6.12436">
        <ele>329.39999389648</ele>
        <time>2016-03-09T14:24:16Z</time>
      </trkpt>
      <trkpt lat="43.37712" lon="6.12457">
        <ele>330.39999389648</ele>
        <time>2016-03-09T14:24:23Z</time>
      </trkpt>
      <trkpt lat="43.37709" lon="6.12468">
        <ele>331.20001220703</ele>
        <time>2016-03-09T14:24:28Z</time>
      </trkpt>
      <trkpt lat="43.37707" lon="6.12477">
        <ele>331.39999389648</ele>
        <time>2016-03-09T14:24:32Z</time>
      </trkpt>
      <trkpt lat="43.37706" lon="6.12479">
        <ele>331.60000610352</ele>
        <time>2016-03-09T14:24:33Z</time>
      </trkpt>
      <trkpt lat="43.37704" lon="6.1249">
        <ele>332.20001220703</ele>
        <time>2016-03-09T14:24:37Z</time>
      </trkpt>
      <trkpt lat="43.37698" lon="6.1253">
        <ele>333</ele>
        <time>2016-03-09T14:24:52Z</time>
      </trkpt>
      <trkpt lat="43.37696" lon="6.12551">
        <ele>333</ele>
        <time>2016-03-09T14:24:59Z</time>
      </trkpt>
      <trkpt lat="43.37697" lon="6.12597">
        <ele>334.39999389648</ele>
        <time>2016-03-09T14:25:13Z</time>
      </trkpt>
      <trkpt lat="43.37696" lon="6.12643">
        <ele>335.20001220703</ele>
        <time>2016-03-09T14:25:25Z</time>
      </trkpt>
      <trkpt lat="43.37697" lon="6.12677">
        <ele>336</ele>
        <time>2016-03-09T14:25:33Z</time>
      </trkpt>
      <trkpt lat="43.377" lon="6.12722">
        <ele>337</ele>
        <time>2016-03-09T14:25:45Z</time>
      </trkpt>
      <trkpt lat="43.37698" lon="6.12758">
        <ele>338</ele>
        <time>2016-03-09T14:25:55Z</time>
      </trkpt>
      <trkpt lat="43.37699" lon="6.12764">
        <ele>338.60000610352</ele>
        <time>2016-03-09T14:25:57Z</time>
      </trkpt>
      <trkpt lat="43.377" lon="6.12777">
        <ele>339.20001220703</ele>
        <time>2016-03-09T14:26:02Z</time>
      </trkpt>
      <trkpt lat="43.37703" lon="6.12787">
        <ele>340</ele>
        <time>2016-03-09T14:26:05Z</time>
      </trkpt>
      <trkpt lat="43.37708" lon="6.12815">
        <ele>341</ele>
        <time>2016-03-09T14:26:13Z</time>
      </trkpt>
      <trkpt lat="43.37706" lon="6.12823">
        <ele>341.39999389648</ele>
        <time>2016-03-09T14:26:16Z</time>
      </trkpt>
      <trkpt lat="43.37706" lon="6.12865">
        <ele>342</ele>
        <time>2016-03-09T14:26:29Z</time>
      </trkpt>
      <trkpt lat="43.37701" lon="6.12896">
        <ele>342.39999389648</ele>
        <time>2016-03-09T14:26:39Z</time>
      </trkpt>
      <trkpt lat="43.37698" lon="6.12911">
        <ele>342.20001220703</ele>
        <time>2016-03-09T14:26:44Z</time>
      </trkpt>
      <trkpt lat="43.37698" lon="6.12914">
        <ele>342.39999389648</ele>
        <time>2016-03-09T14:26:46Z</time>
      </trkpt>
      <trkpt lat="43.37693" lon="6.12926">
        <ele>342.20001220703</ele>
        <time>2016-03-09T14:26:51Z</time>
      </trkpt>
      <trkpt lat="43.37683" lon="6.12953">
        <ele>343.20001220703</ele>
        <time>2016-03-09T14:27:01Z</time>
      </trkpt>
      <trkpt lat="43.3768" lon="6.12976">
        <ele>343.39999389648</ele>
        <time>2016-03-09T14:27:09Z</time>
      </trkpt>
      <trkpt lat="43.3768" lon="6.12982">
        <ele>343.39999389648</ele>
        <time>2016-03-09T14:27:12Z</time>
      </trkpt>
      <trkpt lat="43.37669" lon="6.12982">
        <ele>343.39999389648</ele>
        <time>2016-03-09T14:27:20Z</time>
      </trkpt>
      <trkpt lat="43.37667" lon="6.12983">
        <ele>343.20001220703</ele>
        <time>2016-03-09T14:27:25Z</time>
      </trkpt>
      <trkpt lat="43.37666" lon="6.12983">
        <ele>344</ele>
        <time>2016-03-09T14:27:39Z</time>
      </trkpt>
      <trkpt lat="43.37664" lon="6.12988">
        <ele>344</ele>
        <time>2016-03-09T14:27:50Z</time>
      </trkpt>
      <trkpt lat="43.37665" lon="6.12988">
        <ele>343.60000610352</ele>
        <time>2016-03-09T14:27:56Z</time>
      </trkpt>
      <trkpt lat="43.37664" lon="6.12988">
        <ele>342.79998779297</ele>
        <time>2016-03-09T14:28:39Z</time>
      </trkpt>
      <trkpt lat="43.37665" lon="6.12988">
        <ele>343.20001220703</ele>
        <time>2016-03-09T14:29:39Z</time>
      </trkpt>
      <trkpt lat="43.37664" lon="6.12988">
        <ele>343.20001220703</ele>
        <time>2016-03-09T14:29:55Z</time>
      </trkpt>
      <trkpt lat="43.37664" lon="6.12988">
        <ele>343.20001220703</ele>
        <time>2016-03-09T14:30:00Z</time>
      </trkpt>
      <trkpt lat="43.37664" lon="6.12988">
        <ele>343.20001220703</ele>
        <time>2016-03-09T14:30:16Z</time>
      </trkpt>
      <trkpt lat="43.37664" lon="6.12988">
        <ele>343.39999389648</ele>
        <time>2016-03-09T14:30:26Z</time>
      </trkpt>
      <trkpt lat="43.37664" lon="6.12988">
        <ele>343.39999389648</ele>
        <time>2016-03-09T14:30:32Z</time>
      </trkpt>
      <trkpt lat="43.37664" lon="6.12988">
        <ele>343.79998779297</ele>
        <time>2016-03-09T14:30:53Z</time>
      </trkpt>
      <trkpt lat="43.37664" lon="6.12988">
        <ele>343.79998779297</ele>
        <time>2016-03-09T14:31:14Z</time>
      </trkpt>
      <trkpt lat="43.37664" lon="6.12989">
        <ele>343.79998779297</ele>
        <time>2016-03-09T14:31:44Z</time>
      </trkpt>
      <trkpt lat="43.37665" lon="6.12994">
        <ele>344.60000610352</ele>
        <time>2016-03-09T14:32:06Z</time>
      </trkpt>
      <trkpt lat="43.37666" lon="6.12995">
        <ele>344.39999389648</ele>
        <time>2016-03-09T14:32:13Z</time>
      </trkpt>
      <trkpt lat="43.37668" lon="6.13002">
        <ele>344.60000610352</ele>
        <time>2016-03-09T14:32:21Z</time>
      </trkpt>
      <trkpt lat="43.3767" lon="6.13017">
        <ele>345.39999389648</ele>
        <time>2016-03-09T14:32:39Z</time>
      </trkpt>
      <trkpt lat="43.37671" lon="6.13019">
        <ele>345.20001220703</ele>
        <time>2016-03-09T14:33:20Z</time>
      </trkpt>
      <trkpt lat="43.37671" lon="6.13019">
        <ele>345</ele>
        <time>2016-03-09T14:33:27Z</time>
      </trkpt>
      <trkpt lat="43.37671" lon="6.13019">
        <ele>345.20001220703</ele>
        <time>2016-03-09T14:33:43Z</time>
      </trkpt>
      <trkpt lat="43.37671" lon="6.13019">
        <ele>345.20001220703</ele>
        <time>2016-03-09T14:34:18Z</time>
      </trkpt>
      <trkpt lat="43.37671" lon="6.13019">
        <ele>345</ele>
        <time>2016-03-09T14:34:36Z</time>
      </trkpt>
      <trkpt lat="43.37671" lon="6.13019">
        <ele>345</ele>
        <time>2016-03-09T14:34:42Z</time>
      </trkpt>
      <trkpt lat="43.37671" lon="6.13019">
        <ele>345</ele>
        <time>2016-03-09T14:34:44Z</time>
      </trkpt>
      <trkpt lat="43.37671" lon="6.13019">
        <ele>345</ele>
        <time>2016-03-09T14:35:10Z</time>
      </trkpt>
      <trkpt lat="43.3767" lon="6.1302">
        <ele>345.20001220703</ele>
        <time>2016-03-09T14:35:36Z</time>
      </trkpt>
      <trkpt lat="43.37671" lon="6.1302">
        <ele>345.20001220703</ele>
        <time>2016-03-09T14:35:54Z</time>
      </trkpt>
      <trkpt lat="43.37671" lon="6.1302">
        <ele>345</ele>
        <time>2016-03-09T14:36:28Z</time>
      </trkpt>
      <trkpt lat="43.37671" lon="6.1302">
        <ele>345.20001220703</ele>
        <time>2016-03-09T14:36:32Z</time>
      </trkpt>
      <trkpt lat="43.37671" lon="6.1302">
        <ele>345.20001220703</ele>
        <time>2016-03-09T14:36:53Z</time>
      </trkpt>
      <trkpt lat="43.3767" lon="6.13021">
        <ele>345.60000610352</ele>
        <time>2016-03-09T14:37:54Z</time>
      </trkpt>
      <trkpt lat="43.37669" lon="6.13026">
        <ele>345.60000610352</ele>
        <time>2016-03-09T14:37:57Z</time>
      </trkpt>
      <trkpt lat="43.37661" lon="6.1304">
        <ele>345.20001220703</ele>
        <time>2016-03-09T14:38:03Z</time>
      </trkpt>
      <trkpt lat="43.37652" lon="6.13053">
        <ele>345.79998779297</ele>
        <time>2016-03-09T14:38:08Z</time>
      </trkpt>
      <trkpt lat="43.37643" lon="6.13066">
        <ele>346.39999389648</ele>
        <time>2016-03-09T14:38:13Z</time>
      </trkpt>
      <trkpt lat="43.37638" lon="6.13075">
        <ele>347.20001220703</ele>
        <time>2016-03-09T14:38:17Z</time>
      </trkpt>
      <trkpt lat="43.37626" lon="6.13095">
        <ele>348</ele>
        <time>2016-03-09T14:38:26Z</time>
      </trkpt>
      <trkpt lat="43.37617" lon="6.13109">
        <ele>348.20001220703</ele>
        <time>2016-03-09T14:38:32Z</time>
      </trkpt>
      <trkpt lat="43.37606" lon="6.13124">
        <ele>349</ele>
        <time>2016-03-09T14:38:40Z</time>
      </trkpt>
      <trkpt lat="43.37605" lon="6.13126">
        <ele>349.39999389648</ele>
        <time>2016-03-09T14:38:41Z</time>
      </trkpt>
      <trkpt lat="43.37598" lon="6.13141">
        <ele>350</ele>
        <time>2016-03-09T14:38:48Z</time>
      </trkpt>
      <trkpt lat="43.3759" lon="6.13159">
        <ele>350.39999389648</ele>
        <time>2016-03-09T14:38:55Z</time>
      </trkpt>
      <trkpt lat="43.37581" lon="6.13178">
        <ele>351.60000610352</ele>
        <time>2016-03-09T14:39:03Z</time>
      </trkpt>
      <trkpt lat="43.37572" lon="6.13212">
        <ele>352.60000610352</ele>
        <time>2016-03-09T14:39:16Z</time>
      </trkpt>
      <trkpt lat="43.37571" lon="6.13237">
        <ele>353.79998779297</ele>
        <time>2016-03-09T14:39:26Z</time>
      </trkpt>
      <trkpt lat="43.37569" lon="6.13271">
        <ele>354.79998779297</ele>
        <time>2016-03-09T14:39:39Z</time>
      </trkpt>
      <trkpt lat="43.37568" lon="6.13299">
        <ele>355.60000610352</ele>
        <time>2016-03-09T14:39:50Z</time>
      </trkpt>
      <trkpt lat="43.37567" lon="6.13304">
        <ele>356</ele>
        <time>2016-03-09T14:39:52Z</time>
      </trkpt>
      <trkpt lat="43.37569" lon="6.13321">
        <ele>357</ele>
        <time>2016-03-09T14:40:02Z</time>
      </trkpt>
      <trkpt lat="43.37569" lon="6.13325">
        <ele>357.20001220703</ele>
        <time>2016-03-09T14:40:13Z</time>
      </trkpt>
      <trkpt lat="43.37569" lon="6.13325">
        <ele>357.60000610352</ele>
        <time>2016-03-09T14:40:16Z</time>
      </trkpt>
      <trkpt lat="43.37569" lon="6.13325">
        <ele>357.60000610352</ele>
        <time>2016-03-09T14:40:20Z</time>
      </trkpt>
      <trkpt lat="43.37568" lon="6.13327">
        <ele>358.20001220703</ele>
        <time>2016-03-09T14:40:25Z</time>
      </trkpt>
      <trkpt lat="43.3756" lon="6.13338">
        <ele>357.79998779297</ele>
        <time>2016-03-09T14:40:39Z</time>
      </trkpt>
      <trkpt lat="43.3755" lon="6.13347">
        <ele>358.39999389648</ele>
        <time>2016-03-09T14:40:47Z</time>
      </trkpt>
      <trkpt lat="43.37543" lon="6.1336">
        <ele>358.20001220703</ele>
        <time>2016-03-09T14:40:54Z</time>
      </trkpt>
      <trkpt lat="43.37529" lon="6.13403">
        <ele>359.39999389648</ele>
        <time>2016-03-09T14:41:13Z</time>
      </trkpt>
      <trkpt lat="43.37526" lon="6.13408">
        <ele>359.60000610352</ele>
        <time>2016-03-09T14:41:15Z</time>
      </trkpt>
      <trkpt lat="43.37524" lon="6.13412">
        <ele>359.39999389648</ele>
        <time>2016-03-09T14:41:17Z</time>
      </trkpt>
      <trkpt lat="43.37523" lon="6.13416">
        <ele>359.60000610352</ele>
        <time>2016-03-09T14:41:19Z</time>
      </trkpt>
      <trkpt lat="43.37521" lon="6.13423">
        <ele>360.20001220703</ele>
        <time>2016-03-09T14:41:23Z</time>
      </trkpt>
      <trkpt lat="43.37517" lon="6.13438">
        <ele>360.39999389648</ele>
        <time>2016-03-09T14:41:30Z</time>
      </trkpt>
      <trkpt lat="43.37519" lon="6.13449">
        <ele>360.60000610352</ele>
        <time>2016-03-09T14:41:35Z</time>
      </trkpt>
      <trkpt lat="43.37521" lon="6.13464">
        <ele>361.20001220703</ele>
        <time>2016-03-09T14:41:48Z</time>
      </trkpt>
      <trkpt lat="43.37521" lon="6.13465">
        <ele>361.20001220703</ele>
        <time>2016-03-09T14:41:56Z</time>
      </trkpt>
      <trkpt lat="43.37521" lon="6.13465">
        <ele>361.39999389648</ele>
        <time>2016-03-09T14:42:01Z</time>
      </trkpt>
      <trkpt lat="43.37521" lon="6.13465">
        <ele>361.20001220703</ele>
        <time>2016-03-09T14:42:04Z</time>
      </trkpt>
      <trkpt lat="43.37521" lon="6.13465">
        <ele>361.39999389648</ele>
        <time>2016-03-09T14:42:07Z</time>
      </trkpt>
      <trkpt lat="43.37521" lon="6.13465">
        <ele>361.39999389648</ele>
        <time>2016-03-09T14:42:12Z</time>
      </trkpt>
      <trkpt lat="43.37521" lon="6.13465">
        <ele>361.20001220703</ele>
        <time>2016-03-09T14:42:14Z</time>
      </trkpt>
      <trkpt lat="43.37521" lon="6.13465">
        <ele>361.20001220703</ele>
        <time>2016-03-09T14:42:18Z</time>
      </trkpt>
      <trkpt lat="43.37521" lon="6.13465">
        <ele>361.79998779297</ele>
        <time>2016-03-09T14:42:38Z</time>
      </trkpt>
      <trkpt lat="43.37521" lon="6.13465">
        <ele>361.60000610352</ele>
        <time>2016-03-09T14:42:44Z</time>
      </trkpt>
      <trkpt lat="43.37521" lon="6.13465">
        <ele>361.79998779297</ele>
        <time>2016-03-09T14:43:07Z</time>
      </trkpt>
      <trkpt lat="43.37521" lon="6.13465">
        <ele>360.79998779297</ele>
        <time>2016-03-09T14:43:13Z</time>
      </trkpt>
      <trkpt lat="43.37521" lon="6.13465">
        <ele>360.79998779297</ele>
        <time>2016-03-09T14:43:20Z</time>
      </trkpt>
      <trkpt lat="43.37521" lon="6.13465">
        <ele>361</ele>
        <time>2016-03-09T14:43:34Z</time>
      </trkpt>
      <trkpt lat="43.37521" lon="6.13465">
        <ele>361.60000610352</ele>
        <time>2016-03-09T14:43:42Z</time>
      </trkpt>
      <trkpt lat="43.37522" lon="6.1347">
        <ele>361.39999389648</ele>
        <time>2016-03-09T14:43:55Z</time>
      </trkpt>
      <trkpt lat="43.37522" lon="6.1349">
        <ele>361.79998779297</ele>
        <time>2016-03-09T14:44:03Z</time>
      </trkpt>
      <trkpt lat="43.37523" lon="6.13494">
        <ele>362.20001220703</ele>
        <time>2016-03-09T14:44:05Z</time>
      </trkpt>
      <trkpt lat="43.37523" lon="6.13501">
        <ele>362.60000610352</ele>
        <time>2016-03-09T14:44:08Z</time>
      </trkpt>
      <trkpt lat="43.37524" lon="6.13506">
        <ele>362.79998779297</ele>
        <time>2016-03-09T14:44:10Z</time>
      </trkpt>
      <trkpt lat="43.37525" lon="6.13516">
        <ele>363.60000610352</ele>
        <time>2016-03-09T14:44:14Z</time>
      </trkpt>
      <trkpt lat="43.37526" lon="6.13527">
        <ele>363.60000610352</ele>
        <time>2016-03-09T14:44:18Z</time>
      </trkpt>
      <trkpt lat="43.37526" lon="6.13537">
        <ele>364.79998779297</ele>
        <time>2016-03-09T14:44:22Z</time>
      </trkpt>
      <trkpt lat="43.37526" lon="6.13553">
        <ele>364.79998779297</ele>
        <time>2016-03-09T14:44:28Z</time>
      </trkpt>
      <trkpt lat="43.37533" lon="6.13579">
        <ele>365.79998779297</ele>
        <time>2016-03-09T14:44:39Z</time>
      </trkpt>
      <trkpt lat="43.37539" lon="6.136">
        <ele>367</ele>
        <time>2016-03-09T14:44:49Z</time>
      </trkpt>
      <trkpt lat="43.37546" lon="6.13624">
        <ele>368</ele>
        <time>2016-03-09T14:45:00Z</time>
      </trkpt>
      <trkpt lat="43.37552" lon="6.13656">
        <ele>369.39999389648</ele>
        <time>2016-03-09T14:45:14Z</time>
      </trkpt>
      <trkpt lat="43.37553" lon="6.13676">
        <ele>369.60000610352</ele>
        <time>2016-03-09T14:45:22Z</time>
      </trkpt>
      <trkpt lat="43.37554" lon="6.13698">
        <ele>370</ele>
        <time>2016-03-09T14:45:30Z</time>
      </trkpt>
      <trkpt lat="43.37556" lon="6.13707">
        <ele>370.39999389648</ele>
        <time>2016-03-09T14:45:34Z</time>
      </trkpt>
      <trkpt lat="43.37559" lon="6.13718">
        <ele>371.20001220703</ele>
        <time>2016-03-09T14:45:39Z</time>
      </trkpt>
      <trkpt lat="43.37559" lon="6.1372">
        <ele>371.39999389648</ele>
        <time>2016-03-09T14:45:40Z</time>
      </trkpt>
      <trkpt lat="43.37561" lon="6.13729">
        <ele>371.79998779297</ele>
        <time>2016-03-09T14:45:44Z</time>
      </trkpt>
      <trkpt lat="43.37563" lon="6.13744">
        <ele>372.39999389648</ele>
        <time>2016-03-09T14:45:50Z</time>
      </trkpt>
      <trkpt lat="43.37563" lon="6.13746">
        <ele>372.60000610352</ele>
        <time>2016-03-09T14:45:51Z</time>
      </trkpt>
      <trkpt lat="43.37566" lon="6.13765">
        <ele>373.79998779297</ele>
        <time>2016-03-09T14:45:59Z</time>
      </trkpt>
      <trkpt lat="43.37568" lon="6.13797">
        <ele>374.79998779297</ele>
        <time>2016-03-09T14:46:12Z</time>
      </trkpt>
      <trkpt lat="43.37567" lon="6.13818">
        <ele>375</ele>
        <time>2016-03-09T14:46:20Z</time>
      </trkpt>
      <trkpt lat="43.37563" lon="6.1384">
        <ele>375.20001220703</ele>
        <time>2016-03-09T14:46:28Z</time>
      </trkpt>
      <trkpt lat="43.3756" lon="6.13859">
        <ele>375.39999389648</ele>
        <time>2016-03-09T14:46:35Z</time>
      </trkpt>
      <trkpt lat="43.37558" lon="6.1388">
        <ele>375.39999389648</ele>
        <time>2016-03-09T14:46:42Z</time>
      </trkpt>
      <trkpt lat="43.3755" lon="6.13921">
        <ele>376.20001220703</ele>
        <time>2016-03-09T14:46:57Z</time>
      </trkpt>
      <trkpt lat="43.37542" lon="6.1395">
        <ele>377.39999389648</ele>
        <time>2016-03-09T14:47:08Z</time>
      </trkpt>
      <trkpt lat="43.37537" lon="6.13961">
        <ele>378</ele>
        <time>2016-03-09T14:47:13Z</time>
      </trkpt>
      <trkpt lat="43.37534" lon="6.13968">
        <ele>378.60000610352</ele>
        <time>2016-03-09T14:47:17Z</time>
      </trkpt>
      <trkpt lat="43.37534" lon="6.1398">
        <ele>379.20001220703</ele>
        <time>2016-03-09T14:47:24Z</time>
      </trkpt>
      <trkpt lat="43.37533" lon="6.13991">
        <ele>379.60000610352</ele>
        <time>2016-03-09T14:47:28Z</time>
      </trkpt>
      <trkpt lat="43.3753" lon="6.14017">
        <ele>380.79998779297</ele>
        <time>2016-03-09T14:47:41Z</time>
      </trkpt>
      <trkpt lat="43.37521" lon="6.14037">
        <ele>381.79998779297</ele>
        <time>2016-03-09T14:47:52Z</time>
      </trkpt>
      <trkpt lat="43.37514" lon="6.14052">
        <ele>382.79998779297</ele>
        <time>2016-03-09T14:48:00Z</time>
      </trkpt>
      <trkpt lat="43.37512" lon="6.14059">
        <ele>383</ele>
        <time>2016-03-09T14:48:04Z</time>
      </trkpt>
      <trkpt lat="43.37511" lon="6.14068">
        <ele>383</ele>
        <time>2016-03-09T14:48:08Z</time>
      </trkpt>
      <trkpt lat="43.37511" lon="6.14077">
        <ele>383.79998779297</ele>
        <time>2016-03-09T14:48:12Z</time>
      </trkpt>
      <trkpt lat="43.3751" lon="6.14083">
        <ele>384</ele>
        <time>2016-03-09T14:48:15Z</time>
      </trkpt>
      <trkpt lat="43.3751" lon="6.14093">
        <ele>385</ele>
        <time>2016-03-09T14:48:20Z</time>
      </trkpt>
      <trkpt lat="43.37499" lon="6.14116">
        <ele>386.39999389648</ele>
        <time>2016-03-09T14:48:34Z</time>
      </trkpt>
      <trkpt lat="43.37491" lon="6.14129">
        <ele>387.39999389648</ele>
        <time>2016-03-09T14:48:43Z</time>
      </trkpt>
      <trkpt lat="43.37486" lon="6.14136">
        <ele>388</ele>
        <time>2016-03-09T14:48:48Z</time>
      </trkpt>
      <trkpt lat="43.37483" lon="6.14139">
        <ele>388.60000610352</ele>
        <time>2016-03-09T14:48:50Z</time>
      </trkpt>
      <trkpt lat="43.37481" lon="6.14143">
        <ele>388.60000610352</ele>
        <time>2016-03-09T14:48:53Z</time>
      </trkpt>
      <trkpt lat="43.37471" lon="6.14154">
        <ele>389.60000610352</ele>
        <time>2016-03-09T14:49:03Z</time>
      </trkpt>
      <trkpt lat="43.3747" lon="6.14155">
        <ele>390</ele>
        <time>2016-03-09T14:49:04Z</time>
      </trkpt>
      <trkpt lat="43.37467" lon="6.14157">
        <ele>390.60000610352</ele>
        <time>2016-03-09T14:49:07Z</time>
      </trkpt>
      <trkpt lat="43.37466" lon="6.14158">
        <ele>390.79998779297</ele>
        <time>2016-03-09T14:49:08Z</time>
      </trkpt>
      <trkpt lat="43.37458" lon="6.14159">
        <ele>391.79998779297</ele>
        <time>2016-03-09T14:49:15Z</time>
      </trkpt>
      <trkpt lat="43.37449" lon="6.14163">
        <ele>392.39999389648</ele>
        <time>2016-03-09T14:49:22Z</time>
      </trkpt>
      <trkpt lat="43.37448" lon="6.14164">
        <ele>392.39999389648</ele>
        <time>2016-03-09T14:49:23Z</time>
      </trkpt>
      <trkpt lat="43.37439" lon="6.14171">
        <ele>393.20001220703</ele>
        <time>2016-03-09T14:49:31Z</time>
      </trkpt>
      <trkpt lat="43.37431" lon="6.14173">
        <ele>394.79998779297</ele>
        <time>2016-03-09T14:49:37Z</time>
      </trkpt>
      <trkpt lat="43.37427" lon="6.14175">
        <ele>395.39999389648</ele>
        <time>2016-03-09T14:49:40Z</time>
      </trkpt>
      <trkpt lat="43.37426" lon="6.14176">
        <ele>395.60000610352</ele>
        <time>2016-03-09T14:49:41Z</time>
      </trkpt>
      <trkpt lat="43.37424" lon="6.14177">
        <ele>395.79998779297</ele>
        <time>2016-03-09T14:49:43Z</time>
      </trkpt>
      <trkpt lat="43.37422" lon="6.14179">
        <ele>396</ele>
        <time>2016-03-09T14:49:45Z</time>
      </trkpt>
      <trkpt lat="43.37419" lon="6.1418">
        <ele>397</ele>
        <time>2016-03-09T14:49:48Z</time>
      </trkpt>
      <trkpt lat="43.37415" lon="6.14182">
        <ele>397.39999389648</ele>
        <time>2016-03-09T14:49:55Z</time>
      </trkpt>
      <trkpt lat="43.37415" lon="6.14182">
        <ele>397.39999389648</ele>
        <time>2016-03-09T14:49:58Z</time>
      </trkpt>
      <trkpt lat="43.37415" lon="6.14182">
        <ele>397.39999389648</ele>
        <time>2016-03-09T14:50:01Z</time>
      </trkpt>
      <trkpt lat="43.37415" lon="6.14182">
        <ele>397.39999389648</ele>
        <time>2016-03-09T14:50:07Z</time>
      </trkpt>
      <trkpt lat="43.37415" lon="6.14182">
        <ele>397.39999389648</ele>
        <time>2016-03-09T14:50:10Z</time>
      </trkpt>
      <trkpt lat="43.37412" lon="6.14182">
        <ele>398</ele>
        <time>2016-03-09T14:50:23Z</time>
      </trkpt>
      <trkpt lat="43.37412" lon="6.14182">
        <ele>398</ele>
        <time>2016-03-09T14:50:25Z</time>
      </trkpt>
      <trkpt lat="43.37412" lon="6.14182">
        <ele>398</ele>
        <time>2016-03-09T14:50:27Z</time>
      </trkpt>
      <trkpt lat="43.37412" lon="6.14182">
        <ele>398.20001220703</ele>
        <time>2016-03-09T14:50:29Z</time>
      </trkpt>
      <trkpt lat="43.37412" lon="6.14182">
        <ele>398</ele>
        <time>2016-03-09T14:50:39Z</time>
      </trkpt>
      <trkpt lat="43.37412" lon="6.14182">
        <ele>397.79998779297</ele>
        <time>2016-03-09T14:50:44Z</time>
      </trkpt>
      <trkpt lat="43.37408" lon="6.14183">
        <ele>398.20001220703</ele>
        <time>2016-03-09T14:50:55Z</time>
      </trkpt>
      <trkpt lat="43.37406" lon="6.14185">
        <ele>398.39999389648</ele>
        <time>2016-03-09T14:50:57Z</time>
      </trkpt>
      <trkpt lat="43.37404" lon="6.14186">
        <ele>398.79998779297</ele>
        <time>2016-03-09T14:50:59Z</time>
      </trkpt>
      <trkpt lat="43.37403" lon="6.14187">
        <ele>399.20001220703</ele>
        <time>2016-03-09T14:51:00Z</time>
      </trkpt>
      <trkpt lat="43.37398" lon="6.14189">
        <ele>399.60000610352</ele>
        <time>2016-03-09T14:51:04Z</time>
      </trkpt>
      <trkpt lat="43.37395" lon="6.14189">
        <ele>400.20001220703</ele>
        <time>2016-03-09T14:51:06Z</time>
      </trkpt>
      <trkpt lat="43.37394" lon="6.14189">
        <ele>400.60000610352</ele>
        <time>2016-03-09T14:51:07Z</time>
      </trkpt>
      <trkpt lat="43.37381" lon="6.14188">
        <ele>400.60000610352</ele>
        <time>2016-03-09T14:51:16Z</time>
      </trkpt>
      <trkpt lat="43.3737" lon="6.14196">
        <ele>401.60000610352</ele>
        <time>2016-03-09T14:51:25Z</time>
      </trkpt>
      <trkpt lat="43.37365" lon="6.14202">
        <ele>402.39999389648</ele>
        <time>2016-03-09T14:51:30Z</time>
      </trkpt>
      <trkpt lat="43.37363" lon="6.14205">
        <ele>402.79998779297</ele>
        <time>2016-03-09T14:51:32Z</time>
      </trkpt>
      <trkpt lat="43.37361" lon="6.14208">
        <ele>403</ele>
        <time>2016-03-09T14:51:34Z</time>
      </trkpt>
      <trkpt lat="43.37359" lon="6.14214">
        <ele>403.79998779297</ele>
        <time>2016-03-09T14:51:38Z</time>
      </trkpt>
      <trkpt lat="43.37354" lon="6.14227">
        <ele>404</ele>
        <time>2016-03-09T14:51:46Z</time>
      </trkpt>
      <trkpt lat="43.37354" lon="6.14229">
        <ele>404.20001220703</ele>
        <time>2016-03-09T14:51:51Z</time>
      </trkpt>
      <trkpt lat="43.37354" lon="6.14229">
        <ele>404.20001220703</ele>
        <time>2016-03-09T14:51:54Z</time>
      </trkpt>
      <trkpt lat="43.37354" lon="6.14229">
        <ele>404.39999389648</ele>
        <time>2016-03-09T14:51:57Z</time>
      </trkpt>
      <trkpt lat="43.37354" lon="6.14229">
        <ele>404.60000610352</ele>
        <time>2016-03-09T14:52:00Z</time>
      </trkpt>
      <trkpt lat="43.37354" lon="6.14229">
        <ele>404.39999389648</ele>
        <time>2016-03-09T14:52:04Z</time>
      </trkpt>
      <trkpt lat="43.37354" lon="6.1423">
        <ele>404.39999389648</ele>
        <time>2016-03-09T14:52:06Z</time>
      </trkpt>
      <trkpt lat="43.37354" lon="6.1423">
        <ele>404.39999389648</ele>
        <time>2016-03-09T14:52:08Z</time>
      </trkpt>
      <trkpt lat="43.37354" lon="6.1423">
        <ele>404.39999389648</ele>
        <time>2016-03-09T14:52:11Z</time>
      </trkpt>
      <trkpt lat="43.37354" lon="6.1423">
        <ele>404.20001220703</ele>
        <time>2016-03-09T14:52:13Z</time>
      </trkpt>
      <trkpt lat="43.37354" lon="6.1423">
        <ele>404.20001220703</ele>
        <time>2016-03-09T14:52:16Z</time>
      </trkpt>
      <trkpt lat="43.37354" lon="6.1423">
        <ele>404.39999389648</ele>
        <time>2016-03-09T14:52:20Z</time>
      </trkpt>
      <trkpt lat="43.37354" lon="6.1423">
        <ele>404.60000610352</ele>
        <time>2016-03-09T14:52:22Z</time>
      </trkpt>
      <trkpt lat="43.37354" lon="6.1423">
        <ele>404.60000610352</ele>
        <time>2016-03-09T14:52:27Z</time>
      </trkpt>
      <trkpt lat="43.37354" lon="6.1423">
        <ele>404.39999389648</ele>
        <time>2016-03-09T14:52:34Z</time>
      </trkpt>
      <trkpt lat="43.37354" lon="6.1423">
        <ele>404.60000610352</ele>
        <time>2016-03-09T14:52:56Z</time>
      </trkpt>
      <trkpt lat="43.37354" lon="6.1423">
        <ele>404.60000610352</ele>
        <time>2016-03-09T14:53:11Z</time>
      </trkpt>
      <trkpt lat="43.37354" lon="6.1423">
        <ele>404.60000610352</ele>
        <time>2016-03-09T14:53:14Z</time>
      </trkpt>
      <trkpt lat="43.37354" lon="6.1423">
        <ele>404.60000610352</ele>
        <time>2016-03-09T14:53:21Z</time>
      </trkpt>
      <trkpt lat="43.37354" lon="6.14231">
        <ele>404.39999389648</ele>
        <time>2016-03-09T14:53:29Z</time>
      </trkpt>
      <trkpt lat="43.37354" lon="6.14231">
        <ele>404.39999389648</ele>
        <time>2016-03-09T14:54:16Z</time>
      </trkpt>
      <trkpt lat="43.37354" lon="6.14231">
        <ele>404.20001220703</ele>
        <time>2016-03-09T14:54:45Z</time>
      </trkpt>
      <trkpt lat="43.37354" lon="6.14231">
        <ele>404.39999389648</ele>
        <time>2016-03-09T14:54:57Z</time>
      </trkpt>
      <trkpt lat="43.37354" lon="6.14231">
        <ele>404.39999389648</ele>
        <time>2016-03-09T14:55:01Z</time>
      </trkpt>
      <trkpt lat="43.37354" lon="6.14231">
        <ele>404.39999389648</ele>
        <time>2016-03-09T14:55:10Z</time>
      </trkpt>
      <trkpt lat="43.37354" lon="6.14231">
        <ele>404.39999389648</ele>
        <time>2016-03-09T14:55:15Z</time>
      </trkpt>
      <trkpt lat="43.37354" lon="6.14231">
        <ele>404.39999389648</ele>
        <time>2016-03-09T14:55:29Z</time>
      </trkpt>
      <trkpt lat="43.37354" lon="6.14231">
        <ele>404.79998779297</ele>
        <time>2016-03-09T14:55:35Z</time>
      </trkpt>
      <trkpt lat="43.37354" lon="6.14231">
        <ele>404.79998779297</ele>
        <time>2016-03-09T14:56:05Z</time>
      </trkpt>
      <trkpt lat="43.37354" lon="6.14231">
        <ele>404.79998779297</ele>
        <time>2016-03-09T14:56:13Z</time>
      </trkpt>
      <trkpt lat="43.37354" lon="6.14231">
        <ele>404.60000610352</ele>
        <time>2016-03-09T14:56:20Z</time>
      </trkpt>
      <trkpt lat="43.37354" lon="6.14231">
        <ele>404.79998779297</ele>
        <time>2016-03-09T14:56:38Z</time>
      </trkpt>
      <trkpt lat="43.37353" lon="6.14233">
        <ele>404.79998779297</ele>
        <time>2016-03-09T14:56:55Z</time>
      </trkpt>
      <trkpt lat="43.37348" lon="6.1424">
        <ele>404.79998779297</ele>
        <time>2016-03-09T14:57:00Z</time>
      </trkpt>
      <trkpt lat="43.37336" lon="6.14254">
        <ele>403.79998779297</ele>
        <time>2016-03-09T14:57:09Z</time>
      </trkpt>
      <trkpt lat="43.37325" lon="6.14265">
        <ele>402.60000610352</ele>
        <time>2016-03-09T14:57:13Z</time>
      </trkpt>
      <trkpt lat="43.37319" lon="6.14272">
        <ele>400.60000610352</ele>
        <time>2016-03-09T14:57:15Z</time>
      </trkpt>
      <trkpt lat="43.37315" lon="6.14277">
        <ele>399.39999389648</ele>
        <time>2016-03-09T14:57:17Z</time>
      </trkpt>
      <trkpt lat="43.3731" lon="6.14281">
        <ele>398.20001220703</ele>
        <time>2016-03-09T14:57:19Z</time>
      </trkpt>
      <trkpt lat="43.37302" lon="6.14285">
        <ele>397.20001220703</ele>
        <time>2016-03-09T14:57:21Z</time>
      </trkpt>
      <trkpt lat="43.37298" lon="6.14287">
        <ele>396.39999389648</ele>
        <time>2016-03-09T14:57:22Z</time>
      </trkpt>
      <trkpt lat="43.37289" lon="6.14293">
        <ele>395.60000610352</ele>
        <time>2016-03-09T14:57:24Z</time>
      </trkpt>
      <trkpt lat="43.37285" lon="6.14296">
        <ele>394.79998779297</ele>
        <time>2016-03-09T14:57:25Z</time>
      </trkpt>
      <trkpt lat="43.37277" lon="6.14304">
        <ele>393.39999389648</ele>
        <time>2016-03-09T14:57:27Z</time>
      </trkpt>
      <trkpt lat="43.37268" lon="6.14312">
        <ele>392.20001220703</ele>
        <time>2016-03-09T14:57:29Z</time>
      </trkpt>
      <trkpt lat="43.3726" lon="6.14319">
        <ele>390.39999389648</ele>
        <time>2016-03-09T14:57:31Z</time>
      </trkpt>
      <trkpt lat="43.37252" lon="6.14319">
        <ele>390.20001220703</ele>
        <time>2016-03-09T14:57:33Z</time>
      </trkpt>
      <trkpt lat="43.3724" lon="6.14313">
        <ele>389</ele>
        <time>2016-03-09T14:57:36Z</time>
      </trkpt>
      <trkpt lat="43.3722" lon="6.14323">
        <ele>388.20001220703</ele>
        <time>2016-03-09T14:57:41Z</time>
      </trkpt>
      <trkpt lat="43.37215" lon="6.14326">
        <ele>387.79998779297</ele>
        <time>2016-03-09T14:57:42Z</time>
      </trkpt>
      <trkpt lat="43.37202" lon="6.14337">
        <ele>386</ele>
        <time>2016-03-09T14:57:46Z</time>
      </trkpt>
      <trkpt lat="43.3719" lon="6.14343">
        <ele>385</ele>
        <time>2016-03-09T14:57:50Z</time>
      </trkpt>
      <trkpt lat="43.37187" lon="6.14345">
        <ele>384</ele>
        <time>2016-03-09T14:57:52Z</time>
      </trkpt>
      <trkpt lat="43.3718" lon="6.14356">
        <ele>383.60000610352</ele>
        <time>2016-03-09T14:57:56Z</time>
      </trkpt>
      <trkpt lat="43.37171" lon="6.14369">
        <ele>384.39999389648</ele>
        <time>2016-03-09T14:58:01Z</time>
      </trkpt>
      <trkpt lat="43.37161" lon="6.14366">
        <ele>384</ele>
        <time>2016-03-09T14:58:05Z</time>
      </trkpt>
      <trkpt lat="43.37154" lon="6.14364">
        <ele>383.20001220703</ele>
        <time>2016-03-09T14:58:09Z</time>
      </trkpt>
      <trkpt lat="43.37151" lon="6.14364">
        <ele>383.60000610352</ele>
        <time>2016-03-09T14:58:12Z</time>
      </trkpt>
      <trkpt lat="43.37135" lon="6.14367">
        <ele>383.60000610352</ele>
        <time>2016-03-09T14:58:21Z</time>
      </trkpt>
      <trkpt lat="43.37133" lon="6.14367">
        <ele>383.79998779297</ele>
        <time>2016-03-09T14:58:22Z</time>
      </trkpt>
      <trkpt lat="43.37085" lon="6.14333">
        <ele>383</ele>
        <time>2016-03-09T14:58:38Z</time>
      </trkpt>
      <trkpt lat="43.37081" lon="6.14307">
        <ele>383</ele>
        <time>2016-03-09T14:58:42Z</time>
      </trkpt>
      <trkpt lat="43.37075" lon="6.14293">
        <ele>381.79998779297</ele>
        <time>2016-03-09T14:58:44Z</time>
      </trkpt>
      <trkpt lat="43.37072" lon="6.14285">
        <ele>381.60000610352</ele>
        <time>2016-03-09T14:58:45Z</time>
      </trkpt>
      <trkpt lat="43.37067" lon="6.14262">
        <ele>381</ele>
        <time>2016-03-09T14:58:48Z</time>
      </trkpt>
      <trkpt lat="43.37063" lon="6.14238">
        <ele>380.79998779297</ele>
        <time>2016-03-09T14:58:51Z</time>
      </trkpt>
      <trkpt lat="43.37062" lon="6.1423">
        <ele>380.39999389648</ele>
        <time>2016-03-09T14:58:52Z</time>
      </trkpt>
      <trkpt lat="43.37055" lon="6.142">
        <ele>379.79998779297</ele>
        <time>2016-03-09T14:58:56Z</time>
      </trkpt>
      <trkpt lat="43.37051" lon="6.14194">
        <ele>379.39999389648</ele>
        <time>2016-03-09T14:58:57Z</time>
      </trkpt>
      <trkpt lat="43.37034" lon="6.14166">
        <ele>379.39999389648</ele>
        <time>2016-03-09T14:59:02Z</time>
      </trkpt>
      <trkpt lat="43.37025" lon="6.14143">
        <ele>377.79998779297</ele>
        <time>2016-03-09T14:59:05Z</time>
      </trkpt>
      <trkpt lat="43.37022" lon="6.14137">
        <ele>377.39999389648</ele>
        <time>2016-03-09T14:59:06Z</time>
      </trkpt>
      <trkpt lat="43.37013" lon="6.14122">
        <ele>376.39999389648</ele>
        <time>2016-03-09T14:59:08Z</time>
      </trkpt>
      <trkpt lat="43.36975" lon="6.14097">
        <ele>375.79998779297</ele>
        <time>2016-03-09T14:59:15Z</time>
      </trkpt>
      <trkpt lat="43.36971" lon="6.14097">
        <ele>375.39999389648</ele>
        <time>2016-03-09T14:59:16Z</time>
      </trkpt>
      <trkpt lat="43.3695" lon="6.14103">
        <ele>375.60000610352</ele>
        <time>2016-03-09T14:59:21Z</time>
      </trkpt>
      <trkpt lat="43.36948" lon="6.14106">
        <ele>376.39999389648</ele>
        <time>2016-03-09T14:59:22Z</time>
      </trkpt>
      <trkpt lat="43.36938" lon="6.14114">
        <ele>377.20001220703</ele>
        <time>2016-03-09T14:59:25Z</time>
      </trkpt>
      <trkpt lat="43.36936" lon="6.14115">
        <ele>377.39999389648</ele>
        <time>2016-03-09T14:59:26Z</time>
      </trkpt>
      <trkpt lat="43.36933" lon="6.14114">
        <ele>377.79998779297</ele>
        <time>2016-03-09T14:59:27Z</time>
      </trkpt>
      <trkpt lat="43.36924" lon="6.14109">
        <ele>378.60000610352</ele>
        <time>2016-03-09T14:59:31Z</time>
      </trkpt>
      <trkpt lat="43.36917" lon="6.14109">
        <ele>379.60000610352</ele>
        <time>2016-03-09T14:59:35Z</time>
      </trkpt>
      <trkpt lat="43.36915" lon="6.1411">
        <ele>379.79998779297</ele>
        <time>2016-03-09T14:59:42Z</time>
      </trkpt>
      <trkpt lat="43.36915" lon="6.1411">
        <ele>380.20001220703</ele>
        <time>2016-03-09T14:59:52Z</time>
      </trkpt>
      <trkpt lat="43.36915" lon="6.1411">
        <ele>380.60000610352</ele>
        <time>2016-03-09T14:59:57Z</time>
      </trkpt>
      <trkpt lat="43.36915" lon="6.1411">
        <ele>380.39999389648</ele>
        <time>2016-03-09T15:00:04Z</time>
      </trkpt>
      <trkpt lat="43.36915" lon="6.1411">
        <ele>380.20001220703</ele>
        <time>2016-03-09T15:00:10Z</time>
      </trkpt>
      <trkpt lat="43.36915" lon="6.1411">
        <ele>380.39999389648</ele>
        <time>2016-03-09T15:00:16Z</time>
      </trkpt>
      <trkpt lat="43.36915" lon="6.1411">
        <ele>380.60000610352</ele>
        <time>2016-03-09T15:00:19Z</time>
      </trkpt>
      <trkpt lat="43.36915" lon="6.1411">
        <ele>380</ele>
        <time>2016-03-09T15:00:43Z</time>
      </trkpt>
      <trkpt lat="43.36913" lon="6.14111">
        <ele>379.60000610352</ele>
        <time>2016-03-09T15:00:57Z</time>
      </trkpt>
      <trkpt lat="43.36911" lon="6.14111">
        <ele>379.39999389648</ele>
        <time>2016-03-09T15:00:58Z</time>
      </trkpt>
      <trkpt lat="43.36898" lon="6.14119">
        <ele>378.39999389648</ele>
        <time>2016-03-09T15:01:02Z</time>
      </trkpt>
      <trkpt lat="43.36893" lon="6.14117">
        <ele>377.79998779297</ele>
        <time>2016-03-09T15:01:03Z</time>
      </trkpt>
      <trkpt lat="43.3689" lon="6.14112">
        <ele>376.60000610352</ele>
        <time>2016-03-09T15:01:04Z</time>
      </trkpt>
      <trkpt lat="43.36884" lon="6.14099">
        <ele>375.20001220703</ele>
        <time>2016-03-09T15:01:06Z</time>
      </trkpt>
      <trkpt lat="43.36877" lon="6.14068">
        <ele>374.60000610352</ele>
        <time>2016-03-09T15:01:10Z</time>
      </trkpt>
      <trkpt lat="43.36874" lon="6.14054">
        <ele>373.79998779297</ele>
        <time>2016-03-09T15:01:12Z</time>
      </trkpt>
      <trkpt lat="43.36872" lon="6.14047">
        <ele>372.79998779297</ele>
        <time>2016-03-09T15:01:13Z</time>
      </trkpt>
      <trkpt lat="43.36869" lon="6.14041">
        <ele>371.79998779297</ele>
        <time>2016-03-09T15:01:14Z</time>
      </trkpt>
      <trkpt lat="43.36866" lon="6.14026">
        <ele>370.79998779297</ele>
        <time>2016-03-09T15:01:16Z</time>
      </trkpt>
      <trkpt lat="43.36864" lon="6.14017">
        <ele>370.20001220703</ele>
        <time>2016-03-09T15:01:17Z</time>
      </trkpt>
      <trkpt lat="43.36864" lon="6.14008">
        <ele>369</ele>
        <time>2016-03-09T15:01:18Z</time>
      </trkpt>
      <trkpt lat="43.36862" lon="6.13991">
        <ele>367.60000610352</ele>
        <time>2016-03-09T15:01:20Z</time>
      </trkpt>
      <trkpt lat="43.36861" lon="6.13985">
        <ele>367</ele>
        <time>2016-03-09T15:01:21Z</time>
      </trkpt>
      <trkpt lat="43.36858" lon="6.1398">
        <ele>366.39999389648</ele>
        <time>2016-03-09T15:01:22Z</time>
      </trkpt>
      <trkpt lat="43.36845" lon="6.13969">
        <ele>365.20001220703</ele>
        <time>2016-03-09T15:01:26Z</time>
      </trkpt>
      <trkpt lat="43.3684" lon="6.13964">
        <ele>365</ele>
        <time>2016-03-09T15:01:29Z</time>
      </trkpt>
      <trkpt lat="43.36837" lon="6.13961">
        <ele>364.79998779297</ele>
        <time>2016-03-09T15:01:32Z</time>
      </trkpt>
      <trkpt lat="43.36832" lon="6.13957">
        <ele>365</ele>
        <time>2016-03-09T15:01:58Z</time>
      </trkpt>
      <trkpt lat="43.36832" lon="6.13957">
        <ele>365</ele>
        <time>2016-03-09T15:02:01Z</time>
      </trkpt>
      <trkpt lat="43.36828" lon="6.13956">
        <ele>365.20001220703</ele>
        <time>2016-03-09T15:02:38Z</time>
      </trkpt>
      <trkpt lat="43.36827" lon="6.13957">
        <ele>365.39999389648</ele>
        <time>2016-03-09T15:02:48Z</time>
      </trkpt>
      <trkpt lat="43.36826" lon="6.13959">
        <ele>365.79998779297</ele>
        <time>2016-03-09T15:02:50Z</time>
      </trkpt>
      <trkpt lat="43.36825" lon="6.13964">
        <ele>365.79998779297</ele>
        <time>2016-03-09T15:02:53Z</time>
      </trkpt>
      <trkpt lat="43.36822" lon="6.13972">
        <ele>366.39999389648</ele>
        <time>2016-03-09T15:02:57Z</time>
      </trkpt>
      <trkpt lat="43.36819" lon="6.13975">
        <ele>367.20001220703</ele>
        <time>2016-03-09T15:02:59Z</time>
      </trkpt>
      <trkpt lat="43.36818" lon="6.13976">
        <ele>367.60000610352</ele>
        <time>2016-03-09T15:03:00Z</time>
      </trkpt>
      <trkpt lat="43.36815" lon="6.13977">
        <ele>368</ele>
        <time>2016-03-09T15:03:02Z</time>
      </trkpt>
      <trkpt lat="43.3681" lon="6.1398">
        <ele>369</ele>
        <time>2016-03-09T15:03:05Z</time>
      </trkpt>
      <trkpt lat="43.36805" lon="6.13982">
        <ele>369.20001220703</ele>
        <time>2016-03-09T15:03:08Z</time>
      </trkpt>
      <trkpt lat="43.36776" lon="6.14003">
        <ele>370.20001220703</ele>
        <time>2016-03-09T15:03:25Z</time>
      </trkpt>
      <trkpt lat="43.36771" lon="6.14008">
        <ele>371.39999389648</ele>
        <time>2016-03-09T15:03:29Z</time>
      </trkpt>
      <trkpt lat="43.36766" lon="6.14011">
        <ele>372</ele>
        <time>2016-03-09T15:03:32Z</time>
      </trkpt>
      <trkpt lat="43.36763" lon="6.14012">
        <ele>372.39999389648</ele>
        <time>2016-03-09T15:03:34Z</time>
      </trkpt>
      <trkpt lat="43.3676" lon="6.14013">
        <ele>373.39999389648</ele>
        <time>2016-03-09T15:03:37Z</time>
      </trkpt>
      <trkpt lat="43.36758" lon="6.14013">
        <ele>373.79998779297</ele>
        <time>2016-03-09T15:03:38Z</time>
      </trkpt>
      <trkpt lat="43.36755" lon="6.14014">
        <ele>373.79998779297</ele>
        <time>2016-03-09T15:03:41Z</time>
      </trkpt>
      <trkpt lat="43.36751" lon="6.14014">
        <ele>373.79998779297</ele>
        <time>2016-03-09T15:03:45Z</time>
      </trkpt>
      <trkpt lat="43.36745" lon="6.14013">
        <ele>374.60000610352</ele>
        <time>2016-03-09T15:03:50Z</time>
      </trkpt>
      <trkpt lat="43.36736" lon="6.14008">
        <ele>374.79998779297</ele>
        <time>2016-03-09T15:03:56Z</time>
      </trkpt>
      <trkpt lat="43.36729" lon="6.14004">
        <ele>375</ele>
        <time>2016-03-09T15:04:00Z</time>
      </trkpt>
      <trkpt lat="43.36716" lon="6.14002">
        <ele>375.39999389648</ele>
        <time>2016-03-09T15:04:09Z</time>
      </trkpt>
      <trkpt lat="43.36711" lon="6.14004">
        <ele>375.39999389648</ele>
        <time>2016-03-09T15:04:14Z</time>
      </trkpt>
      <trkpt lat="43.36707" lon="6.14008">
        <ele>374.60000610352</ele>
        <time>2016-03-09T15:04:17Z</time>
      </trkpt>
      <trkpt lat="43.36701" lon="6.14015">
        <ele>374.60000610352</ele>
        <time>2016-03-09T15:04:22Z</time>
      </trkpt>
      <trkpt lat="43.36694" lon="6.14025">
        <ele>374.60000610352</ele>
        <time>2016-03-09T15:04:28Z</time>
      </trkpt>
      <trkpt lat="43.36687" lon="6.14033">
        <ele>374.79998779297</ele>
        <time>2016-03-09T15:04:33Z</time>
      </trkpt>
      <trkpt lat="43.36681" lon="6.14037">
        <ele>374.20001220703</ele>
        <time>2016-03-09T15:04:36Z</time>
      </trkpt>
      <trkpt lat="43.36676" lon="6.14043">
        <ele>374.20001220703</ele>
        <time>2016-03-09T15:04:39Z</time>
      </trkpt>
      <trkpt lat="43.36668" lon="6.14064">
        <ele>374.60000610352</ele>
        <time>2016-03-09T15:04:49Z</time>
      </trkpt>
      <trkpt lat="43.36664" lon="6.14072">
        <ele>374.39999389648</ele>
        <time>2016-03-09T15:04:54Z</time>
      </trkpt>
      <trkpt lat="43.36661" lon="6.14088">
        <ele>375.20001220703</ele>
        <time>2016-03-09T15:05:02Z</time>
      </trkpt>
      <trkpt lat="43.3666" lon="6.14099">
        <ele>376</ele>
        <time>2016-03-09T15:05:10Z</time>
      </trkpt>
      <trkpt lat="43.3666" lon="6.14099">
        <ele>375.79998779297</ele>
        <time>2016-03-09T15:05:22Z</time>
      </trkpt>
      <trkpt lat="43.3666" lon="6.14099">
        <ele>375.79998779297</ele>
        <time>2016-03-09T15:05:29Z</time>
      </trkpt>
      <trkpt lat="43.3666" lon="6.14099">
        <ele>376</ele>
        <time>2016-03-09T15:05:36Z</time>
      </trkpt>
      <trkpt lat="43.3666" lon="6.141">
        <ele>375.79998779297</ele>
        <time>2016-03-09T15:05:46Z</time>
      </trkpt>
      <trkpt lat="43.3666" lon="6.14108">
        <ele>376.20001220703</ele>
        <time>2016-03-09T15:05:50Z</time>
      </trkpt>
      <trkpt lat="43.36661" lon="6.14125">
        <ele>376.60000610352</ele>
        <time>2016-03-09T15:06:05Z</time>
      </trkpt>
      <trkpt lat="43.36661" lon="6.14134">
        <ele>376.79998779297</ele>
        <time>2016-03-09T15:06:09Z</time>
      </trkpt>
      <trkpt lat="43.36662" lon="6.14142">
        <ele>377</ele>
        <time>2016-03-09T15:06:12Z</time>
      </trkpt>
      <trkpt lat="43.36663" lon="6.14144">
        <ele>377.20001220703</ele>
        <time>2016-03-09T15:06:13Z</time>
      </trkpt>
      <trkpt lat="43.36665" lon="6.14157">
        <ele>377.60000610352</ele>
        <time>2016-03-09T15:06:18Z</time>
      </trkpt>
      <trkpt lat="43.36666" lon="6.14162">
        <ele>378.39999389648</ele>
        <time>2016-03-09T15:06:21Z</time>
      </trkpt>
      <trkpt lat="43.36666" lon="6.14164">
        <ele>378.60000610352</ele>
        <time>2016-03-09T15:06:22Z</time>
      </trkpt>
      <trkpt lat="43.36667" lon="6.14168">
        <ele>379</ele>
        <time>2016-03-09T15:06:26Z</time>
      </trkpt>
      <trkpt lat="43.3667" lon="6.14176">
        <ele>379.60000610352</ele>
        <time>2016-03-09T15:06:37Z</time>
      </trkpt>
      <trkpt lat="43.36672" lon="6.14184">
        <ele>379.79998779297</ele>
        <time>2016-03-09T15:06:42Z</time>
      </trkpt>
      <trkpt lat="43.36673" lon="6.14195">
        <ele>380.39999389648</ele>
        <time>2016-03-09T15:06:47Z</time>
      </trkpt>
      <trkpt lat="43.36674" lon="6.14199">
        <ele>380.79998779297</ele>
        <time>2016-03-09T15:06:49Z</time>
      </trkpt>
      <trkpt lat="43.36679" lon="6.14244">
        <ele>382</ele>
        <time>2016-03-09T15:07:06Z</time>
      </trkpt>
      <trkpt lat="43.36678" lon="6.14245">
        <ele>382</ele>
        <time>2016-03-09T15:07:07Z</time>
      </trkpt>
      <trkpt lat="43.36677" lon="6.14248">
        <ele>381.79998779297</ele>
        <time>2016-03-09T15:07:12Z</time>
      </trkpt>
      <trkpt lat="43.36677" lon="6.14248">
        <ele>381.79998779297</ele>
        <time>2016-03-09T15:07:17Z</time>
      </trkpt>
      <trkpt lat="43.36677" lon="6.14248">
        <ele>381.60000610352</ele>
        <time>2016-03-09T15:07:30Z</time>
      </trkpt>
      <trkpt lat="43.36677" lon="6.14248">
        <ele>381.79998779297</ele>
        <time>2016-03-09T15:07:33Z</time>
      </trkpt>
      <trkpt lat="43.36677" lon="6.14248">
        <ele>381.79998779297</ele>
        <time>2016-03-09T15:07:36Z</time>
      </trkpt>
      <trkpt lat="43.36677" lon="6.14261">
        <ele>382.20001220703</ele>
        <time>2016-03-09T15:07:43Z</time>
      </trkpt>
      <trkpt lat="43.36676" lon="6.14271">
        <ele>382</ele>
        <time>2016-03-09T15:07:48Z</time>
      </trkpt>
      <trkpt lat="43.36675" lon="6.14284">
        <ele>382.60000610352</ele>
        <time>2016-03-09T15:07:56Z</time>
      </trkpt>
      <trkpt lat="43.36675" lon="6.14289">
        <ele>382.79998779297</ele>
        <time>2016-03-09T15:07:58Z</time>
      </trkpt>
      <trkpt lat="43.36675" lon="6.14293">
        <ele>383.20001220703</ele>
        <time>2016-03-09T15:07:59Z</time>
      </trkpt>
      <trkpt lat="43.36674" lon="6.14299">
        <ele>383.79998779297</ele>
        <time>2016-03-09T15:08:01Z</time>
      </trkpt>
      <trkpt lat="43.36674" lon="6.14302">
        <ele>384.20001220703</ele>
        <time>2016-03-09T15:08:02Z</time>
      </trkpt>
      <trkpt lat="43.36673" lon="6.14312">
        <ele>384.20001220703</ele>
        <time>2016-03-09T15:08:05Z</time>
      </trkpt>
      <trkpt lat="43.36655" lon="6.14359">
        <ele>385.20001220703</ele>
        <time>2016-03-09T15:08:22Z</time>
      </trkpt>
      <trkpt lat="43.36637" lon="6.14385">
        <ele>386</ele>
        <time>2016-03-09T15:08:34Z</time>
      </trkpt>
      <trkpt lat="43.3663" lon="6.14391">
        <ele>386.39999389648</ele>
        <time>2016-03-09T15:08:38Z</time>
      </trkpt>
      <trkpt lat="43.36625" lon="6.14396">
        <ele>387.60000610352</ele>
        <time>2016-03-09T15:08:41Z</time>
      </trkpt>
      <trkpt lat="43.36615" lon="6.14412">
        <ele>388.60000610352</ele>
        <time>2016-03-09T15:08:49Z</time>
      </trkpt>
      <trkpt lat="43.36602" lon="6.14434">
        <ele>389.60000610352</ele>
        <time>2016-03-09T15:09:00Z</time>
      </trkpt>
      <trkpt lat="43.36597" lon="6.14454">
        <ele>390.79998779297</ele>
        <time>2016-03-09T15:09:08Z</time>
      </trkpt>
      <trkpt lat="43.36584" lon="6.14459">
        <ele>390.60000610352</ele>
        <time>2016-03-09T15:09:15Z</time>
      </trkpt>
      <trkpt lat="43.3658" lon="6.14441">
        <ele>391.20001220703</ele>
        <time>2016-03-09T15:09:22Z</time>
      </trkpt>
      <trkpt lat="43.36578" lon="6.14415">
        <ele>392.20001220703</ele>
        <time>2016-03-09T15:09:34Z</time>
      </trkpt>
      <trkpt lat="43.36576" lon="6.14405">
        <ele>393.39999389648</ele>
        <time>2016-03-09T15:09:39Z</time>
      </trkpt>
      <trkpt lat="43.36573" lon="6.144">
        <ele>393.79998779297</ele>
        <time>2016-03-09T15:09:42Z</time>
      </trkpt>
      <trkpt lat="43.36571" lon="6.14398">
        <ele>394.39999389648</ele>
        <time>2016-03-09T15:09:44Z</time>
      </trkpt>
      <trkpt lat="43.36569" lon="6.14395">
        <ele>395</ele>
        <time>2016-03-09T15:09:46Z</time>
      </trkpt>
      <trkpt lat="43.36567" lon="6.14393">
        <ele>395.60000610352</ele>
        <time>2016-03-09T15:09:48Z</time>
      </trkpt>
      <trkpt lat="43.36562" lon="6.1439">
        <ele>396.39999389648</ele>
        <time>2016-03-09T15:09:52Z</time>
      </trkpt>
      <trkpt lat="43.3656" lon="6.14389">
        <ele>396.60000610352</ele>
        <time>2016-03-09T15:09:53Z</time>
      </trkpt>
      <trkpt lat="43.36553" lon="6.14386">
        <ele>398.20001220703</ele>
        <time>2016-03-09T15:09:58Z</time>
      </trkpt>
      <trkpt lat="43.36545" lon="6.14385">
        <ele>399.20001220703</ele>
        <time>2016-03-09T15:10:05Z</time>
      </trkpt>
      <trkpt lat="43.36538" lon="6.14381">
        <ele>400.39999389648</ele>
        <time>2016-03-09T15:10:13Z</time>
      </trkpt>
      <trkpt lat="43.36535" lon="6.14379">
        <ele>401.60000610352</ele>
        <time>2016-03-09T15:10:17Z</time>
      </trkpt>
      <trkpt lat="43.36531" lon="6.14378">
        <ele>402</ele>
        <time>2016-03-09T15:10:21Z</time>
      </trkpt>
      <trkpt lat="43.36528" lon="6.14376">
        <ele>402.60000610352</ele>
        <time>2016-03-09T15:10:25Z</time>
      </trkpt>
      <trkpt lat="43.36528" lon="6.14376">
        <ele>402.60000610352</ele>
        <time>2016-03-09T15:10:27Z</time>
      </trkpt>
      <trkpt lat="43.36528" lon="6.14376">
        <ele>402.60000610352</ele>
        <time>2016-03-09T15:10:31Z</time>
      </trkpt>
      <trkpt lat="43.36528" lon="6.14376">
        <ele>402.60000610352</ele>
        <time>2016-03-09T15:10:40Z</time>
      </trkpt>
      <trkpt lat="43.36528" lon="6.14376">
        <ele>402.39999389648</ele>
        <time>2016-03-09T15:10:43Z</time>
      </trkpt>
      <trkpt lat="43.36528" lon="6.14376">
        <ele>402.39999389648</ele>
        <time>2016-03-09T15:10:46Z</time>
      </trkpt>
      <trkpt lat="43.36528" lon="6.14376">
        <ele>402.20001220703</ele>
        <time>2016-03-09T15:10:48Z</time>
      </trkpt>
      <trkpt lat="43.36528" lon="6.14376">
        <ele>402.39999389648</ele>
        <time>2016-03-09T15:10:52Z</time>
      </trkpt>
      <trkpt lat="43.36528" lon="6.14376">
        <ele>402.39999389648</ele>
        <time>2016-03-09T15:10:55Z</time>
      </trkpt>
      <trkpt lat="43.36528" lon="6.14376">
        <ele>402.20001220703</ele>
        <time>2016-03-09T15:10:58Z</time>
      </trkpt>
      <trkpt lat="43.36528" lon="6.14376">
        <ele>402.20001220703</ele>
        <time>2016-03-09T15:11:00Z</time>
      </trkpt>
      <trkpt lat="43.36528" lon="6.14376">
        <ele>402.20001220703</ele>
        <time>2016-03-09T15:11:02Z</time>
      </trkpt>
      <trkpt lat="43.36528" lon="6.14376">
        <ele>402.39999389648</ele>
        <time>2016-03-09T15:11:05Z</time>
      </trkpt>
      <trkpt lat="43.36528" lon="6.14376">
        <ele>402.20001220703</ele>
        <time>2016-03-09T15:11:13Z</time>
      </trkpt>
      <trkpt lat="43.36528" lon="6.14376">
        <ele>402.39999389648</ele>
        <time>2016-03-09T15:11:15Z</time>
      </trkpt>
      <trkpt lat="43.36528" lon="6.14376">
        <ele>402.39999389648</ele>
        <time>2016-03-09T15:11:18Z</time>
      </trkpt>
      <trkpt lat="43.36528" lon="6.14376">
        <ele>402.60000610352</ele>
        <time>2016-03-09T15:11:22Z</time>
      </trkpt>
      <trkpt lat="43.36528" lon="6.14376">
        <ele>402.39999389648</ele>
        <time>2016-03-09T15:11:25Z</time>
      </trkpt>
      <trkpt lat="43.36528" lon="6.14376">
        <ele>402.20001220703</ele>
        <time>2016-03-09T15:11:41Z</time>
      </trkpt>
      <trkpt lat="43.36528" lon="6.14376">
        <ele>402.39999389648</ele>
        <time>2016-03-09T15:11:46Z</time>
      </trkpt>
      <trkpt lat="43.36528" lon="6.14376">
        <ele>402.39999389648</ele>
        <time>2016-03-09T15:11:55Z</time>
      </trkpt>
      <trkpt lat="43.36528" lon="6.14376">
        <ele>402.39999389648</ele>
        <time>2016-03-09T15:12:04Z</time>
      </trkpt>
      <trkpt lat="43.36528" lon="6.14376">
        <ele>402.60000610352</ele>
        <time>2016-03-09T15:12:13Z</time>
      </trkpt>
      <trkpt lat="43.36528" lon="6.14376">
        <ele>402.60000610352</ele>
        <time>2016-03-09T15:12:18Z</time>
      </trkpt>
      <trkpt lat="43.36528" lon="6.14375">
        <ele>402.60000610352</ele>
        <time>2016-03-09T15:12:22Z</time>
      </trkpt>
      <trkpt lat="43.36528" lon="6.14375">
        <ele>402.60000610352</ele>
        <time>2016-03-09T15:12:26Z</time>
      </trkpt>
      <trkpt lat="43.36525" lon="6.14371">
        <ele>402.60000610352</ele>
        <time>2016-03-09T15:12:30Z</time>
      </trkpt>
      <trkpt lat="43.36524" lon="6.14369">
        <ele>402.60000610352</ele>
        <time>2016-03-09T15:12:31Z</time>
      </trkpt>
      <trkpt lat="43.36518" lon="6.14348">
        <ele>402</ele>
        <time>2016-03-09T15:12:48Z</time>
      </trkpt>
      <trkpt lat="43.36519" lon="6.14333">
        <ele>401.79998779297</ele>
        <time>2016-03-09T15:12:52Z</time>
      </trkpt>
      <trkpt lat="43.3652" lon="6.14327">
        <ele>401.79998779297</ele>
        <time>2016-03-09T15:12:53Z</time>
      </trkpt>
      <trkpt lat="43.36522" lon="6.14315">
        <ele>402</ele>
        <time>2016-03-09T15:12:55Z</time>
      </trkpt>
      <trkpt lat="43.36524" lon="6.1431">
        <ele>402.60000610352</ele>
        <time>2016-03-09T15:12:57Z</time>
      </trkpt>
      <trkpt lat="43.36532" lon="6.14277">
        <ele>402</ele>
        <time>2016-03-09T15:13:08Z</time>
      </trkpt>
      <trkpt lat="43.36535" lon="6.14263">
        <ele>401.39999389648</ele>
        <time>2016-03-09T15:13:11Z</time>
      </trkpt>
      <trkpt lat="43.36538" lon="6.14234">
        <ele>400.39999389648</ele>
        <time>2016-03-09T15:13:16Z</time>
      </trkpt>
      <trkpt lat="43.3654" lon="6.14214">
        <ele>399.79998779297</ele>
        <time>2016-03-09T15:13:19Z</time>
      </trkpt>
      <trkpt lat="43.36541" lon="6.142">
        <ele>398.79998779297</ele>
        <time>2016-03-09T15:13:21Z</time>
      </trkpt>
      <trkpt lat="43.36541" lon="6.14187">
        <ele>397.79998779297</ele>
        <time>2016-03-09T15:13:23Z</time>
      </trkpt>
      <trkpt lat="43.3654" lon="6.14181">
        <ele>397.60000610352</ele>
        <time>2016-03-09T15:13:24Z</time>
      </trkpt>
      <trkpt lat="43.36534" lon="6.14148">
        <ele>397.60000610352</ele>
        <time>2016-03-09T15:13:29Z</time>
      </trkpt>
      <trkpt lat="43.36527" lon="6.14112">
        <ele>396.39999389648</ele>
        <time>2016-03-09T15:13:34Z</time>
      </trkpt>
      <trkpt lat="43.36524" lon="6.14104">
        <ele>395.60000610352</ele>
        <time>2016-03-09T15:13:35Z</time>
      </trkpt>
      <trkpt lat="43.36522" lon="6.1409">
        <ele>395.79998779297</ele>
        <time>2016-03-09T15:13:37Z</time>
      </trkpt>
      <trkpt lat="43.36522" lon="6.14084">
        <ele>395.20001220703</ele>
        <time>2016-03-09T15:13:38Z</time>
      </trkpt>
      <trkpt lat="43.36522" lon="6.14077">
        <ele>394</ele>
        <time>2016-03-09T15:13:39Z</time>
      </trkpt>
      <trkpt lat="43.36522" lon="6.14066">
        <ele>392.60000610352</ele>
        <time>2016-03-09T15:13:41Z</time>
      </trkpt>
      <trkpt lat="43.36522" lon="6.14061">
        <ele>392</ele>
        <time>2016-03-09T15:13:42Z</time>
      </trkpt>
      <trkpt lat="43.36523" lon="6.14042">
        <ele>391.20001220703</ele>
        <time>2016-03-09T15:13:45Z</time>
      </trkpt>
      <trkpt lat="43.36525" lon="6.14019">
        <ele>391</ele>
        <time>2016-03-09T15:13:49Z</time>
      </trkpt>
      <trkpt lat="43.36527" lon="6.13996">
        <ele>390.79998779297</ele>
        <time>2016-03-09T15:13:53Z</time>
      </trkpt>
      <trkpt lat="43.36524" lon="6.13969">
        <ele>390.60000610352</ele>
        <time>2016-03-09T15:13:57Z</time>
      </trkpt>
      <trkpt lat="43.3652" lon="6.13949">
        <ele>390.20001220703</ele>
        <time>2016-03-09T15:14:00Z</time>
      </trkpt>
      <trkpt lat="43.3652" lon="6.13941">
        <ele>390</ele>
        <time>2016-03-09T15:14:01Z</time>
      </trkpt>
      <trkpt lat="43.36521" lon="6.13919">
        <ele>389</ele>
        <time>2016-03-09T15:14:04Z</time>
      </trkpt>
      <trkpt lat="43.36525" lon="6.13893">
        <ele>387.79998779297</ele>
        <time>2016-03-09T15:14:07Z</time>
      </trkpt>
      <trkpt lat="43.36529" lon="6.13858">
        <ele>386.39999389648</ele>
        <time>2016-03-09T15:14:11Z</time>
      </trkpt>
      <trkpt lat="43.3653" lon="6.1384">
        <ele>385.20001220703</ele>
        <time>2016-03-09T15:14:13Z</time>
      </trkpt>
      <trkpt lat="43.36532" lon="6.13822">
        <ele>384.60000610352</ele>
        <time>2016-03-09T15:14:15Z</time>
      </trkpt>
      <trkpt lat="43.36538" lon="6.13794">
        <ele>384.20001220703</ele>
        <time>2016-03-09T15:14:18Z</time>
      </trkpt>
      <trkpt lat="43.3654" lon="6.13782">
        <ele>384</ele>
        <time>2016-03-09T15:14:19Z</time>
      </trkpt>
      <trkpt lat="43.36544" lon="6.1376">
        <ele>382.20001220703</ele>
        <time>2016-03-09T15:14:21Z</time>
      </trkpt>
      <trkpt lat="43.36547" lon="6.13737">
        <ele>382</ele>
        <time>2016-03-09T15:14:23Z</time>
      </trkpt>
      <trkpt lat="43.36551" lon="6.13712">
        <ele>381.39999389648</ele>
        <time>2016-03-09T15:14:25Z</time>
      </trkpt>
      <trkpt lat="43.36553" lon="6.13699">
        <ele>380.39999389648</ele>
        <time>2016-03-09T15:14:26Z</time>
      </trkpt>
      <trkpt lat="43.36557" lon="6.13675">
        <ele>379.39999389648</ele>
        <time>2016-03-09T15:14:28Z</time>
      </trkpt>
      <trkpt lat="43.36562" lon="6.13649">
        <ele>378</ele>
        <time>2016-03-09T15:14:30Z</time>
      </trkpt>
      <trkpt lat="43.36564" lon="6.13634">
        <ele>376.79998779297</ele>
        <time>2016-03-09T15:14:31Z</time>
      </trkpt>
      <trkpt lat="43.36567" lon="6.13621">
        <ele>375.39999389648</ele>
        <time>2016-03-09T15:14:32Z</time>
      </trkpt>
      <trkpt lat="43.3657" lon="6.13607">
        <ele>374</ele>
        <time>2016-03-09T15:14:33Z</time>
      </trkpt>
      <trkpt lat="43.3658" lon="6.13572">
        <ele>372.79998779297</ele>
        <time>2016-03-09T15:14:36Z</time>
      </trkpt>
      <trkpt lat="43.36587" lon="6.13549">
        <ele>371.39999389648</ele>
        <time>2016-03-09T15:14:38Z</time>
      </trkpt>
      <trkpt lat="43.36594" lon="6.13526">
        <ele>370.20001220703</ele>
        <time>2016-03-09T15:14:40Z</time>
      </trkpt>
      <trkpt lat="43.36596" lon="6.13514">
        <ele>369.39999389648</ele>
        <time>2016-03-09T15:14:41Z</time>
      </trkpt>
      <trkpt lat="43.36597" lon="6.13503">
        <ele>369</ele>
        <time>2016-03-09T15:14:42Z</time>
      </trkpt>
      <trkpt lat="43.36603" lon="6.13466">
        <ele>368.20001220703</ele>
        <time>2016-03-09T15:14:45Z</time>
      </trkpt>
      <trkpt lat="43.36606" lon="6.13455">
        <ele>367.60000610352</ele>
        <time>2016-03-09T15:14:46Z</time>
      </trkpt>
      <trkpt lat="43.36613" lon="6.13432">
        <ele>366.39999389648</ele>
        <time>2016-03-09T15:14:48Z</time>
      </trkpt>
      <trkpt lat="43.36623" lon="6.134">
        <ele>365.20001220703</ele>
        <time>2016-03-09T15:14:51Z</time>
      </trkpt>
      <trkpt lat="43.36634" lon="6.13356">
        <ele>365.39999389648</ele>
        <time>2016-03-09T15:14:55Z</time>
      </trkpt>
      <trkpt lat="43.36642" lon="6.13322">
        <ele>365.60000610352</ele>
        <time>2016-03-09T15:14:58Z</time>
      </trkpt>
      <trkpt lat="43.36648" lon="6.13297">
        <ele>363.39999389648</ele>
        <time>2016-03-09T15:15:00Z</time>
      </trkpt>
      <trkpt lat="43.36653" lon="6.13269">
        <ele>362</ele>
        <time>2016-03-09T15:15:02Z</time>
      </trkpt>
      <trkpt lat="43.36655" lon="6.13229">
        <ele>360.20001220703</ele>
        <time>2016-03-09T15:15:05Z</time>
      </trkpt>
      <trkpt lat="43.3666" lon="6.13193">
        <ele>358.79998779297</ele>
        <time>2016-03-09T15:15:08Z</time>
      </trkpt>
      <trkpt lat="43.36662" lon="6.13174">
        <ele>357.20001220703</ele>
        <time>2016-03-09T15:15:10Z</time>
      </trkpt>
      <trkpt lat="43.36665" lon="6.13158">
        <ele>356.79998779297</ele>
        <time>2016-03-09T15:15:12Z</time>
      </trkpt>
      <trkpt lat="43.36668" lon="6.13152">
        <ele>355.60000610352</ele>
        <time>2016-03-09T15:15:13Z</time>
      </trkpt>
      <trkpt lat="43.36684" lon="6.13146">
        <ele>355</ele>
        <time>2016-03-09T15:15:16Z</time>
      </trkpt>
      <trkpt lat="43.3669" lon="6.13142">
        <ele>354.39999389648</ele>
        <time>2016-03-09T15:15:17Z</time>
      </trkpt>
      <trkpt lat="43.36703" lon="6.13119">
        <ele>353.20001220703</ele>
        <time>2016-03-09T15:15:20Z</time>
      </trkpt>
      <trkpt lat="43.36706" lon="6.13109">
        <ele>351.79998779297</ele>
        <time>2016-03-09T15:15:21Z</time>
      </trkpt>
      <trkpt lat="43.36711" lon="6.13087">
        <ele>350.79998779297</ele>
        <time>2016-03-09T15:15:23Z</time>
      </trkpt>
      <trkpt lat="43.36723" lon="6.13058">
        <ele>349.60000610352</ele>
        <time>2016-03-09T15:15:26Z</time>
      </trkpt>
      <trkpt lat="43.36728" lon="6.13048">
        <ele>348</ele>
        <time>2016-03-09T15:15:27Z</time>
      </trkpt>
      <trkpt lat="43.36745" lon="6.13019">
        <ele>347.20001220703</ele>
        <time>2016-03-09T15:15:30Z</time>
      </trkpt>
      <trkpt lat="43.36751" lon="6.13007">
        <ele>346.79998779297</ele>
        <time>2016-03-09T15:15:31Z</time>
      </trkpt>
      <trkpt lat="43.36758" lon="6.12998">
        <ele>345.60000610352</ele>
        <time>2016-03-09T15:15:32Z</time>
      </trkpt>
      <trkpt lat="43.36789" lon="6.12964">
        <ele>343.79998779297</ele>
        <time>2016-03-09T15:15:36Z</time>
      </trkpt>
      <trkpt lat="43.36797" lon="6.12955">
        <ele>342</ele>
        <time>2016-03-09T15:15:37Z</time>
      </trkpt>
      <trkpt lat="43.36813" lon="6.12937">
        <ele>343.20001220703</ele>
        <time>2016-03-09T15:15:39Z</time>
      </trkpt>
      <trkpt lat="43.36819" lon="6.12928">
        <ele>341.79998779297</ele>
        <time>2016-03-09T15:15:40Z</time>
      </trkpt>
      <trkpt lat="43.36835" lon="6.12913">
        <ele>340.39999389648</ele>
        <time>2016-03-09T15:15:42Z</time>
      </trkpt>
      <trkpt lat="43.36843" lon="6.12905">
        <ele>338.60000610352</ele>
        <time>2016-03-09T15:15:43Z</time>
      </trkpt>
      <trkpt lat="43.36851" lon="6.12898">
        <ele>337.60000610352</ele>
        <time>2016-03-09T15:15:44Z</time>
      </trkpt>
      <trkpt lat="43.36859" lon="6.12891">
        <ele>339.79998779297</ele>
        <time>2016-03-09T15:15:45Z</time>
      </trkpt>
      <trkpt lat="43.36881" lon="6.1287">
        <ele>337.39999389648</ele>
        <time>2016-03-09T15:15:48Z</time>
      </trkpt>
      <trkpt lat="43.36889" lon="6.12863">
        <ele>336.20001220703</ele>
        <time>2016-03-09T15:15:49Z</time>
      </trkpt>
      <trkpt lat="43.36899" lon="6.12855">
        <ele>334.79998779297</ele>
        <time>2016-03-09T15:15:51Z</time>
      </trkpt>
      <trkpt lat="43.36903" lon="6.12853">
        <ele>334.60000610352</ele>
        <time>2016-03-09T15:15:52Z</time>
      </trkpt>
      <trkpt lat="43.36907" lon="6.12849">
        <ele>333.79998779297</ele>
        <time>2016-03-09T15:15:54Z</time>
      </trkpt>
      <trkpt lat="43.36906" lon="6.12848">
        <ele>333.60000610352</ele>
        <time>2016-03-09T15:16:00Z</time>
      </trkpt>
      <trkpt lat="43.36906" lon="6.12848">
        <ele>333.79998779297</ele>
        <time>2016-03-09T15:16:03Z</time>
      </trkpt>
      <trkpt lat="43.36906" lon="6.12847">
        <ele>333.60000610352</ele>
        <time>2016-03-09T15:16:07Z</time>
      </trkpt>
      <trkpt lat="43.36906" lon="6.12845">
        <ele>333.39999389648</ele>
        <time>2016-03-09T15:16:09Z</time>
      </trkpt>
      <trkpt lat="43.36914" lon="6.12827">
        <ele>333</ele>
        <time>2016-03-09T15:16:14Z</time>
      </trkpt>
      <trkpt lat="43.36922" lon="6.12812">
        <ele>332.39999389648</ele>
        <time>2016-03-09T15:16:17Z</time>
      </trkpt>
      <trkpt lat="43.36933" lon="6.12789">
        <ele>331.60000610352</ele>
        <time>2016-03-09T15:16:21Z</time>
      </trkpt>
      <trkpt lat="43.36935" lon="6.12783">
        <ele>331.39999389648</ele>
        <time>2016-03-09T15:16:22Z</time>
      </trkpt>
      <trkpt lat="43.36935" lon="6.12776">
        <ele>331.20001220703</ele>
        <time>2016-03-09T15:16:23Z</time>
      </trkpt>
      <trkpt lat="43.36936" lon="6.12765">
        <ele>330.60000610352</ele>
        <time>2016-03-09T15:16:28Z</time>
      </trkpt>
      <trkpt lat="43.36936" lon="6.12765">
        <ele>330.79998779297</ele>
        <time>2016-03-09T15:16:45Z</time>
      </trkpt>
      <trkpt lat="43.36935" lon="6.12765">
        <ele>330.60000610352</ele>
        <time>2016-03-09T15:16:50Z</time>
      </trkpt>
      <trkpt lat="43.36935" lon="6.12765">
        <ele>330.60000610352</ele>
        <time>2016-03-09T15:16:59Z</time>
      </trkpt>
      <trkpt lat="43.36935" lon="6.12765">
        <ele>330.60000610352</ele>
        <time>2016-03-09T15:17:10Z</time>
      </trkpt>
      <trkpt lat="43.36936" lon="6.12764">
        <ele>330.60000610352</ele>
        <time>2016-03-09T15:19:08Z</time>
      </trkpt>
      <trkpt lat="43.36936" lon="6.12764">
        <ele>330.60000610352</ele>
        <time>2016-03-09T15:19:25Z</time>
      </trkpt>
      <trkpt lat="43.36936" lon="6.12764">
        <ele>330.60000610352</ele>
        <time>2016-03-09T15:19:33Z</time>
      </trkpt>
      <trkpt lat="43.36936" lon="6.12764">
        <ele>330.60000610352</ele>
        <time>2016-03-09T15:19:48Z</time>
      </trkpt>
      <trkpt lat="43.36938" lon="6.12767">
        <ele>330.60000610352</ele>
        <time>2016-03-09T15:21:46Z</time>
      </trkpt>
      <trkpt lat="43.36938" lon="6.12768">
        <ele>330.60000610352</ele>
        <time>2016-03-09T15:22:01Z</time>
      </trkpt>
      <trkpt lat="43.36937" lon="6.12774">
        <ele>331</ele>
        <time>2016-03-09T15:22:04Z</time>
      </trkpt>
      <trkpt lat="43.36922" lon="6.12807">
        <ele>331.60000610352</ele>
        <time>2016-03-09T15:22:17Z</time>
      </trkpt>
      <trkpt lat="43.36913" lon="6.12824">
        <ele>331.79998779297</ele>
        <time>2016-03-09T15:22:23Z</time>
      </trkpt>
      <trkpt lat="43.36908" lon="6.12835">
        <ele>332.60000610352</ele>
        <time>2016-03-09T15:22:27Z</time>
      </trkpt>
      <trkpt lat="43.36903" lon="6.12845">
        <ele>333.39999389648</ele>
        <time>2016-03-09T15:22:31Z</time>
      </trkpt>
      <trkpt lat="43.369" lon="6.12849">
        <ele>333.79998779297</ele>
        <time>2016-03-09T15:22:33Z</time>
      </trkpt>
      <trkpt lat="43.3689" lon="6.12857">
        <ele>334</ele>
        <time>2016-03-09T15:22:38Z</time>
      </trkpt>
      <trkpt lat="43.36884" lon="6.12861">
        <ele>335</ele>
        <time>2016-03-09T15:22:41Z</time>
      </trkpt>
      <trkpt lat="43.3687" lon="6.12875">
        <ele>335.60000610352</ele>
        <time>2016-03-09T15:22:49Z</time>
      </trkpt>
      <trkpt lat="43.36862" lon="6.12882">
        <ele>336.20001220703</ele>
        <time>2016-03-09T15:22:54Z</time>
      </trkpt>
      <trkpt lat="43.36849" lon="6.12893">
        <ele>337.39999389648</ele>
        <time>2016-03-09T15:23:01Z</time>
      </trkpt>
      <trkpt lat="43.3684" lon="6.12901">
        <ele>338.39999389648</ele>
        <time>2016-03-09T15:23:09Z</time>
      </trkpt>
      <trkpt lat="43.36836" lon="6.12905">
        <ele>338.60000610352</ele>
        <time>2016-03-09T15:23:12Z</time>
      </trkpt>
      <trkpt lat="43.36823" lon="6.12916">
        <ele>340</ele>
        <time>2016-03-09T15:23:21Z</time>
      </trkpt>
      <trkpt lat="43.36809" lon="6.12933">
        <ele>341</ele>
        <time>2016-03-09T15:23:31Z</time>
      </trkpt>
      <trkpt lat="43.36794" lon="6.12948">
        <ele>342.60000610352</ele>
        <time>2016-03-09T15:23:41Z</time>
      </trkpt>
      <trkpt lat="43.36764" lon="6.12978">
        <ele>344.20001220703</ele>
        <time>2016-03-09T15:23:59Z</time>
      </trkpt>
      <trkpt lat="43.36757" lon="6.12993">
        <ele>345.39999389648</ele>
        <time>2016-03-09T15:24:06Z</time>
      </trkpt>
      <trkpt lat="43.36748" lon="6.1301">
        <ele>346.79998779297</ele>
        <time>2016-03-09T15:24:15Z</time>
      </trkpt>
      <trkpt lat="43.36732" lon="6.13045">
        <ele>348.39999389648</ele>
        <time>2016-03-09T15:24:32Z</time>
      </trkpt>
      <trkpt lat="43.36719" lon="6.13076">
        <ele>349.79998779297</ele>
        <time>2016-03-09T15:24:44Z</time>
      </trkpt>
      <trkpt lat="43.36715" lon="6.13096">
        <ele>350.20001220703</ele>
        <time>2016-03-09T15:24:51Z</time>
      </trkpt>
      <trkpt lat="43.36709" lon="6.1311">
        <ele>351.39999389648</ele>
        <time>2016-03-09T15:24:58Z</time>
      </trkpt>
      <trkpt lat="43.36702" lon="6.13124">
        <ele>352.60000610352</ele>
        <time>2016-03-09T15:25:05Z</time>
      </trkpt>
      <trkpt lat="43.36691" lon="6.13135">
        <ele>353.79998779297</ele>
        <time>2016-03-09T15:25:13Z</time>
      </trkpt>
      <trkpt lat="43.36678" lon="6.13141">
        <ele>355</ele>
        <time>2016-03-09T15:25:21Z</time>
      </trkpt>
      <trkpt lat="43.36668" lon="6.13166">
        <ele>356.20001220703</ele>
        <time>2016-03-09T15:25:33Z</time>
      </trkpt>
      <trkpt lat="43.36666" lon="6.13177">
        <ele>357.60000610352</ele>
        <time>2016-03-09T15:25:38Z</time>
      </trkpt>
      <trkpt lat="43.36662" lon="6.13204">
        <ele>358.60000610352</ele>
        <time>2016-03-09T15:25:49Z</time>
      </trkpt>
      <trkpt lat="43.36662" lon="6.13206">
        <ele>358.79998779297</ele>
        <time>2016-03-09T15:25:50Z</time>
      </trkpt>
      <trkpt lat="43.3666" lon="6.13211">
        <ele>359</ele>
        <time>2016-03-09T15:25:53Z</time>
      </trkpt>
      <trkpt lat="43.36657" lon="6.13219">
        <ele>359.20001220703</ele>
        <time>2016-03-09T15:25:57Z</time>
      </trkpt>
      <trkpt lat="43.36656" lon="6.13222">
        <ele>359.39999389648</ele>
        <time>2016-03-09T15:26:01Z</time>
      </trkpt>
      <trkpt lat="43.36658" lon="6.13207">
        <ele>358.79998779297</ele>
        <time>2016-03-09T15:26:06Z</time>
      </trkpt>
      <trkpt lat="43.36661" lon="6.13192">
        <ele>358</ele>
        <time>2016-03-09T15:26:09Z</time>
      </trkpt>
      <trkpt lat="43.36661" lon="6.13187">
        <ele>357.60000610352</ele>
        <time>2016-03-09T15:26:10Z</time>
      </trkpt>
      <trkpt lat="43.36663" lon="6.13166">
        <ele>357.60000610352</ele>
        <time>2016-03-09T15:26:13Z</time>
      </trkpt>
      <trkpt lat="43.36665" lon="6.13159">
        <ele>357</ele>
        <time>2016-03-09T15:26:14Z</time>
      </trkpt>
      <trkpt lat="43.36668" lon="6.13153">
        <ele>356.60000610352</ele>
        <time>2016-03-09T15:26:15Z</time>
      </trkpt>
      <trkpt lat="43.36685" lon="6.13141">
        <ele>355.20001220703</ele>
        <time>2016-03-09T15:26:19Z</time>
      </trkpt>
      <trkpt lat="43.36689" lon="6.13138">
        <ele>354.39999389648</ele>
        <time>2016-03-09T15:26:20Z</time>
      </trkpt>
      <trkpt lat="43.36694" lon="6.13132">
        <ele>353.79998779297</ele>
        <time>2016-03-09T15:26:21Z</time>
      </trkpt>
      <trkpt lat="43.36702" lon="6.13117">
        <ele>352</ele>
        <time>2016-03-09T15:26:23Z</time>
      </trkpt>
      <trkpt lat="43.36705" lon="6.13108">
        <ele>350.79998779297</ele>
        <time>2016-03-09T15:26:24Z</time>
      </trkpt>
      <trkpt lat="43.36721" lon="6.13059">
        <ele>349.60000610352</ele>
        <time>2016-03-09T15:26:29Z</time>
      </trkpt>
      <trkpt lat="43.36731" lon="6.13043">
        <ele>348.79998779297</ele>
        <time>2016-03-09T15:26:31Z</time>
      </trkpt>
      <trkpt lat="43.36736" lon="6.13036">
        <ele>348.60000610352</ele>
        <time>2016-03-09T15:26:32Z</time>
      </trkpt>
      <trkpt lat="43.36751" lon="6.13011">
        <ele>347.60000610352</ele>
        <time>2016-03-09T15:26:35Z</time>
      </trkpt>
      <trkpt lat="43.36766" lon="6.12988">
        <ele>345.60000610352</ele>
        <time>2016-03-09T15:26:38Z</time>
      </trkpt>
      <trkpt lat="43.36777" lon="6.12975">
        <ele>344</ele>
        <time>2016-03-09T15:26:40Z</time>
      </trkpt>
      <trkpt lat="43.36788" lon="6.12963">
        <ele>342.79998779297</ele>
        <time>2016-03-09T15:26:42Z</time>
      </trkpt>
      <trkpt lat="43.36804" lon="6.12946">
        <ele>341.60000610352</ele>
        <time>2016-03-09T15:26:45Z</time>
      </trkpt>
      <trkpt lat="43.36818" lon="6.12928">
        <ele>341</ele>
        <time>2016-03-09T15:26:48Z</time>
      </trkpt>
      <trkpt lat="43.36829" lon="6.12916">
        <ele>340.39999389648</ele>
        <time>2016-03-09T15:26:50Z</time>
      </trkpt>
      <trkpt lat="43.36853" lon="6.12894">
        <ele>339</ele>
        <time>2016-03-09T15:26:54Z</time>
      </trkpt>
      <trkpt lat="43.36865" lon="6.12881">
        <ele>337</ele>
        <time>2016-03-09T15:26:56Z</time>
      </trkpt>
      <trkpt lat="43.36872" lon="6.12875">
        <ele>335.79998779297</ele>
        <time>2016-03-09T15:26:57Z</time>
      </trkpt>
      <trkpt lat="43.36902" lon="6.12848">
        <ele>333.79998779297</ele>
        <time>2016-03-09T15:27:02Z</time>
      </trkpt>
      <trkpt lat="43.36911" lon="6.12834">
        <ele>333</ele>
        <time>2016-03-09T15:27:04Z</time>
      </trkpt>
      <trkpt lat="43.36915" lon="6.12825">
        <ele>332.20001220703</ele>
        <time>2016-03-09T15:27:05Z</time>
      </trkpt>
      <trkpt lat="43.3694" lon="6.12773">
        <ele>331.39999389648</ele>
        <time>2016-03-09T15:27:13Z</time>
      </trkpt>
      <trkpt lat="43.36943" lon="6.12765">
        <ele>330.39999389648</ele>
        <time>2016-03-09T15:27:15Z</time>
      </trkpt>
      <trkpt lat="43.36949" lon="6.12756">
        <ele>330.79998779297</ele>
        <time>2016-03-09T15:27:19Z</time>
      </trkpt>
      <trkpt lat="43.36954" lon="6.12748">
        <ele>330.60000610352</ele>
        <time>2016-03-09T15:27:22Z</time>
      </trkpt>
      <trkpt lat="43.36957" lon="6.1274">
        <ele>331</ele>
        <time>2016-03-09T15:27:25Z</time>
      </trkpt>
      <trkpt lat="43.36971" lon="6.12709">
        <ele>330.20001220703</ele>
        <time>2016-03-09T15:27:34Z</time>
      </trkpt>
      <trkpt lat="43.36977" lon="6.12695">
        <ele>330</ele>
        <time>2016-03-09T15:27:38Z</time>
      </trkpt>
      <trkpt lat="43.36984" lon="6.1268">
        <ele>330.20001220703</ele>
        <time>2016-03-09T15:27:42Z</time>
      </trkpt>
      <trkpt lat="43.37002" lon="6.12641">
        <ele>329</ele>
        <time>2016-03-09T15:27:52Z</time>
      </trkpt>
      <trkpt lat="43.37028" lon="6.1259">
        <ele>328</ele>
        <time>2016-03-09T15:28:05Z</time>
      </trkpt>
      <trkpt lat="43.37046" lon="6.12563">
        <ele>327</ele>
        <time>2016-03-09T15:28:12Z</time>
      </trkpt>
      <trkpt lat="43.37055" lon="6.12554">
        <ele>326.79998779297</ele>
        <time>2016-03-09T15:28:15Z</time>
      </trkpt>
      <trkpt lat="43.37085" lon="6.12526">
        <ele>325.20001220703</ele>
        <time>2016-03-09T15:28:25Z</time>
      </trkpt>
      <trkpt lat="43.37112" lon="6.1249">
        <ele>325.20001220703</ele>
        <time>2016-03-09T15:28:35Z</time>
      </trkpt>
      <trkpt lat="43.37127" lon="6.12458">
        <ele>325</ele>
        <time>2016-03-09T15:28:42Z</time>
      </trkpt>
      <trkpt lat="43.37136" lon="6.12435">
        <ele>324.39999389648</ele>
        <time>2016-03-09T15:28:47Z</time>
      </trkpt>
      <trkpt lat="43.37142" lon="6.12422">
        <ele>324</ele>
        <time>2016-03-09T15:28:50Z</time>
      </trkpt>
      <trkpt lat="43.37167" lon="6.12379">
        <ele>324.39999389648</ele>
        <time>2016-03-09T15:29:01Z</time>
      </trkpt>
      <trkpt lat="43.37176" lon="6.12368">
        <ele>325</ele>
        <time>2016-03-09T15:29:05Z</time>
      </trkpt>
      <trkpt lat="43.37186" lon="6.12356">
        <ele>325.79998779297</ele>
        <time>2016-03-09T15:29:10Z</time>
      </trkpt>
      <trkpt lat="43.37192" lon="6.12348">
        <ele>326.20001220703</ele>
        <time>2016-03-09T15:29:13Z</time>
      </trkpt>
      <trkpt lat="43.37201" lon="6.12333">
        <ele>326.79998779297</ele>
        <time>2016-03-09T15:29:19Z</time>
      </trkpt>
      <trkpt lat="43.37203" lon="6.12327">
        <ele>327.20001220703</ele>
        <time>2016-03-09T15:29:21Z</time>
      </trkpt>
      <trkpt lat="43.37212" lon="6.12311">
        <ele>328.20001220703</ele>
        <time>2016-03-09T15:29:28Z</time>
      </trkpt>
      <trkpt lat="43.37218" lon="6.12296">
        <ele>329.20001220703</ele>
        <time>2016-03-09T15:29:35Z</time>
      </trkpt>
      <trkpt lat="43.37226" lon="6.12274">
        <ele>330.39999389648</ele>
        <time>2016-03-09T15:29:45Z</time>
      </trkpt>
      <trkpt lat="43.37233" lon="6.12256">
        <ele>331.20001220703</ele>
        <time>2016-03-09T15:29:54Z</time>
      </trkpt>
      <trkpt lat="43.37237" lon="6.12243">
        <ele>332</ele>
        <time>2016-03-09T15:30:00Z</time>
      </trkpt>
      <trkpt lat="43.37238" lon="6.12241">
        <ele>332.20001220703</ele>
        <time>2016-03-09T15:30:01Z</time>
      </trkpt>
      <trkpt lat="43.37244" lon="6.12225">
        <ele>333.20001220703</ele>
        <time>2016-03-09T15:30:09Z</time>
      </trkpt>
      <trkpt lat="43.37253" lon="6.12207">
        <ele>334.39999389648</ele>
        <time>2016-03-09T15:30:18Z</time>
      </trkpt>
      <trkpt lat="43.37259" lon="6.12194">
        <ele>335.39999389648</ele>
        <time>2016-03-09T15:30:25Z</time>
      </trkpt>
      <trkpt lat="43.37266" lon="6.1218">
        <ele>336.39999389648</ele>
        <time>2016-03-09T15:30:33Z</time>
      </trkpt>
      <trkpt lat="43.37273" lon="6.12169">
        <ele>337</ele>
        <time>2016-03-09T15:30:40Z</time>
      </trkpt>
      <trkpt lat="43.37275" lon="6.12165">
        <ele>337.60000610352</ele>
        <time>2016-03-09T15:30:42Z</time>
      </trkpt>
      <trkpt lat="43.37279" lon="6.12159">
        <ele>338.60000610352</ele>
        <time>2016-03-09T15:30:46Z</time>
      </trkpt>
      <trkpt lat="43.37284" lon="6.12154">
        <ele>339.79998779297</ele>
        <time>2016-03-09T15:30:51Z</time>
      </trkpt>
      <trkpt lat="43.3729" lon="6.12147">
        <ele>341</ele>
        <time>2016-03-09T15:30:58Z</time>
      </trkpt>
      <trkpt lat="43.37297" lon="6.12142">
        <ele>342</ele>
        <time>2016-03-09T15:31:04Z</time>
      </trkpt>
      <trkpt lat="43.37302" lon="6.12139">
        <ele>343</ele>
        <time>2016-03-09T15:31:09Z</time>
      </trkpt>
      <trkpt lat="43.37306" lon="6.12138">
        <ele>344</ele>
        <time>2016-03-09T15:31:13Z</time>
      </trkpt>
      <trkpt lat="43.37318" lon="6.12132">
        <ele>345</ele>
        <time>2016-03-09T15:31:22Z</time>
      </trkpt>
      <trkpt lat="43.37327" lon="6.12125">
        <ele>346.20001220703</ele>
        <time>2016-03-09T15:31:31Z</time>
      </trkpt>
      <trkpt lat="43.37334" lon="6.12121">
        <ele>347.39999389648</ele>
        <time>2016-03-09T15:31:37Z</time>
      </trkpt>
      <trkpt lat="43.37344" lon="6.12113">
        <ele>348.39999389648</ele>
        <time>2016-03-09T15:31:46Z</time>
      </trkpt>
      <trkpt lat="43.3735" lon="6.1211">
        <ele>349.39999389648</ele>
        <time>2016-03-09T15:31:52Z</time>
      </trkpt>
      <trkpt lat="43.37362" lon="6.121">
        <ele>350.60000610352</ele>
        <time>2016-03-09T15:32:02Z</time>
      </trkpt>
      <trkpt lat="43.37371" lon="6.12094">
        <ele>351.60000610352</ele>
        <time>2016-03-09T15:32:10Z</time>
      </trkpt>
      <trkpt lat="43.37383" lon="6.12091">
        <ele>352.39999389648</ele>
        <time>2016-03-09T15:32:19Z</time>
      </trkpt>
      <trkpt lat="43.37387" lon="6.12092">
        <ele>352.79998779297</ele>
        <time>2016-03-09T15:32:22Z</time>
      </trkpt>
      <trkpt lat="43.37396" lon="6.12093">
        <ele>353</ele>
        <time>2016-03-09T15:32:29Z</time>
      </trkpt>
      <trkpt lat="43.37403" lon="6.12092">
        <ele>353.60000610352</ele>
        <time>2016-03-09T15:32:35Z</time>
      </trkpt>
      <trkpt lat="43.3741" lon="6.1209">
        <ele>354.20001220703</ele>
        <time>2016-03-09T15:32:40Z</time>
      </trkpt>
      <trkpt lat="43.37413" lon="6.12089">
        <ele>354.79998779297</ele>
        <time>2016-03-09T15:32:42Z</time>
      </trkpt>
      <trkpt lat="43.37423" lon="6.12085">
        <ele>355.79998779297</ele>
        <time>2016-03-09T15:32:50Z</time>
      </trkpt>
      <trkpt lat="43.37426" lon="6.12084">
        <ele>356.60000610352</ele>
        <time>2016-03-09T15:32:57Z</time>
      </trkpt>
      <trkpt lat="43.37426" lon="6.12084">
        <ele>356.20001220703</ele>
        <time>2016-03-09T15:33:02Z</time>
      </trkpt>
      <trkpt lat="43.37426" lon="6.12084">
        <ele>356.20001220703</ele>
        <time>2016-03-09T15:33:07Z</time>
      </trkpt>
      <trkpt lat="43.37426" lon="6.12084">
        <ele>356</ele>
        <time>2016-03-09T15:33:10Z</time>
      </trkpt>
      <trkpt lat="43.37426" lon="6.12084">
        <ele>356.20001220703</ele>
        <time>2016-03-09T15:33:15Z</time>
      </trkpt>
      <trkpt lat="43.37426" lon="6.12084">
        <ele>356</ele>
        <time>2016-03-09T15:33:24Z</time>
      </trkpt>
      <trkpt lat="43.37426" lon="6.12084">
        <ele>356.20001220703</ele>
        <time>2016-03-09T15:33:27Z</time>
      </trkpt>
      <trkpt lat="43.37426" lon="6.12084">
        <ele>356.20001220703</ele>
        <time>2016-03-09T15:33:30Z</time>
      </trkpt>
      <trkpt lat="43.37426" lon="6.12084">
        <ele>355.79998779297</ele>
        <time>2016-03-09T15:33:40Z</time>
      </trkpt>
      <trkpt lat="43.37426" lon="6.12084">
        <ele>356.20001220703</ele>
        <time>2016-03-09T15:33:53Z</time>
      </trkpt>
      <trkpt lat="43.37426" lon="6.12084">
        <ele>356.39999389648</ele>
        <time>2016-03-09T15:33:56Z</time>
      </trkpt>
      <trkpt lat="43.37426" lon="6.12084">
        <ele>356.39999389648</ele>
        <time>2016-03-09T15:34:14Z</time>
      </trkpt>
      <trkpt lat="43.37426" lon="6.12084">
        <ele>356.20001220703</ele>
        <time>2016-03-09T15:34:25Z</time>
      </trkpt>
      <trkpt lat="43.37426" lon="6.12084">
        <ele>356.39999389648</ele>
        <time>2016-03-09T15:34:28Z</time>
      </trkpt>
      <trkpt lat="43.37426" lon="6.12084">
        <ele>356.39999389648</ele>
        <time>2016-03-09T15:34:50Z</time>
      </trkpt>
      <trkpt lat="43.37426" lon="6.12084">
        <ele>356.20001220703</ele>
        <time>2016-03-09T15:35:19Z</time>
      </trkpt>
      <trkpt lat="43.37426" lon="6.12084">
        <ele>356.20001220703</ele>
        <time>2016-03-09T15:35:25Z</time>
      </trkpt>
      <trkpt lat="43.37426" lon="6.12084">
        <ele>356.20001220703</ele>
        <time>2016-03-09T15:35:37Z</time>
      </trkpt>
      <trkpt lat="43.37426" lon="6.12084">
        <ele>356.39999389648</ele>
        <time>2016-03-09T15:35:51Z</time>
      </trkpt>
      <trkpt lat="43.37434" lon="6.12085">
        <ele>356</ele>
        <time>2016-03-09T15:36:01Z</time>
      </trkpt>
      <trkpt lat="43.3745" lon="6.12085">
        <ele>354.79998779297</ele>
        <time>2016-03-09T15:36:05Z</time>
      </trkpt>
      <trkpt lat="43.37461" lon="6.1208">
        <ele>353.60000610352</ele>
        <time>2016-03-09T15:36:07Z</time>
      </trkpt>
      <trkpt lat="43.37473" lon="6.12073">
        <ele>351.79998779297</ele>
        <time>2016-03-09T15:36:09Z</time>
      </trkpt>
      <trkpt lat="43.37478" lon="6.12068">
        <ele>350.79998779297</ele>
        <time>2016-03-09T15:36:10Z</time>
      </trkpt>
      <trkpt lat="43.37485" lon="6.12062">
        <ele>349.60000610352</ele>
        <time>2016-03-09T15:36:11Z</time>
      </trkpt>
      <trkpt lat="43.37497" lon="6.1205">
        <ele>347.60000610352</ele>
        <time>2016-03-09T15:36:13Z</time>
      </trkpt>
      <trkpt lat="43.37503" lon="6.12044">
        <ele>346.20001220703</ele>
        <time>2016-03-09T15:36:14Z</time>
      </trkpt>
      <trkpt lat="43.37516" lon="6.12031">
        <ele>344.20001220703</ele>
        <time>2016-03-09T15:36:16Z</time>
      </trkpt>
      <trkpt lat="43.37524" lon="6.12022">
        <ele>342.79998779297</ele>
        <time>2016-03-09T15:36:17Z</time>
      </trkpt>
      <trkpt lat="43.37538" lon="6.12008">
        <ele>340.79998779297</ele>
        <time>2016-03-09T15:36:19Z</time>
      </trkpt>
      <trkpt lat="43.37545" lon="6.12">
        <ele>338.60000610352</ele>
        <time>2016-03-09T15:36:20Z</time>
      </trkpt>
      <trkpt lat="43.37552" lon="6.11992">
        <ele>337</ele>
        <time>2016-03-09T15:36:21Z</time>
      </trkpt>
      <trkpt lat="43.37566" lon="6.11982">
        <ele>335.39999389648</ele>
        <time>2016-03-09T15:36:23Z</time>
      </trkpt>
      <trkpt lat="43.37572" lon="6.11978">
        <ele>334</ele>
        <time>2016-03-09T15:36:24Z</time>
      </trkpt>
      <trkpt lat="43.37578" lon="6.11973">
        <ele>332.39999389648</ele>
        <time>2016-03-09T15:36:25Z</time>
      </trkpt>
      <trkpt lat="43.3759" lon="6.11961">
        <ele>332.20001220703</ele>
        <time>2016-03-09T15:36:27Z</time>
      </trkpt>
      <trkpt lat="43.37594" lon="6.11954">
        <ele>331.39999389648</ele>
        <time>2016-03-09T15:36:28Z</time>
      </trkpt>
      <trkpt lat="43.376" lon="6.11946">
        <ele>330.20001220703</ele>
        <time>2016-03-09T15:36:29Z</time>
      </trkpt>
      <trkpt lat="43.37605" lon="6.1194">
        <ele>329</ele>
        <time>2016-03-09T15:36:30Z</time>
      </trkpt>
      <trkpt lat="43.3761" lon="6.11931">
        <ele>328</ele>
        <time>2016-03-09T15:36:31Z</time>
      </trkpt>
      <trkpt lat="43.37616" lon="6.11922">
        <ele>326.39999389648</ele>
        <time>2016-03-09T15:36:32Z</time>
      </trkpt>
      <trkpt lat="43.37621" lon="6.11914">
        <ele>324.20001220703</ele>
        <time>2016-03-09T15:36:33Z</time>
      </trkpt>
      <trkpt lat="43.37627" lon="6.11906">
        <ele>322.79998779297</ele>
        <time>2016-03-09T15:36:34Z</time>
      </trkpt>
      <trkpt lat="43.37642" lon="6.11887">
        <ele>321.39999389648</ele>
        <time>2016-03-09T15:36:36Z</time>
      </trkpt>
      <trkpt lat="43.37655" lon="6.11866">
        <ele>319.20001220703</ele>
        <time>2016-03-09T15:36:38Z</time>
      </trkpt>
      <trkpt lat="43.37675" lon="6.11838">
        <ele>317.60000610352</ele>
        <time>2016-03-09T15:36:41Z</time>
      </trkpt>
      <trkpt lat="43.3768" lon="6.11828">
        <ele>316.39999389648</ele>
        <time>2016-03-09T15:36:42Z</time>
      </trkpt>
      <trkpt lat="43.37688" lon="6.11804">
        <ele>314.60000610352</ele>
        <time>2016-03-09T15:36:44Z</time>
      </trkpt>
      <trkpt lat="43.37693" lon="6.11791">
        <ele>313.39999389648</ele>
        <time>2016-03-09T15:36:45Z</time>
      </trkpt>
      <trkpt lat="43.37698" lon="6.1178">
        <ele>312.20001220703</ele>
        <time>2016-03-09T15:36:46Z</time>
      </trkpt>
      <trkpt lat="43.37721" lon="6.11734">
        <ele>310.39999389648</ele>
        <time>2016-03-09T15:36:50Z</time>
      </trkpt>
      <trkpt lat="43.37732" lon="6.11712">
        <ele>309.20001220703</ele>
        <time>2016-03-09T15:36:52Z</time>
      </trkpt>
      <trkpt lat="43.37757" lon="6.11658">
        <ele>308</ele>
        <time>2016-03-09T15:36:57Z</time>
      </trkpt>
      <trkpt lat="43.37767" lon="6.11639">
        <ele>306.79998779297</ele>
        <time>2016-03-09T15:36:59Z</time>
      </trkpt>
      <trkpt lat="43.37779" lon="6.1162">
        <ele>304.79998779297</ele>
        <time>2016-03-09T15:37:01Z</time>
      </trkpt>
      <trkpt lat="43.37792" lon="6.11602">
        <ele>304</ele>
        <time>2016-03-09T15:37:03Z</time>
      </trkpt>
      <trkpt lat="43.37804" lon="6.11588">
        <ele>303.60000610352</ele>
        <time>2016-03-09T15:37:05Z</time>
      </trkpt>
      <trkpt lat="43.37818" lon="6.11568">
        <ele>303.20001220703</ele>
        <time>2016-03-09T15:37:08Z</time>
      </trkpt>
      <trkpt lat="43.37821" lon="6.1156">
        <ele>302.60000610352</ele>
        <time>2016-03-09T15:37:09Z</time>
      </trkpt>
      <trkpt lat="43.37845" lon="6.11498">
        <ele>300.60000610352</ele>
        <time>2016-03-09T15:37:16Z</time>
      </trkpt>
      <trkpt lat="43.37853" lon="6.11485">
        <ele>298.79998779297</ele>
        <time>2016-03-09T15:37:18Z</time>
      </trkpt>
      <trkpt lat="43.37886" lon="6.11469">
        <ele>297.79998779297</ele>
        <time>2016-03-09T15:37:24Z</time>
      </trkpt>
      <trkpt lat="43.37891" lon="6.11465">
        <ele>297.60000610352</ele>
        <time>2016-03-09T15:37:25Z</time>
      </trkpt>
      <trkpt lat="43.37904" lon="6.11454">
        <ele>298.20001220703</ele>
        <time>2016-03-09T15:37:28Z</time>
      </trkpt>
      <trkpt lat="43.37934" lon="6.11416">
        <ele>297.79998779297</ele>
        <time>2016-03-09T15:37:37Z</time>
      </trkpt>
      <trkpt lat="43.37951" lon="6.11395">
        <ele>297.20001220703</ele>
        <time>2016-03-09T15:37:42Z</time>
      </trkpt>
      <trkpt lat="43.37979" lon="6.11365">
        <ele>297.20001220703</ele>
        <time>2016-03-09T15:37:49Z</time>
      </trkpt>
      <trkpt lat="43.37994" lon="6.11342">
        <ele>297</ele>
        <time>2016-03-09T15:37:54Z</time>
      </trkpt>
      <trkpt lat="43.37999" lon="6.11331">
        <ele>297.20001220703</ele>
        <time>2016-03-09T15:37:56Z</time>
      </trkpt>
      <trkpt lat="43.38007" lon="6.11316">
        <ele>297.20001220703</ele>
        <time>2016-03-09T15:37:59Z</time>
      </trkpt>
      <trkpt lat="43.38026" lon="6.11277">
        <ele>297.79998779297</ele>
        <time>2016-03-09T15:38:06Z</time>
      </trkpt>
      <trkpt lat="43.38042" lon="6.11245">
        <ele>298.20001220703</ele>
        <time>2016-03-09T15:38:12Z</time>
      </trkpt>
      <trkpt lat="43.38064" lon="6.11211">
        <ele>298</ele>
        <time>2016-03-09T15:38:20Z</time>
      </trkpt>
      <trkpt lat="43.38095" lon="6.11177">
        <ele>297</ele>
        <time>2016-03-09T15:38:28Z</time>
      </trkpt>
      <trkpt lat="43.38116" lon="6.11152">
        <ele>295.60000610352</ele>
        <time>2016-03-09T15:38:32Z</time>
      </trkpt>
      <trkpt lat="43.38128" lon="6.1114">
        <ele>294.60000610352</ele>
        <time>2016-03-09T15:38:34Z</time>
      </trkpt>
      <trkpt lat="43.38145" lon="6.11117">
        <ele>294.20001220703</ele>
        <time>2016-03-09T15:38:37Z</time>
      </trkpt>
      <trkpt lat="43.3815" lon="6.11109">
        <ele>293.79998779297</ele>
        <time>2016-03-09T15:38:38Z</time>
      </trkpt>
      <trkpt lat="43.38154" lon="6.111">
        <ele>293.20001220703</ele>
        <time>2016-03-09T15:38:39Z</time>
      </trkpt>
      <trkpt lat="43.38157" lon="6.11091">
        <ele>292.79998779297</ele>
        <time>2016-03-09T15:38:40Z</time>
      </trkpt>
      <trkpt lat="43.38163" lon="6.11072">
        <ele>292</ele>
        <time>2016-03-09T15:38:42Z</time>
      </trkpt>
      <trkpt lat="43.38172" lon="6.11032">
        <ele>291</ele>
        <time>2016-03-09T15:38:46Z</time>
      </trkpt>
      <trkpt lat="43.38182" lon="6.1098">
        <ele>289.79998779297</ele>
        <time>2016-03-09T15:38:51Z</time>
      </trkpt>
      <trkpt lat="43.38186" lon="6.10959">
        <ele>288.60000610352</ele>
        <time>2016-03-09T15:38:53Z</time>
      </trkpt>
      <trkpt lat="43.38193" lon="6.10921">
        <ele>287.79998779297</ele>
        <time>2016-03-09T15:38:57Z</time>
      </trkpt>
      <trkpt lat="43.38195" lon="6.10914">
        <ele>287.60000610352</ele>
        <time>2016-03-09T15:38:58Z</time>
      </trkpt>
      <trkpt lat="43.38198" lon="6.1089">
        <ele>286.39999389648</ele>
        <time>2016-03-09T15:39:03Z</time>
      </trkpt>
      <trkpt lat="43.38198" lon="6.10889">
        <ele>286.20001220703</ele>
        <time>2016-03-09T15:39:38Z</time>
      </trkpt>
      <trkpt lat="43.38202" lon="6.10889">
        <ele>286.20001220703</ele>
        <time>2016-03-09T15:39:51Z</time>
      </trkpt>
      <trkpt lat="43.38259" lon="6.10906">
        <ele>285.79998779297</ele>
        <time>2016-03-09T15:40:05Z</time>
      </trkpt>
      <trkpt lat="43.38277" lon="6.10911">
        <ele>285.60000610352</ele>
        <time>2016-03-09T15:40:09Z</time>
      </trkpt>
      <trkpt lat="43.38318" lon="6.10925">
        <ele>286</ele>
        <time>2016-03-09T15:40:19Z</time>
      </trkpt>
      <trkpt lat="43.38333" lon="6.10931">
        <ele>285.79998779297</ele>
        <time>2016-03-09T15:40:23Z</time>
      </trkpt>
      <trkpt lat="43.38337" lon="6.10931">
        <ele>286</ele>
        <time>2016-03-09T15:40:24Z</time>
      </trkpt>
      <trkpt lat="43.38356" lon="6.10938">
        <ele>286.60000610352</ele>
        <time>2016-03-09T15:40:29Z</time>
      </trkpt>
      <trkpt lat="43.38372" lon="6.10943">
        <ele>286.60000610352</ele>
        <time>2016-03-09T15:40:33Z</time>
      </trkpt>
      <trkpt lat="43.38388" lon="6.10947">
        <ele>287.20001220703</ele>
        <time>2016-03-09T15:40:37Z</time>
      </trkpt>
      <trkpt lat="43.38404" lon="6.10951">
        <ele>287.39999389648</ele>
        <time>2016-03-09T15:40:41Z</time>
      </trkpt>
      <trkpt lat="43.38412" lon="6.10953">
        <ele>288.20001220703</ele>
        <time>2016-03-09T15:40:43Z</time>
      </trkpt>
      <trkpt lat="43.38448" lon="6.10958">
        <ele>289.39999389648</ele>
        <time>2016-03-09T15:40:53Z</time>
      </trkpt>
      <trkpt lat="43.38461" lon="6.1096">
        <ele>289.60000610352</ele>
        <time>2016-03-09T15:40:58Z</time>
      </trkpt>
      <trkpt lat="43.38463" lon="6.1096">
        <ele>290</ele>
        <time>2016-03-09T15:41:05Z</time>
      </trkpt>
      <trkpt lat="43.38464" lon="6.1096">
        <ele>289.79998779297</ele>
        <time>2016-03-09T15:41:12Z</time>
      </trkpt>
      <trkpt lat="43.38488" lon="6.10965">
        <ele>290.20001220703</ele>
        <time>2016-03-09T15:41:27Z</time>
      </trkpt>
      <trkpt lat="43.38498" lon="6.10967">
        <ele>291.39999389648</ele>
        <time>2016-03-09T15:41:31Z</time>
      </trkpt>
      <trkpt lat="43.38503" lon="6.1097">
        <ele>292.20001220703</ele>
        <time>2016-03-09T15:41:34Z</time>
      </trkpt>
      <trkpt lat="43.38506" lon="6.10971">
        <ele>292.60000610352</ele>
        <time>2016-03-09T15:41:35Z</time>
      </trkpt>
      <trkpt lat="43.38517" lon="6.10972">
        <ele>293</ele>
        <time>2016-03-09T15:41:40Z</time>
      </trkpt>
      <trkpt lat="43.3852" lon="6.10973">
        <ele>293.79998779297</ele>
        <time>2016-03-09T15:41:42Z</time>
      </trkpt>
      <trkpt lat="43.38526" lon="6.10976">
        <ele>294.79998779297</ele>
        <time>2016-03-09T15:41:46Z</time>
      </trkpt>
      <trkpt lat="43.38542" lon="6.10983">
        <ele>295.79998779297</ele>
        <time>2016-03-09T15:41:55Z</time>
      </trkpt>
      <trkpt lat="43.38566" lon="6.1099">
        <ele>296.79998779297</ele>
        <time>2016-03-09T15:42:07Z</time>
      </trkpt>
      <trkpt lat="43.38579" lon="6.10991">
        <ele>298</ele>
        <time>2016-03-09T15:42:14Z</time>
      </trkpt>
      <trkpt lat="43.38597" lon="6.10991">
        <ele>299</ele>
        <time>2016-03-09T15:42:24Z</time>
      </trkpt>
      <trkpt lat="43.38606" lon="6.10993">
        <ele>299.20001220703</ele>
        <time>2016-03-09T15:42:30Z</time>
      </trkpt>
      <trkpt lat="43.38612" lon="6.10998">
        <ele>299.60000610352</ele>
        <time>2016-03-09T15:42:34Z</time>
      </trkpt>
      <trkpt lat="43.3862" lon="6.11004">
        <ele>299.60000610352</ele>
        <time>2016-03-09T15:42:39Z</time>
      </trkpt>
      <trkpt lat="43.38627" lon="6.11011">
        <ele>299.39999389648</ele>
        <time>2016-03-09T15:42:43Z</time>
      </trkpt>
      <trkpt lat="43.38631" lon="6.11014">
        <ele>298.60000610352</ele>
        <time>2016-03-09T15:42:47Z</time>
      </trkpt>
      <trkpt lat="43.38639" lon="6.11006">
        <ele>298</ele>
        <time>2016-03-09T15:42:56Z</time>
      </trkpt>
      <trkpt lat="43.38644" lon="6.11004">
        <ele>297.60000610352</ele>
        <time>2016-03-09T15:42:58Z</time>
      </trkpt>
      <trkpt lat="43.38648" lon="6.11004">
        <ele>297.39999389648</ele>
        <time>2016-03-09T15:43:01Z</time>
      </trkpt>
      <trkpt lat="43.38657" lon="6.11002">
        <ele>296.39999389648</ele>
        <time>2016-03-09T15:43:05Z</time>
      </trkpt>
      <trkpt lat="43.38669" lon="6.10933">
        <ele>295.39999389648</ele>
        <time>2016-03-09T15:43:24Z</time>
      </trkpt>
      <trkpt lat="43.38689" lon="6.10863">
        <ele>295</ele>
        <time>2016-03-09T15:43:40Z</time>
      </trkpt>
      <trkpt lat="43.38692" lon="6.10838">
        <ele>295.60000610352</ele>
        <time>2016-03-09T15:43:46Z</time>
      </trkpt>
      <trkpt lat="43.38708" lon="6.10813">
        <ele>295.20001220703</ele>
        <time>2016-03-09T15:43:55Z</time>
      </trkpt>
      <trkpt lat="43.38726" lon="6.10799">
        <ele>293.79998779297</ele>
        <time>2016-03-09T15:44:01Z</time>
      </trkpt>
      <trkpt lat="43.38737" lon="6.10775">
        <ele>295</ele>
        <time>2016-03-09T15:44:08Z</time>
      </trkpt>
      <trkpt lat="43.38758" lon="6.10768">
        <ele>293.79998779297</ele>
        <time>2016-03-09T15:44:15Z</time>
      </trkpt>
      <trkpt lat="43.38765" lon="6.10761">
        <ele>292.79998779297</ele>
        <time>2016-03-09T15:44:18Z</time>
      </trkpt>
      <trkpt lat="43.38766" lon="6.1076">
        <ele>292.60000610352</ele>
        <time>2016-03-09T15:44:30Z</time>
      </trkpt>
      <trkpt lat="43.38766" lon="6.1076">
        <ele>292.39999389648</ele>
        <time>2016-03-09T15:44:42Z</time>
      </trkpt>
      <trkpt lat="43.3877" lon="6.1076">
        <ele>292.39999389648</ele>
        <time>2016-03-09T15:44:49Z</time>
      </trkpt>
      <trkpt lat="43.38777" lon="6.10759">
        <ele>291.79998779297</ele>
        <time>2016-03-09T15:44:55Z</time>
      </trkpt>
      <trkpt lat="43.38779" lon="6.1076">
        <ele>291.60000610352</ele>
        <time>2016-03-09T15:44:56Z</time>
      </trkpt>
      <trkpt lat="43.38791" lon="6.1076">
        <ele>290.39999389648</ele>
        <time>2016-03-09T15:45:01Z</time>
      </trkpt>
      <trkpt lat="43.38831" lon="6.10757">
        <ele>289.39999389648</ele>
        <time>2016-03-09T15:45:11Z</time>
      </trkpt>
      <trkpt lat="43.38839" lon="6.10758">
        <ele>288.60000610352</ele>
        <time>2016-03-09T15:45:13Z</time>
      </trkpt>
      <trkpt lat="43.38857" lon="6.10757">
        <ele>289</ele>
        <time>2016-03-09T15:45:17Z</time>
      </trkpt>
      <trkpt lat="43.38873" lon="6.10759">
        <ele>288.20001220703</ele>
        <time>2016-03-09T15:45:20Z</time>
      </trkpt>
      <trkpt lat="43.38883" lon="6.10761">
        <ele>288.20001220703</ele>
        <time>2016-03-09T15:45:22Z</time>
      </trkpt>
      <trkpt lat="43.38897" lon="6.10764">
        <ele>288</ele>
        <time>2016-03-09T15:45:25Z</time>
      </trkpt>
      <trkpt lat="43.38913" lon="6.1078">
        <ele>287</ele>
        <time>2016-03-09T15:45:29Z</time>
      </trkpt>
      <trkpt lat="43.38919" lon="6.10799">
        <ele>287.20001220703</ele>
        <time>2016-03-09T15:45:32Z</time>
      </trkpt>
      <trkpt lat="43.3892" lon="6.10806">
        <ele>287.20001220703</ele>
        <time>2016-03-09T15:45:33Z</time>
      </trkpt>
      <trkpt lat="43.38943" lon="6.1083">
        <ele>286.39999389648</ele>
        <time>2016-03-09T15:45:39Z</time>
      </trkpt>
      <trkpt lat="43.38972" lon="6.10842">
        <ele>286</ele>
        <time>2016-03-09T15:45:45Z</time>
      </trkpt>
      <trkpt lat="43.38992" lon="6.10848">
        <ele>286</ele>
        <time>2016-03-09T15:45:49Z</time>
      </trkpt>
      <trkpt lat="43.38997" lon="6.10847">
        <ele>286</ele>
        <time>2016-03-09T15:45:50Z</time>
      </trkpt>
      <trkpt lat="43.3904" lon="6.10829">
        <ele>284.79998779297</ele>
        <time>2016-03-09T15:45:59Z</time>
      </trkpt>
      <trkpt lat="43.3908" lon="6.10806">
        <ele>284.79998779297</ele>
        <time>2016-03-09T15:46:08Z</time>
      </trkpt>
      <trkpt lat="43.391" lon="6.10785">
        <ele>284.39999389648</ele>
        <time>2016-03-09T15:46:13Z</time>
      </trkpt>
      <trkpt lat="43.39111" lon="6.10778">
        <ele>284</ele>
        <time>2016-03-09T15:46:15Z</time>
      </trkpt>
      <trkpt lat="43.39116" lon="6.10775">
        <ele>283.79998779297</ele>
        <time>2016-03-09T15:46:16Z</time>
      </trkpt>
      <trkpt lat="43.39133" lon="6.10766">
        <ele>284</ele>
        <time>2016-03-09T15:46:19Z</time>
      </trkpt>
      <trkpt lat="43.39145" lon="6.10758">
        <ele>283.20001220703</ele>
        <time>2016-03-09T15:46:21Z</time>
      </trkpt>
      <trkpt lat="43.39151" lon="6.10753">
        <ele>282.60000610352</ele>
        <time>2016-03-09T15:46:22Z</time>
      </trkpt>
      <trkpt lat="43.39165" lon="6.10733">
        <ele>281.79998779297</ele>
        <time>2016-03-09T15:46:25Z</time>
      </trkpt>
      <trkpt lat="43.39168" lon="6.10724">
        <ele>281.39999389648</ele>
        <time>2016-03-09T15:46:26Z</time>
      </trkpt>
      <trkpt lat="43.39172" lon="6.10696">
        <ele>280.79998779297</ele>
        <time>2016-03-09T15:46:29Z</time>
      </trkpt>
      <trkpt lat="43.39176" lon="6.10681">
        <ele>280.79998779297</ele>
        <time>2016-03-09T15:46:31Z</time>
      </trkpt>
      <trkpt lat="43.39196" lon="6.10647">
        <ele>280.79998779297</ele>
        <time>2016-03-09T15:46:37Z</time>
      </trkpt>
      <trkpt lat="43.39214" lon="6.10634">
        <ele>280.20001220703</ele>
        <time>2016-03-09T15:46:42Z</time>
      </trkpt>
      <trkpt lat="43.39218" lon="6.10631">
        <ele>280.20001220703</ele>
        <time>2016-03-09T15:46:43Z</time>
      </trkpt>
      <trkpt lat="43.39246" lon="6.10602">
        <ele>280.79998779297</ele>
        <time>2016-03-09T15:46:53Z</time>
      </trkpt>
      <trkpt lat="43.39264" lon="6.10571">
        <ele>280.79998779297</ele>
        <time>2016-03-09T15:47:00Z</time>
      </trkpt>
      <trkpt lat="43.39273" lon="6.10543">
        <ele>280.79998779297</ele>
        <time>2016-03-09T15:47:05Z</time>
      </trkpt>
      <trkpt lat="43.39288" lon="6.10509">
        <ele>280.20001220703</ele>
        <time>2016-03-09T15:47:11Z</time>
      </trkpt>
      <trkpt lat="43.39295" lon="6.10491">
        <ele>279.20001220703</ele>
        <time>2016-03-09T15:47:14Z</time>
      </trkpt>
      <trkpt lat="43.39312" lon="6.1046">
        <ele>278.20001220703</ele>
        <time>2016-03-09T15:47:19Z</time>
      </trkpt>
      <trkpt lat="43.39319" lon="6.10447">
        <ele>276.39999389648</ele>
        <time>2016-03-09T15:47:21Z</time>
      </trkpt>
      <trkpt lat="43.39341" lon="6.1042">
        <ele>275.39999389648</ele>
        <time>2016-03-09T15:47:26Z</time>
      </trkpt>
      <trkpt lat="43.39369" lon="6.10408">
        <ele>274.20001220703</ele>
        <time>2016-03-09T15:47:35Z</time>
      </trkpt>
      <trkpt lat="43.39381" lon="6.10376">
        <ele>273.20001220703</ele>
        <time>2016-03-09T15:47:42Z</time>
      </trkpt>
      <trkpt lat="43.39389" lon="6.10362">
        <ele>272.60000610352</ele>
        <time>2016-03-09T15:47:45Z</time>
      </trkpt>
      <trkpt lat="43.39403" lon="6.1034">
        <ele>273</ele>
        <time>2016-03-09T15:47:50Z</time>
      </trkpt>
      <trkpt lat="43.39425" lon="6.10307">
        <ele>272</ele>
        <time>2016-03-09T15:47:57Z</time>
      </trkpt>
      <trkpt lat="43.39453" lon="6.10282">
        <ele>270.60000610352</ele>
        <time>2016-03-09T15:48:04Z</time>
      </trkpt>
      <trkpt lat="43.3948" lon="6.10254">
        <ele>269.79998779297</ele>
        <time>2016-03-09T15:48:10Z</time>
      </trkpt>
      <trkpt lat="43.39484" lon="6.10248">
        <ele>269.20001220703</ele>
        <time>2016-03-09T15:48:11Z</time>
      </trkpt>
      <trkpt lat="43.39488" lon="6.10242">
        <ele>269.39999389648</ele>
        <time>2016-03-09T15:48:12Z</time>
      </trkpt>
      <trkpt lat="43.39495" lon="6.10227">
        <ele>268.60000610352</ele>
        <time>2016-03-09T15:48:14Z</time>
      </trkpt>
      <trkpt lat="43.39503" lon="6.10203">
        <ele>269</ele>
        <time>2016-03-09T15:48:17Z</time>
      </trkpt>
      <trkpt lat="43.39508" lon="6.10179">
        <ele>268</ele>
        <time>2016-03-09T15:48:20Z</time>
      </trkpt>
      <trkpt lat="43.39513" lon="6.10163">
        <ele>266.79998779297</ele>
        <time>2016-03-09T15:48:22Z</time>
      </trkpt>
      <trkpt lat="43.39526" lon="6.10118">
        <ele>265.79998779297</ele>
        <time>2016-03-09T15:48:27Z</time>
      </trkpt>
      <trkpt lat="43.39532" lon="6.10103">
        <ele>265.39999389648</ele>
        <time>2016-03-09T15:48:29Z</time>
      </trkpt>
      <trkpt lat="43.39541" lon="6.1009">
        <ele>264.39999389648</ele>
        <time>2016-03-09T15:48:31Z</time>
      </trkpt>
      <trkpt lat="43.39544" lon="6.10083">
        <ele>264</ele>
        <time>2016-03-09T15:48:32Z</time>
      </trkpt>
      <trkpt lat="43.39548" lon="6.10067">
        <ele>263.39999389648</ele>
        <time>2016-03-09T15:48:34Z</time>
      </trkpt>
      <trkpt lat="43.39558" lon="6.10025">
        <ele>262.79998779297</ele>
        <time>2016-03-09T15:48:40Z</time>
      </trkpt>
      <trkpt lat="43.39553" lon="6.10008">
        <ele>263</ele>
        <time>2016-03-09T15:48:45Z</time>
      </trkpt>
      <trkpt lat="43.39554" lon="6.09973">
        <ele>263.20001220703</ele>
        <time>2016-03-09T15:48:57Z</time>
      </trkpt>
      <trkpt lat="43.39553" lon="6.09948">
        <ele>264.20001220703</ele>
        <time>2016-03-09T15:49:04Z</time>
      </trkpt>
      <trkpt lat="43.39552" lon="6.09943">
        <ele>264.79998779297</ele>
        <time>2016-03-09T15:49:05Z</time>
      </trkpt>
      <trkpt lat="43.3955" lon="6.09937">
        <ele>265.60000610352</ele>
        <time>2016-03-09T15:49:07Z</time>
      </trkpt>
      <trkpt lat="43.39549" lon="6.09934">
        <ele>266</ele>
        <time>2016-03-09T15:49:08Z</time>
      </trkpt>
      <trkpt lat="43.39547" lon="6.0993">
        <ele>266.79998779297</ele>
        <time>2016-03-09T15:49:10Z</time>
      </trkpt>
      <trkpt lat="43.39546" lon="6.09928">
        <ele>267</ele>
        <time>2016-03-09T15:49:11Z</time>
      </trkpt>
      <trkpt lat="43.39545" lon="6.09924">
        <ele>267.20001220703</ele>
        <time>2016-03-09T15:49:13Z</time>
      </trkpt>
      <trkpt lat="43.39546" lon="6.09907">
        <ele>268</ele>
        <time>2016-03-09T15:49:20Z</time>
      </trkpt>
      <trkpt lat="43.39557" lon="6.09872">
        <ele>267.79998779297</ele>
        <time>2016-03-09T15:49:33Z</time>
      </trkpt>
      <trkpt lat="43.3956" lon="6.09836">
        <ele>268</ele>
        <time>2016-03-09T15:49:43Z</time>
      </trkpt>
      <trkpt lat="43.39565" lon="6.09827">
        <ele>268.20001220703</ele>
        <time>2016-03-09T15:49:47Z</time>
      </trkpt>
      <trkpt lat="43.39566" lon="6.09819">
        <ele>268</ele>
        <time>2016-03-09T15:49:51Z</time>
      </trkpt>
      <trkpt lat="43.39569" lon="6.09787">
        <ele>268.20001220703</ele>
        <time>2016-03-09T15:50:04Z</time>
      </trkpt>
      <trkpt lat="43.3959" lon="6.09713">
        <ele>267.79998779297</ele>
        <time>2016-03-09T15:50:21Z</time>
      </trkpt>
      <trkpt lat="43.396" lon="6.09669">
        <ele>268</ele>
        <time>2016-03-09T15:50:29Z</time>
      </trkpt>
      <trkpt lat="43.39611" lon="6.09615">
        <ele>267.79998779297</ele>
        <time>2016-03-09T15:50:40Z</time>
      </trkpt>
      <trkpt lat="43.39619" lon="6.09584">
        <ele>267.79998779297</ele>
        <time>2016-03-09T15:50:48Z</time>
      </trkpt>
      <trkpt lat="43.39619" lon="6.09578">
        <ele>268</ele>
        <time>2016-03-09T15:51:02Z</time>
      </trkpt>
      <trkpt lat="43.39619" lon="6.09578">
        <ele>267.60000610352</ele>
        <time>2016-03-09T15:51:09Z</time>
      </trkpt>
      <trkpt lat="43.39619" lon="6.09578">
        <ele>267.60000610352</ele>
        <time>2016-03-09T15:51:14Z</time>
      </trkpt>
      <trkpt lat="43.39619" lon="6.09578">
        <ele>267.79998779297</ele>
        <time>2016-03-09T15:51:39Z</time>
      </trkpt>
      <trkpt lat="43.39619" lon="6.09578">
        <ele>267.60000610352</ele>
        <time>2016-03-09T15:52:49Z</time>
      </trkpt>
      <trkpt lat="43.39619" lon="6.09578">
        <ele>267.39999389648</ele>
        <time>2016-03-09T15:53:26Z</time>
      </trkpt>
      <trkpt lat="43.39619" lon="6.09578">
        <ele>267.79998779297</ele>
        <time>2016-03-09T15:53:39Z</time>
      </trkpt>
      <trkpt lat="43.39623" lon="6.09569">
        <ele>267</ele>
        <time>2016-03-09T15:53:47Z</time>
      </trkpt>
      <trkpt lat="43.39632" lon="6.09545">
        <ele>266</ele>
        <time>2016-03-09T15:53:52Z</time>
      </trkpt>
      <trkpt lat="43.3964" lon="6.09536">
        <ele>264.79998779297</ele>
        <time>2016-03-09T15:53:54Z</time>
      </trkpt>
      <trkpt lat="43.39658" lon="6.09507">
        <ele>263.20001220703</ele>
        <time>2016-03-09T15:53:59Z</time>
      </trkpt>
      <trkpt lat="43.3966" lon="6.095">
        <ele>262.20001220703</ele>
        <time>2016-03-09T15:54:00Z</time>
      </trkpt>
      <trkpt lat="43.39663" lon="6.09492">
        <ele>261</ele>
        <time>2016-03-09T15:54:01Z</time>
      </trkpt>
      <trkpt lat="43.39666" lon="6.09485">
        <ele>259.60000610352</ele>
        <time>2016-03-09T15:54:02Z</time>
      </trkpt>
      <trkpt lat="43.39671" lon="6.09468">
        <ele>258.39999389648</ele>
        <time>2016-03-09T15:54:06Z</time>
      </trkpt>
      <trkpt lat="43.39673" lon="6.09465">
        <ele>257.60000610352</ele>
        <time>2016-03-09T15:54:08Z</time>
      </trkpt>
      <trkpt lat="43.39674" lon="6.09465">
        <ele>257.20001220703</ele>
        <time>2016-03-09T15:54:09Z</time>
      </trkpt>
      <trkpt lat="43.39681" lon="6.09465">
        <ele>256.20001220703</ele>
        <time>2016-03-09T15:54:11Z</time>
      </trkpt>
      <trkpt lat="43.39687" lon="6.09466">
        <ele>254.80000305176</ele>
        <time>2016-03-09T15:54:12Z</time>
      </trkpt>
      <trkpt lat="43.39692" lon="6.09464">
        <ele>253.60000610352</ele>
        <time>2016-03-09T15:54:13Z</time>
      </trkpt>
      <trkpt lat="43.39699" lon="6.09455">
        <ele>252.19999694824</ele>
        <time>2016-03-09T15:54:15Z</time>
      </trkpt>
      <trkpt lat="43.39705" lon="6.09445">
        <ele>251.60000610352</ele>
        <time>2016-03-09T15:54:17Z</time>
      </trkpt>
      <trkpt lat="43.39727" lon="6.09407">
        <ele>251</ele>
        <time>2016-03-09T15:54:25Z</time>
      </trkpt>
      <trkpt lat="43.3973" lon="6.09402">
        <ele>250.60000610352</ele>
        <time>2016-03-09T15:54:26Z</time>
      </trkpt>
      <trkpt lat="43.3974" lon="6.09389">
        <ele>250.80000305176</ele>
        <time>2016-03-09T15:54:29Z</time>
      </trkpt>
      <trkpt lat="43.3975" lon="6.09368">
        <ele>250.39999389648</ele>
        <time>2016-03-09T15:54:33Z</time>
      </trkpt>
      <trkpt lat="43.39761" lon="6.09345">
        <ele>250.39999389648</ele>
        <time>2016-03-09T15:54:37Z</time>
      </trkpt>
      <trkpt lat="43.39769" lon="6.09328">
        <ele>250.19999694824</ele>
        <time>2016-03-09T15:54:40Z</time>
      </trkpt>
      <trkpt lat="43.3978" lon="6.09302">
        <ele>250.60000610352</ele>
        <time>2016-03-09T15:54:44Z</time>
      </trkpt>
      <trkpt lat="43.39783" lon="6.0929">
        <ele>250.60000610352</ele>
        <time>2016-03-09T15:54:46Z</time>
      </trkpt>
      <trkpt lat="43.39788" lon="6.09272">
        <ele>250.39999389648</ele>
        <time>2016-03-09T15:54:49Z</time>
      </trkpt>
      <trkpt lat="43.39792" lon="6.09247">
        <ele>251</ele>
        <time>2016-03-09T15:54:53Z</time>
      </trkpt>
      <trkpt lat="43.39796" lon="6.09224">
        <ele>251.39999389648</ele>
        <time>2016-03-09T15:54:57Z</time>
      </trkpt>
      <trkpt lat="43.39798" lon="6.09194">
        <ele>251</ele>
        <time>2016-03-09T15:55:02Z</time>
      </trkpt>
      <trkpt lat="43.39798" lon="6.09172">
        <ele>251.60000610352</ele>
        <time>2016-03-09T15:55:06Z</time>
      </trkpt>
      <trkpt lat="43.39797" lon="6.09158">
        <ele>252</ele>
        <time>2016-03-09T15:55:09Z</time>
      </trkpt>
      <trkpt lat="43.39801" lon="6.09126">
        <ele>252.60000610352</ele>
        <time>2016-03-09T15:55:18Z</time>
      </trkpt>
      <trkpt lat="43.39809" lon="6.09093">
        <ele>253.19999694824</ele>
        <time>2016-03-09T15:55:28Z</time>
      </trkpt>
      <trkpt lat="43.3982" lon="6.09058">
        <ele>253.19999694824</ele>
        <time>2016-03-09T15:55:37Z</time>
      </trkpt>
      <trkpt lat="43.39828" lon="6.09045">
        <ele>253</ele>
        <time>2016-03-09T15:55:40Z</time>
      </trkpt>
      <trkpt lat="43.39841" lon="6.09031">
        <ele>252.39999389648</ele>
        <time>2016-03-09T15:55:43Z</time>
      </trkpt>
      <trkpt lat="43.39845" lon="6.09027">
        <ele>251.80000305176</ele>
        <time>2016-03-09T15:55:44Z</time>
      </trkpt>
      <trkpt lat="43.39858" lon="6.09012">
        <ele>251.19999694824</ele>
        <time>2016-03-09T15:55:47Z</time>
      </trkpt>
      <trkpt lat="43.39867" lon="6.09002">
        <ele>250.60000610352</ele>
        <time>2016-03-09T15:55:49Z</time>
      </trkpt>
      <trkpt lat="43.39881" lon="6.08991">
        <ele>250.60000610352</ele>
        <time>2016-03-09T15:55:52Z</time>
      </trkpt>
      <trkpt lat="43.39903" lon="6.08987">
        <ele>249.60000610352</ele>
        <time>2016-03-09T15:55:56Z</time>
      </trkpt>
      <trkpt lat="43.39921" lon="6.08987">
        <ele>248.19999694824</ele>
        <time>2016-03-09T15:55:59Z</time>
      </trkpt>
      <trkpt lat="43.39941" lon="6.08986">
        <ele>246.80000305176</ele>
        <time>2016-03-09T15:56:02Z</time>
      </trkpt>
      <trkpt lat="43.39954" lon="6.08983">
        <ele>245.60000610352</ele>
        <time>2016-03-09T15:56:04Z</time>
      </trkpt>
      <trkpt lat="43.39981" lon="6.08977">
        <ele>245.19999694824</ele>
        <time>2016-03-09T15:56:08Z</time>
      </trkpt>
      <trkpt lat="43.40013" lon="6.08968">
        <ele>244.60000610352</ele>
        <time>2016-03-09T15:56:13Z</time>
      </trkpt>
      <trkpt lat="43.40028" lon="6.08948">
        <ele>243.80000305176</ele>
        <time>2016-03-09T15:56:17Z</time>
      </trkpt>
      <trkpt lat="43.40035" lon="6.08912">
        <ele>244.39999389648</ele>
        <time>2016-03-09T15:56:23Z</time>
      </trkpt>
      <trkpt lat="43.40041" lon="6.08893">
        <ele>244.39999389648</ele>
        <time>2016-03-09T15:56:26Z</time>
      </trkpt>
      <trkpt lat="43.40045" lon="6.0888">
        <ele>244.19999694824</ele>
        <time>2016-03-09T15:56:28Z</time>
      </trkpt>
      <trkpt lat="43.4005" lon="6.08864">
        <ele>244.39999389648</ele>
        <time>2016-03-09T15:56:30Z</time>
      </trkpt>
      <trkpt lat="43.40055" lon="6.08848">
        <ele>244.19999694824</ele>
        <time>2016-03-09T15:56:32Z</time>
      </trkpt>
      <trkpt lat="43.40067" lon="6.0882">
        <ele>244.60000610352</ele>
        <time>2016-03-09T15:56:36Z</time>
      </trkpt>
      <trkpt lat="43.40073" lon="6.08806">
        <ele>244.19999694824</ele>
        <time>2016-03-09T15:56:38Z</time>
      </trkpt>
      <trkpt lat="43.40084" lon="6.08778">
        <ele>244.60000610352</ele>
        <time>2016-03-09T15:56:42Z</time>
      </trkpt>
      <trkpt lat="43.40094" lon="6.08747">
        <ele>244.60000610352</ele>
        <time>2016-03-09T15:56:46Z</time>
      </trkpt>
      <trkpt lat="43.40098" lon="6.08729">
        <ele>244.80000305176</ele>
        <time>2016-03-09T15:56:48Z</time>
      </trkpt>
      <trkpt lat="43.40102" lon="6.08687">
        <ele>244.19999694824</ele>
        <time>2016-03-09T15:56:53Z</time>
      </trkpt>
      <trkpt lat="43.40098" lon="6.08663">
        <ele>242.39999389648</ele>
        <time>2016-03-09T15:56:56Z</time>
      </trkpt>
      <trkpt lat="43.40097" lon="6.08655">
        <ele>241.39999389648</ele>
        <time>2016-03-09T15:56:57Z</time>
      </trkpt>
      <trkpt lat="43.40125" lon="6.08614">
        <ele>240.80000305176</ele>
        <time>2016-03-09T15:57:04Z</time>
      </trkpt>
      <trkpt lat="43.4015" lon="6.08593">
        <ele>240.39999389648</ele>
        <time>2016-03-09T15:57:09Z</time>
      </trkpt>
      <trkpt lat="43.40163" lon="6.08583">
        <ele>240.39999389648</ele>
        <time>2016-03-09T15:57:12Z</time>
      </trkpt>
      <trkpt lat="43.40167" lon="6.08546">
        <ele>240.39999389648</ele>
        <time>2016-03-09T15:57:19Z</time>
      </trkpt>
      <trkpt lat="43.4017" lon="6.08503">
        <ele>241.39999389648</ele>
        <time>2016-03-09T15:57:28Z</time>
      </trkpt>
      <trkpt lat="43.40173" lon="6.08482">
        <ele>241.39999389648</ele>
        <time>2016-03-09T15:57:32Z</time>
      </trkpt>
      <trkpt lat="43.40181" lon="6.08406">
        <ele>241.60000610352</ele>
        <time>2016-03-09T15:57:46Z</time>
      </trkpt>
      <trkpt lat="43.40184" lon="6.08347">
        <ele>240.80000305176</ele>
        <time>2016-03-09T15:57:55Z</time>
      </trkpt>
      <trkpt lat="43.40186" lon="6.08297">
        <ele>240.80000305176</ele>
        <time>2016-03-09T15:58:03Z</time>
      </trkpt>
      <trkpt lat="43.40189" lon="6.08281">
        <ele>240.39999389648</ele>
        <time>2016-03-09T15:58:06Z</time>
      </trkpt>
      <trkpt lat="43.40188" lon="6.08278">
        <ele>240.19999694824</ele>
        <time>2016-03-09T15:58:07Z</time>
      </trkpt>
      <trkpt lat="43.40187" lon="6.08274">
        <ele>240</ele>
        <time>2016-03-09T15:58:11Z</time>
      </trkpt>
      <trkpt lat="43.40186" lon="6.08273">
        <ele>239.80000305176</ele>
        <time>2016-03-09T15:58:18Z</time>
      </trkpt>
      <trkpt lat="43.40187" lon="6.08273">
        <ele>240</ele>
        <time>2016-03-09T15:58:37Z</time>
      </trkpt>
      <trkpt lat="43.40187" lon="6.08272">
        <ele>239.80000305176</ele>
        <time>2016-03-09T15:59:04Z</time>
      </trkpt>
      <trkpt lat="43.40187" lon="6.08272">
        <ele>239.80000305176</ele>
        <time>2016-03-09T15:59:10Z</time>
      </trkpt>
      <trkpt lat="43.40187" lon="6.08272">
        <ele>239.60000610352</ele>
        <time>2016-03-09T15:59:16Z</time>
      </trkpt>
      <trkpt lat="43.40186" lon="6.08272">
        <ele>239.80000305176</ele>
        <time>2016-03-09T15:59:25Z</time>
      </trkpt>
      <trkpt lat="43.40186" lon="6.08269">
        <ele>239.39999389648</ele>
        <time>2016-03-09T15:59:41Z</time>
      </trkpt>
      <trkpt lat="43.40183" lon="6.08268">
        <ele>239.80000305176</ele>
        <time>2016-03-09T16:00:20Z</time>
      </trkpt>
      <trkpt lat="43.40183" lon="6.08266">
        <ele>239.80000305176</ele>
        <time>2016-03-09T16:00:25Z</time>
      </trkpt>
      <trkpt lat="43.40184" lon="6.0825">
        <ele>239.60000610352</ele>
        <time>2016-03-09T16:00:29Z</time>
      </trkpt>
      <trkpt lat="43.40196" lon="6.08189">
        <ele>239</ele>
        <time>2016-03-09T16:00:40Z</time>
      </trkpt>
      <trkpt lat="43.40199" lon="6.08167">
        <ele>238.80000305176</ele>
        <time>2016-03-09T16:00:44Z</time>
      </trkpt>
      <trkpt lat="43.40199" lon="6.08161">
        <ele>238.60000610352</ele>
        <time>2016-03-09T16:00:45Z</time>
      </trkpt>
      <trkpt lat="43.40199" lon="6.08143">
        <ele>237.80000305176</ele>
        <time>2016-03-09T16:00:48Z</time>
      </trkpt>
      <trkpt lat="43.40199" lon="6.08138">
        <ele>237.60000610352</ele>
        <time>2016-03-09T16:00:49Z</time>
      </trkpt>
      <trkpt lat="43.40192" lon="6.08111">
        <ele>237</ele>
        <time>2016-03-09T16:00:54Z</time>
      </trkpt>
      <trkpt lat="43.40192" lon="6.08098">
        <ele>236.39999389648</ele>
        <time>2016-03-09T16:00:56Z</time>
      </trkpt>
      <trkpt lat="43.40205" lon="6.08065">
        <ele>235.19999694824</ele>
        <time>2016-03-09T16:01:01Z</time>
      </trkpt>
      <trkpt lat="43.40218" lon="6.08048">
        <ele>235.19999694824</ele>
        <time>2016-03-09T16:01:04Z</time>
      </trkpt>
      <trkpt lat="43.4023" lon="6.08033">
        <ele>234.60000610352</ele>
        <time>2016-03-09T16:01:07Z</time>
      </trkpt>
      <trkpt lat="43.40237" lon="6.08024">
        <ele>234.19999694824</ele>
        <time>2016-03-09T16:01:09Z</time>
      </trkpt>
      <trkpt lat="43.40257" lon="6.07997">
        <ele>232.80000305176</ele>
        <time>2016-03-09T16:01:15Z</time>
      </trkpt>
      <trkpt lat="43.40273" lon="6.07971">
        <ele>231.80000305176</ele>
        <time>2016-03-09T16:01:20Z</time>
      </trkpt>
      <trkpt lat="43.40278" lon="6.0796">
        <ele>231.60000610352</ele>
        <time>2016-03-09T16:01:22Z</time>
      </trkpt>
      <trkpt lat="43.40287" lon="6.0793">
        <ele>231</ele>
        <time>2016-03-09T16:01:27Z</time>
      </trkpt>
      <trkpt lat="43.40289" lon="6.07923">
        <ele>230.80000305176</ele>
        <time>2016-03-09T16:01:28Z</time>
      </trkpt>
      <trkpt lat="43.40295" lon="6.07884">
        <ele>230</ele>
        <time>2016-03-09T16:01:34Z</time>
      </trkpt>
      <trkpt lat="43.40297" lon="6.07864">
        <ele>229.60000610352</ele>
        <time>2016-03-09T16:01:37Z</time>
      </trkpt>
      <trkpt lat="43.40306" lon="6.0779">
        <ele>228.80000305176</ele>
        <time>2016-03-09T16:01:51Z</time>
      </trkpt>
      <trkpt lat="43.40306" lon="6.07785">
        <ele>228.60000610352</ele>
        <time>2016-03-09T16:01:52Z</time>
      </trkpt>
      <trkpt lat="43.40309" lon="6.07766">
        <ele>228.39999389648</ele>
        <time>2016-03-09T16:01:55Z</time>
      </trkpt>
      <trkpt lat="43.40313" lon="6.07744">
        <ele>228.39999389648</ele>
        <time>2016-03-09T16:01:58Z</time>
      </trkpt>
      <trkpt lat="43.40319" lon="6.07718">
        <ele>227.39999389648</ele>
        <time>2016-03-09T16:02:01Z</time>
      </trkpt>
      <trkpt lat="43.40325" lon="6.07704">
        <ele>227</ele>
        <time>2016-03-09T16:02:03Z</time>
      </trkpt>
      <trkpt lat="43.40336" lon="6.07688">
        <ele>226.39999389648</ele>
        <time>2016-03-09T16:02:06Z</time>
      </trkpt>
      <trkpt lat="43.40366" lon="6.07652">
        <ele>226</ele>
        <time>2016-03-09T16:02:14Z</time>
      </trkpt>
      <trkpt lat="43.40371" lon="6.07629">
        <ele>226</ele>
        <time>2016-03-09T16:02:18Z</time>
      </trkpt>
      <trkpt lat="43.40374" lon="6.07555">
        <ele>226.39999389648</ele>
        <time>2016-03-09T16:02:36Z</time>
      </trkpt>
      <trkpt lat="43.40377" lon="6.07509">
        <ele>227</ele>
        <time>2016-03-09T16:02:45Z</time>
      </trkpt>
      <trkpt lat="43.40383" lon="6.07479">
        <ele>227</ele>
        <time>2016-03-09T16:02:51Z</time>
      </trkpt>
      <trkpt lat="43.40388" lon="6.0744">
        <ele>226</ele>
        <time>2016-03-09T16:02:59Z</time>
      </trkpt>
      <trkpt lat="43.40388" lon="6.07365">
        <ele>225.80000305176</ele>
        <time>2016-03-09T16:03:12Z</time>
      </trkpt>
      <trkpt lat="43.4038" lon="6.07316">
        <ele>224.80000305176</ele>
        <time>2016-03-09T16:03:20Z</time>
      </trkpt>
      <trkpt lat="43.40381" lon="6.07295">
        <ele>224.19999694824</ele>
        <time>2016-03-09T16:03:24Z</time>
      </trkpt>
      <trkpt lat="43.40386" lon="6.07289">
        <ele>223.80000305176</ele>
        <time>2016-03-09T16:03:26Z</time>
      </trkpt>
      <trkpt lat="43.40393" lon="6.07284">
        <ele>223.19999694824</ele>
        <time>2016-03-09T16:03:28Z</time>
      </trkpt>
      <trkpt lat="43.40404" lon="6.07284">
        <ele>222.80000305176</ele>
        <time>2016-03-09T16:03:30Z</time>
      </trkpt>
      <trkpt lat="43.4043" lon="6.07284">
        <ele>221.80000305176</ele>
        <time>2016-03-09T16:03:34Z</time>
      </trkpt>
      <trkpt lat="43.40445" lon="6.07284">
        <ele>220.60000610352</ele>
        <time>2016-03-09T16:03:36Z</time>
      </trkpt>
      <trkpt lat="43.4047" lon="6.07282">
        <ele>219.60000610352</ele>
        <time>2016-03-09T16:03:40Z</time>
      </trkpt>
      <trkpt lat="43.40498" lon="6.07283">
        <ele>218.60000610352</ele>
        <time>2016-03-09T16:03:45Z</time>
      </trkpt>
      <trkpt lat="43.40507" lon="6.07289">
        <ele>218.39999389648</ele>
        <time>2016-03-09T16:03:47Z</time>
      </trkpt>
      <trkpt lat="43.40512" lon="6.073">
        <ele>218.39999389648</ele>
        <time>2016-03-09T16:03:49Z</time>
      </trkpt>
      <trkpt lat="43.40516" lon="6.07304">
        <ele>218.39999389648</ele>
        <time>2016-03-09T16:03:50Z</time>
      </trkpt>
      <trkpt lat="43.40541" lon="6.07306">
        <ele>218.19999694824</ele>
        <time>2016-03-09T16:03:56Z</time>
      </trkpt>
      <trkpt lat="43.40553" lon="6.07307">
        <ele>217.80000305176</ele>
        <time>2016-03-09T16:04:00Z</time>
      </trkpt>
      <trkpt lat="43.40559" lon="6.07308">
        <ele>218</ele>
        <time>2016-03-09T16:04:08Z</time>
      </trkpt>
      <trkpt lat="43.40559" lon="6.07308">
        <ele>218</ele>
        <time>2016-03-09T16:04:19Z</time>
      </trkpt>
      <trkpt lat="43.40559" lon="6.07308">
        <ele>218</ele>
        <time>2016-03-09T16:04:28Z</time>
      </trkpt>
      <trkpt lat="43.40559" lon="6.07308">
        <ele>217.80000305176</ele>
        <time>2016-03-09T16:04:43Z</time>
      </trkpt>
      <trkpt lat="43.40559" lon="6.07307">
        <ele>217.80000305176</ele>
        <time>2016-03-09T16:05:08Z</time>
      </trkpt>
      <trkpt lat="43.40559" lon="6.07307">
        <ele>218</ele>
        <time>2016-03-09T16:05:23Z</time>
      </trkpt>
      <trkpt lat="43.4056" lon="6.07307">
        <ele>217.80000305176</ele>
        <time>2016-03-09T16:05:35Z</time>
      </trkpt>
      <trkpt lat="43.40567" lon="6.07307">
        <ele>217.80000305176</ele>
        <time>2016-03-09T16:05:38Z</time>
      </trkpt>
      <trkpt lat="43.40597" lon="6.07304">
        <ele>217</ele>
        <time>2016-03-09T16:05:46Z</time>
      </trkpt>
      <trkpt lat="43.406" lon="6.07307">
        <ele>217</ele>
        <time>2016-03-09T16:05:47Z</time>
      </trkpt>
      <trkpt lat="43.4061" lon="6.07317">
        <ele>216.39999389648</ele>
        <time>2016-03-09T16:05:50Z</time>
      </trkpt>
      <trkpt lat="43.40619" lon="6.07332">
        <ele>216.19999694824</ele>
        <time>2016-03-09T16:05:53Z</time>
      </trkpt>
      <trkpt lat="43.40628" lon="6.07345">
        <ele>216</ele>
        <time>2016-03-09T16:05:57Z</time>
      </trkpt>
      <trkpt lat="43.40639" lon="6.07332">
        <ele>215.60000610352</ele>
        <time>2016-03-09T16:06:01Z</time>
      </trkpt>
      <trkpt lat="43.40649" lon="6.07322">
        <ele>214.80000305176</ele>
        <time>2016-03-09T16:06:04Z</time>
      </trkpt>
      <trkpt lat="43.40653" lon="6.07319">
        <ele>214.80000305176</ele>
        <time>2016-03-09T16:06:05Z</time>
      </trkpt>
      <trkpt lat="43.40701" lon="6.07292">
        <ele>213.60000610352</ele>
        <time>2016-03-09T16:06:15Z</time>
      </trkpt>
      <trkpt lat="43.40751" lon="6.07265">
        <ele>212.39999389648</ele>
        <time>2016-03-09T16:06:26Z</time>
      </trkpt>
      <trkpt lat="43.408" lon="6.07227">
        <ele>211.80000305176</ele>
        <time>2016-03-09T16:06:38Z</time>
      </trkpt>
      <trkpt lat="43.40827" lon="6.07184">
        <ele>211.60000610352</ele>
        <time>2016-03-09T16:06:48Z</time>
      </trkpt>
      <trkpt lat="43.40834" lon="6.07168">
        <ele>211.39999389648</ele>
        <time>2016-03-09T16:06:51Z</time>
      </trkpt>
      <trkpt lat="43.40839" lon="6.07153">
        <ele>211.19999694824</ele>
        <time>2016-03-09T16:06:54Z</time>
      </trkpt>
      <trkpt lat="43.40844" lon="6.07137">
        <ele>211.19999694824</ele>
        <time>2016-03-09T16:06:57Z</time>
      </trkpt>
      <trkpt lat="43.40849" lon="6.07072">
        <ele>211.19999694824</ele>
        <time>2016-03-09T16:07:08Z</time>
      </trkpt>
      <trkpt lat="43.40848" lon="6.07061">
        <ele>211</ele>
        <time>2016-03-09T16:07:10Z</time>
      </trkpt>
      <trkpt lat="43.40844" lon="6.07018">
        <ele>210.80000305176</ele>
        <time>2016-03-09T16:07:18Z</time>
      </trkpt>
      <trkpt lat="43.40863" lon="6.07008">
        <ele>211.19999694824</ele>
        <time>2016-03-09T16:07:23Z</time>
      </trkpt>
      <trkpt lat="43.40893" lon="6.07">
        <ele>211.19999694824</ele>
        <time>2016-03-09T16:07:30Z</time>
      </trkpt>
      <trkpt lat="43.40907" lon="6.06965">
        <ele>210.80000305176</ele>
        <time>2016-03-09T16:07:37Z</time>
      </trkpt>
      <trkpt lat="43.40909" lon="6.06959">
        <ele>210.60000610352</ele>
        <time>2016-03-09T16:07:38Z</time>
      </trkpt>
      <trkpt lat="43.40935" lon="6.0695">
        <ele>210.60000610352</ele>
        <time>2016-03-09T16:07:44Z</time>
      </trkpt>
      <trkpt lat="43.40944" lon="6.0695">
        <ele>210.60000610352</ele>
        <time>2016-03-09T16:07:46Z</time>
      </trkpt>
      <trkpt lat="43.40977" lon="6.06938">
        <ele>210.80000305176</ele>
        <time>2016-03-09T16:07:54Z</time>
      </trkpt>
      <trkpt lat="43.40997" lon="6.0693">
        <ele>210.80000305176</ele>
        <time>2016-03-09T16:07:59Z</time>
      </trkpt>
      <trkpt lat="43.41013" lon="6.06917">
        <ele>211.19999694824</ele>
        <time>2016-03-09T16:08:03Z</time>
      </trkpt>
      <trkpt lat="43.41021" lon="6.06895">
        <ele>211.60000610352</ele>
        <time>2016-03-09T16:08:08Z</time>
      </trkpt>
      <trkpt lat="43.41038" lon="6.06883">
        <ele>211.60000610352</ele>
        <time>2016-03-09T16:08:16Z</time>
      </trkpt>
      <trkpt lat="43.41042" lon="6.06881">
        <ele>212</ele>
        <time>2016-03-09T16:08:18Z</time>
      </trkpt>
      <trkpt lat="43.41046" lon="6.06879">
        <ele>212.80000305176</ele>
        <time>2016-03-09T16:08:29Z</time>
      </trkpt>
      <trkpt lat="43.41047" lon="6.06878">
        <ele>213.19999694824</ele>
        <time>2016-03-09T16:08:33Z</time>
      </trkpt>
      <trkpt lat="43.41062" lon="6.0687">
        <ele>213</ele>
        <time>2016-03-09T16:08:42Z</time>
      </trkpt>
      <trkpt lat="43.41066" lon="6.06856">
        <ele>212</ele>
        <time>2016-03-09T16:08:45Z</time>
      </trkpt>
      <trkpt lat="43.41067" lon="6.0685">
        <ele>211.60000610352</ele>
        <time>2016-03-09T16:08:46Z</time>
      </trkpt>
      <trkpt lat="43.41079" lon="6.06822">
        <ele>211.19999694824</ele>
        <time>2016-03-09T16:08:51Z</time>
      </trkpt>
      <trkpt lat="43.41079" lon="6.06816">
        <ele>211</ele>
        <time>2016-03-09T16:08:52Z</time>
      </trkpt>
      <trkpt lat="43.41086" lon="6.06763">
        <ele>211</ele>
        <time>2016-03-09T16:09:00Z</time>
      </trkpt>
      <trkpt lat="43.41107" lon="6.06741">
        <ele>211.39999389648</ele>
        <time>2016-03-09T16:09:06Z</time>
      </trkpt>
      <trkpt lat="43.41145" lon="6.06721">
        <ele>211</ele>
        <time>2016-03-09T16:09:17Z</time>
      </trkpt>
      <trkpt lat="43.4117" lon="6.06722">
        <ele>212</ele>
        <time>2016-03-09T16:09:25Z</time>
      </trkpt>
      <trkpt lat="43.41196" lon="6.06721">
        <ele>212.19999694824</ele>
        <time>2016-03-09T16:09:35Z</time>
      </trkpt>
      <trkpt lat="43.41211" lon="6.0672">
        <ele>212.60000610352</ele>
        <time>2016-03-09T16:09:39Z</time>
      </trkpt>
      <trkpt lat="43.41228" lon="6.06719">
        <ele>213.19999694824</ele>
        <time>2016-03-09T16:09:45Z</time>
      </trkpt>
      <trkpt lat="43.41235" lon="6.06719">
        <ele>214</ele>
        <time>2016-03-09T16:09:48Z</time>
      </trkpt>
      <trkpt lat="43.4124" lon="6.06718">
        <ele>214.39999389648</ele>
        <time>2016-03-09T16:09:56Z</time>
      </trkpt>
      <trkpt lat="43.4124" lon="6.06718">
        <ele>214.60000610352</ele>
        <time>2016-03-09T16:09:59Z</time>
      </trkpt>
      <trkpt lat="43.41241" lon="6.06718">
        <ele>214.39999389648</ele>
        <time>2016-03-09T16:10:08Z</time>
      </trkpt>
      <trkpt lat="43.41241" lon="6.06718">
        <ele>214.19999694824</ele>
        <time>2016-03-09T16:10:15Z</time>
      </trkpt>
      <trkpt lat="43.41241" lon="6.06718">
        <ele>214.60000610352</ele>
        <time>2016-03-09T16:10:19Z</time>
      </trkpt>
      <trkpt lat="43.41246" lon="6.0672">
        <ele>214.19999694824</ele>
        <time>2016-03-09T16:10:35Z</time>
      </trkpt>
      <trkpt lat="43.4125" lon="6.06725">
        <ele>214.19999694824</ele>
        <time>2016-03-09T16:10:37Z</time>
      </trkpt>
      <trkpt lat="43.41254" lon="6.06732">
        <ele>214.60000610352</ele>
        <time>2016-03-09T16:10:39Z</time>
      </trkpt>
      <trkpt lat="43.41261" lon="6.06744">
        <ele>214.39999389648</ele>
        <time>2016-03-09T16:10:42Z</time>
      </trkpt>
      <trkpt lat="43.41274" lon="6.06766">
        <ele>215.39999389648</ele>
        <time>2016-03-09T16:10:48Z</time>
      </trkpt>
      <trkpt lat="43.41307" lon="6.06801">
        <ele>216.60000610352</ele>
        <time>2016-03-09T16:11:00Z</time>
      </trkpt>
      <trkpt lat="43.41341" lon="6.06823">
        <ele>217.60000610352</ele>
        <time>2016-03-09T16:11:13Z</time>
      </trkpt>
      <trkpt lat="43.41393" lon="6.06849">
        <ele>217.60000610352</ele>
        <time>2016-03-09T16:11:31Z</time>
      </trkpt>
      <trkpt lat="43.41398" lon="6.06855">
        <ele>217.39999389648</ele>
        <time>2016-03-09T16:11:33Z</time>
      </trkpt>
      <trkpt lat="43.41411" lon="6.0687">
        <ele>217</ele>
        <time>2016-03-09T16:11:38Z</time>
      </trkpt>
      <trkpt lat="43.41415" lon="6.06881">
        <ele>217.39999389648</ele>
        <time>2016-03-09T16:11:42Z</time>
      </trkpt>
      <trkpt lat="43.41415" lon="6.06885">
        <ele>217.39999389648</ele>
        <time>2016-03-09T16:11:46Z</time>
      </trkpt>
      <trkpt lat="43.41426" lon="6.06911">
        <ele>217.19999694824</ele>
        <time>2016-03-09T16:11:54Z</time>
      </trkpt>
      <trkpt lat="43.41447" lon="6.06923">
        <ele>217</ele>
        <time>2016-03-09T16:12:00Z</time>
      </trkpt>
      <trkpt lat="43.4146" lon="6.06928">
        <ele>217.19999694824</ele>
        <time>2016-03-09T16:12:03Z</time>
      </trkpt>
      <trkpt lat="43.4148" lon="6.06946">
        <ele>216.60000610352</ele>
        <time>2016-03-09T16:12:09Z</time>
      </trkpt>
      <trkpt lat="43.41497" lon="6.06964">
        <ele>216.80000305176</ele>
        <time>2016-03-09T16:12:16Z</time>
      </trkpt>
      <trkpt lat="43.41507" lon="6.06973">
        <ele>216.39999389648</ele>
        <time>2016-03-09T16:12:21Z</time>
      </trkpt>
      <trkpt lat="43.41509" lon="6.06973">
        <ele>216.39999389648</ele>
        <time>2016-03-09T16:12:22Z</time>
      </trkpt>
      <trkpt lat="43.41533" lon="6.06972">
        <ele>217</ele>
        <time>2016-03-09T16:12:29Z</time>
      </trkpt>
      <trkpt lat="43.41545" lon="6.0697">
        <ele>217</ele>
        <time>2016-03-09T16:12:32Z</time>
      </trkpt>
      <trkpt lat="43.41558" lon="6.06968">
        <ele>217.60000610352</ele>
        <time>2016-03-09T16:12:36Z</time>
      </trkpt>
      <trkpt lat="43.41563" lon="6.06967">
        <ele>217.80000305176</ele>
        <time>2016-03-09T16:12:38Z</time>
      </trkpt>
      <trkpt lat="43.41569" lon="6.06968">
        <ele>218.60000610352</ele>
        <time>2016-03-09T16:12:55Z</time>
      </trkpt>
      <trkpt lat="43.41569" lon="6.06968">
        <ele>218.39999389648</ele>
        <time>2016-03-09T16:13:11Z</time>
      </trkpt>
      <trkpt lat="43.41569" lon="6.06968">
        <ele>218.60000610352</ele>
        <time>2016-03-09T16:13:14Z</time>
      </trkpt>
      <trkpt lat="43.41569" lon="6.06968">
        <ele>218.60000610352</ele>
        <time>2016-03-09T16:13:19Z</time>
      </trkpt>
      <trkpt lat="43.41575" lon="6.07017">
        <ele>218.19999694824</ele>
        <time>2016-03-09T16:13:56Z</time>
      </trkpt>
      <trkpt lat="43.41578" lon="6.07032">
        <ele>218</ele>
        <time>2016-03-09T16:14:04Z</time>
      </trkpt>
      <trkpt lat="43.41578" lon="6.07033">
        <ele>218.19999694824</ele>
        <time>2016-03-09T16:14:18Z</time>
      </trkpt>
      <trkpt lat="43.41578" lon="6.07032">
        <ele>218.19999694824</ele>
        <time>2016-03-09T16:14:31Z</time>
      </trkpt>
      <trkpt lat="43.41578" lon="6.07036">
        <ele>218.19999694824</ele>
        <time>2016-03-09T16:14:39Z</time>
      </trkpt>
      <trkpt lat="43.41577" lon="6.07037">
        <ele>218.39999389648</ele>
        <time>2016-03-09T16:14:44Z</time>
      </trkpt>
      <trkpt lat="43.41578" lon="6.07037">
        <ele>218.39999389648</ele>
        <time>2016-03-09T16:14:53Z</time>
      </trkpt>
    </trkseg>
  </trk>
</gpx>